GEFSSGP_con_probscp_000.txt.gz
Probability
0 0 0 0 0 0 0 0 0 0 0 0 0 0 0 0 0 1 1 1 1 0 0 0 1 2 2 1 2 4 8 16 28 32 22 11 6 4 2 1 0 0 0 1 1 2 5 6 7
0 0 0 0 0 0 0 0 0 0 0 0 0 0 0 0 0 2 4 3 1 0 0 0 2 2 2 2 2 3 5 9 15 18 13 8 6 3 1 0 0 0 1 3 4 4 5 6 6
0 0 0 0 0 0 0 0 0 0 0 0 0 0 0 0 1 3 5 4 2 0 0 1 2 2 1 1 1 1 2 3 4 5 4 4 3 1 0 0 0 1 3 6 7 6 6 6 6
0 0 0 0 0 0 0 0 0 0 0 0 0 0 0 0 1 2 3 2 1 0 0 0 1 1 0 0 0 0 1 1 1 1 1 1 1 0 0 0 0 1 4 6 7 6 5 4 3
0 0 0 0 0 0 0 0 0 0 0 0 0 0 0 0 1 2 2 0 0 0 0 0 0 0 0 0 0 0 0 0 0 0 0 0 0 0 0 0 0 1 3 5 5 4 3 1 0
0 0 0 0 0 0 0 0 0 0 0 0 0 0 0 0 1 3 2 0 0 0 0 0 0 0 1 1 0 0 1 0 0 0 0 0 0 0 0 1 1 2 3 4 2 1 1 0 0
0 0 0 0 0 0 0 0 0 0 0 0 0 0 0 0 1 1 1 0 0 0 0 0 0 0 1 1 0 0 0 0 0 0 0 0 0 0 0 1 3 5 6 4 1 0 0 0 0
0 0 0 0 0 0 0 0 0 0 0 0 0 0 0 1 1 0 0 0 0 0 0 0 0 0 1 1 0 0 1 1 0 0 0 0 0 0 1 2 4 6 8 5 1 0 0 0 0
0 0 0 0 0 0 0 0 0 0 0 0 0 0 1 2 2 1 0 0 0 0 0 0 0 0 0 0 0 0 1 1 0 0 0 0 0 0 1 3 4 5 6 4 1 0 0 0 0
0 0 0 0 0 0 0 0 0 0 0 0 0 1 3 4 2 1 0 0 0 0 0 0 0 0 0 0 0 0 1 1 0 0 0 0 0 0 0 1 2 3 3 2 0 0 0 0 0
0 0 0 0 0 0 0 0 0 0 0 0 0 5 9 7 2 0 0 0 0 0 0 0 0 0 0 0 0 0 0 0 0 0 0 0 0 0 0 0 0 1 1 0 0 0 0 0 0
0 0 0 0 0 0 0 0 0 0 0 0 2 12 20 12 2 0 0 0 0 0 0 0 0 0 0 0 0 0 0 0 0 0 0 0 0 0 0 0 0 0 0 0 0 0 0 0 0
0 0 0 0 0 0 0 0 0 0 0 0 5 18 24 13 3 1 1 0 0 0 0 0 0 0 0 0 0 0 0 0 0 0 0 0 0 0 0 0 0 0 0 0 0 0 0 0 0
0 0 0 0 0 0 0 0 0 0 0 1 6 16 17 9 4 4 2 0 0 0 0 0 0 0 0 0 0 0 0 0 0 0 0 0 1 4 4 1 0 0 0 0 0 0 0 0 0
0 0 0 0 0 0 0 0 1 1 1 2 7 11 10 6 9 13 7 1 0 0 0 0 0 0 0 0 0 1 1 0 0 0 1 1 4 9 9 3 0 0 0 0 0 0 0 0 0
0 0 0 0 0 0 0 0 1 3 3 6 13 16 11 9 21 29 18 4 0 0 0 0 0 0 1 5 11 12 8 2 1 1 1 2 4 7 7 3 0 0 0 0 0 0 0 0 0
0 0 0 0 0 0 0 0 1 3 6 14 33 38 25 21 37 46 30 7 0 0 0 0 1 5 12 22 33 33 17 5 2 1 1 1 1 2 2 1 0 0 0 0 0 0 0 0 0
0 0 0 0 0 0 0 0 1 2 5 24 56 65 46 37 51 58 37 12 3 2 5 8 10 16 28 39 44 37 18 4 1 1 0 0 0 0 0 0 0 0 0 0 0 0 0 0 0
0 0 0 0 0 0 0 0 0 0 4 23 57 68 55 50 66 68 46 24 17 18 27 35 35 32 39 46 40 24 9 1 0 0 0 0 0 0 0 0 0 0 0 0 0 0 0 0 0
0 0 0 0 0 0 0 0 0 0 2 12 34 48 50 62 78 76 58 44 44 52 64 71 68 59 53 47 31 13 2 0 0 0 0 0 0 0 0 0 0 0 0 0 0 0 0 0 0
0 0 0 0 0 0 0 0 0 0 0 3 12 26 48 70 82 77 69 65 70 80 89 91 86 75 59 38 19 6 1 0 0 0 0 0 0 0 0 0 0 0 0 0 0 0 0 0 0
0 0 0 0 0 0 0 0 0 0 0 1 3 13 41 73 83 78 70 66 70 81 90 91 81 63 40 19 6 1 0 0 0 0 0 0 0 0 0 0 0 0 0 0 0 0 0 0 0
0 0 0 0 0 0 0 0 0 0 0 1 3 10 36 72 88 78 57 42 48 66 77 75 60 37 17 6 1 0 0 0 0 0 0 0 0 0 0 0 0 0 0 0 0 0 0 0 0
0 0 0 0 0 0 0 0 0 0 0 0 7 18 42 71 78 57 31 18 28 48 55 47 31 15 5 1 0 0 0 0 0 0 0 0 0 0 0 0 0 0 0 0 0 0 0 0 0
0 0 0 0 0 0 0 0 0 0 0 1 12 32 51 59 44 22 9 6 15 27 28 18 8 3 0 0 0 0 0 0 0 0 0 0 0 0 0 0 0 0 0 0 0 0 0 0 0
0 0 0 0 0 0 0 0 0 0 0 2 21 45 49 30 13 2 0 1 4 7 6 3 0 0 0 0 0 0 0 0 0 0 0 0 0 0 0 0 0 0 0 0 0 0 0 0 0
0 0 0 0 0 0 0 0 0 0 0 4 25 42 28 8 1 0 0 0 0 0 0 0 0 0 0 0 0 0 0 0 0 0 0 0 0 0 0 0 0 0 0 0 0 0 0 0 0
0 0 0 0 0 0 0 0 0 0 0 7 23 26 10 0 0 0 0 0 0 0 0 0 0 0 0 0 0 0 0 0 0 0 0 0 0 0 0 0 0 0 0 0 0 0 0 0 0
0 0 0 0 0 0 0 0 0 0 0 9 21 15 3 0 0 0 0 0 0 0 0 0 0 0 0 0 0 0 0 0 0 0 0 0 0 0 0 0 0 0 0 0 0 0 0 0 0
0 0 0 0 0 0 0 0 0 0 0 9 18 11 1 0 0 0 0 0 0 0 0 0 0 0 0 0 0 0 0 0 0 0 0 0 0 0 0 0 0 0 0 0 0 0 0 0 0

GEFSSGP_con_probscp_006.txt.gz
Probability
0 0 0 0 0 0 0 0 1 1 1 0 0 0 0 1 8 19 17 14 12 6 2 4 6 3 1 1 1 0 0 0 0 1 0 0 0 0 0 0 0 0 0 0 0 0 0 0 0
0 0 0 0 0 0 0 0 1 1 0 0 0 0 0 0 4 7 7 6 5 2 1 2 4 3 1 0 0 0 0 0 0 1 0 0 0 0 0 0 0 0 0 0 0 0 0 0 0
0 0 0 0 0 0 0 0 0 0 0 0 0 0 0 0 0 0 0 0 1 2 3 2 3 4 1 0 0 0 0 0 0 0 0 0 0 0 0 0 0 0 0 0 0 0 0 0 0
0 0 0 0 0 0 0 0 0 0 0 0 0 0 0 0 1 1 0 0 1 4 5 4 3 3 1 0 0 0 0 0 0 0 0 0 0 0 0 0 0 0 0 0 0 0 0 0 0
0 0 0 0 0 0 0 0 0 0 0 0 0 0 0 1 2 1 0 0 1 3 4 3 1 1 0 0 0 0 0 0 0 0 0 0 0 0 0 0 0 0 0 0 0 0 0 0 0
0 0 0 0 0 0 0 0 0 0 0 0 0 0 1 2 2 0 0 0 0 1 2 1 0 0 0 0 0 0 0 0 0 0 0 0 0 0 0 0 0 0 0 0 0 0 0 0 0
0 0 0 0 0 0 0 0 0 0 0 0 0 0 7 14 9 2 0 0 0 1 1 1 0 0 0 0 0 0 0 0 0 0 0 0 0 0 0 0 0 0 0 0 0 0 0 0 0
0 0 0 0 0 0 0 0 0 0 0 0 0 1 14 28 20 5 1 0 0 1 3 4 3 1 0 0 0 0 0 0 0 0 0 0 0 0 0 0 0 0 0 0 0 0 0 0 0
0 0 0 0 0 0 0 0 0 0 0 0 0 4 19 29 22 10 7 8 6 4 8 12 9 3 0 0 0 0 0 0 0 0 0 0 0 0 0 0 0 0 0 0 0 0 0 0 0
0 0 0 0 0 0 0 0 0 0 0 0 4 13 23 25 20 14 18 29 30 20 14 17 16 7 2 0 0 0 0 0 0 0 0 0 0 0 0 0 0 0 0 0 0 0 0 0 0
0 0 0 0 0 0 0 0 0 0 0 1 10 24 28 24 19 14 22 47 60 41 19 17 21 14 5 1 0 0 1 0 0 1 1 0 0 0 0 1 1 1 0 0 0 0 0 0 0
0 0 0 0 0 0 0 0 0 0 0 1 13 30 31 23 16 11 20 49 70 51 21 18 31 30 21 11 5 5 9 8 7 6 2 0 0 0 1 4 4 2 1 1 1 0 0 0 0
0 0 0 0 0 0 0 0 0 0 0 1 12 31 34 21 11 13 29 56 69 51 22 19 42 57 53 38 24 23 28 23 17 8 2 0 1 7 15 19 15 8 7 12 14 9 5 4 3
0 0 0 0 0 0 0 0 0 0 0 0 10 30 39 24 12 25 54 76 80 64 41 34 54 79 79 57 43 40 34 32 26 24 24 20 16 21 36 46 43 34 29 35 37 26 14 9 5
0 0 0 0 0 0 0 0 0 0 0 1 7 24 40 33 26 45 77 93 93 86 74 61 65 84 82 59 48 40 35 43 53 63 68 61 47 42 54 69 74 68 56 52 48 34 19 11 7
0 0 0 0 0 0 0 0 0 0 0 1 5 16 34 44 47 67 91 99 99 98 93 79 74 86 82 68 62 56 59 73 85 92 92 83 66 56 65 75 78 73 58 46 37 24 14 9 7
0 0 0 0 0 0 0 0 0 0 0 1 4 10 28 50 67 85 98 100 100 100 96 87 86 91 91 88 87 87 89 94 94 90 84 73 54 47 56 58 52 46 36 26 16 9 5 4 4
0 0 0 0 0 0 0 0 0 0 0 1 3 7 24 52 79 94 100 100 100 100 99 97 97 98 98 98 99 99 96 90 81 73 66 52 32 24 29 29 22 16 13 9 3 1 0 0 1
0 0 0 0 0 0 0 0 0 0 0 1 2 5 21 54 85 98 100 99 98 99 100 100 100 100 100 100 100 99 93 79 62 49 39 26 14 8 10 8 4 2 2 2 1 0 0 0 0
0 0 0 0 0 0 0 0 0 0 0 0 1 3 17 52 86 100 100 99 98 99 100 100 100 100 100 100 100 97 85 63 38 23 14 8 3 2 1 1 0 0 0 0 0 0 0 0 0
0 0 0 0 0 0 0 0 0 0 0 0 0 1 10 40 78 98 100 100 99 100 100 100 100 100 100 100 99 91 73 47 23 10 5 2 0 0 0 0 0 0 0 0 0 0 0 0 0
0 0 0 0 0 0 0 0 0 0 0 0 0 0 4 25 64 92 100 100 100 100 100 100 100 100 99 99 97 89 70 45 23 9 3 1 0 0 0 0 0 0 0 0 0 0 0 0 0
0 0 0 0 0 0 0 0 0 0 0 0 0 0 2 21 58 90 100 100 100 100 100 100 100 99 98 96 94 87 69 43 20 6 1 0 0 0 0 0 0 0 0 0 0 0 0 0 0
0 0 0 0 0 0 0 0 0 0 0 0 2 5 12 34 70 94 100 99 99 99 98 97 95 91 85 77 72 64 47 26 9 2 0 0 0 0 0 0 0 0 0 0 0 0 0 0 0
0 0 0 0 0 0 0 0 0 0 0 2 11 26 41 64 87 98 99 98 97 94 90 83 73 63 52 41 35 28 18 8 2 0 0 0 0 0 0 0 0 0 0 0 0 0 0 0 0
0 0 0 0 0 0 0 0 0 0 1 6 28 57 78 90 96 96 91 85 81 76 67 55 40 27 18 12 9 7 4 1 0 0 0 0 0 0 0 0 0 0 0 0 0 0 0 0 0
0 0 0 0 0 0 0 0 0 0 1 13 44 76 87 82 78 73 63 52 47 42 34 23 13 6 3 2 2 2 1 0 0 0 0 0 0 0 0 0 0 0 0 0 0 0 0 0 0
0 0 0 0 0 0 0 0 0 0 2 20 55 75 62 45 38 32 25 17 14 12 9 5 2 1 0 0 0 0 0 0 0 0 0 0 0 0 0 0 0 0 0 0 0 0 0 0 0
0 0 0 0 0 0 0 0 1 1 4 25 61 69 42 17 9 6 3 2 1 1 1 1 0 0 0 0 0 0 0 0 0 0 0 0 0 0 0 0 0 0 0 0 0 0 0 0 0
0 0 0 0 0 0 0 1 2 2 5 26 61 71 41 12 3 1 0 0 0 0 0 0 0 0 0 0 0 0 0 0 0 0 0 0 0 0 0 0 0 0 0 0 0 0 0 0 0

GEFSSGP_con_probscp_012.txt.gz
Probability
0 0 0 0 0 0 0 0 0 0 0 0 2 9 15 11 3 0 0 0 0 0 1 7 21 32 36 32 25 20 17 15 12 10 7 4 3 2 2 1 0 0 0 0 0 0 0 0 0
0 0 0 0 0 0 0 0 0 0 0 0 1 5 8 6 2 0 0 0 0 0 0 5 13 21 24 21 17 15 12 10 8 5 4 2 1 1 1 0 0 0 0 0 0 0 0 0 0
0 0 0 0 0 0 0 0 0 0 0 0 0 1 2 1 1 0 0 0 0 0 0 2 5 9 10 9 7 7 6 3 2 1 1 0 0 0 0 0 0 0 0 0 0 0 0 0 0
0 0 0 0 0 0 0 0 0 0 0 1 1 0 0 2 4 3 1 0 0 0 1 2 3 2 2 2 2 2 1 0 0 0 0 0 0 0 0 0 0 0 0 0 0 0 0 0 0
0 0 0 0 0 0 0 0 0 0 1 2 1 0 0 5 13 13 5 0 0 0 1 2 2 1 0 0 0 0 0 0 0 0 0 0 0 0 0 0 0 0 0 0 0 0 0 0 0
0 0 0 0 0 0 0 0 0 1 2 2 1 0 0 8 23 27 14 3 0 0 0 1 1 1 0 0 0 0 0 0 0 0 0 0 0 0 0 0 0 0 0 0 0 0 0 0 0
0 0 0 0 0 0 0 0 0 0 1 1 0 0 0 6 23 37 29 12 2 0 0 0 0 0 0 0 0 0 0 0 0 0 0 0 0 0 0 0 0 0 0 0 0 0 0 0 0
0 0 0 0 0 0 0 0 0 0 1 1 0 0 0 3 19 42 43 21 4 0 0 0 0 0 0 0 0 0 0 0 0 0 0 0 0 0 0 0 0 0 0 0 0 0 0 0 0
0 0 0 0 0 0 0 0 0 1 4 6 5 4 2 3 19 45 50 27 6 0 0 0 0 0 0 0 0 0 0 0 0 0 0 0 0 0 0 0 0 0 0 0 0 0 0 0 0
0 0 0 0 0 0 0 0 0 3 11 19 23 19 10 7 21 45 52 33 10 2 1 1 0 0 0 0 0 0 0 0 0 0 0 0 0 0 0 0 0 0 0 0 0 0 0 0 0
0 0 0 0 0 0 0 0 0 4 15 33 46 41 25 18 27 46 54 40 20 11 11 10 5 1 0 0 0 0 0 0 0 0 0 0 0 0 0 0 0 0 0 0 0 0 0 0 0
0 0 0 0 0 0 0 0 0 4 18 41 56 52 37 31 37 50 57 51 38 31 33 31 18 6 1 0 0 0 0 0 0 0 0 0 0 0 0 0 0 0 0 0 0 0 0 0 0
0 0 0 0 0 0 0 0 0 5 22 44 53 47 39 37 42 53 64 67 62 57 59 56 35 13 3 0 0 0 0 0 0 0 0 0 0 0 0 0 0 0 0 0 0 0 0 0 0
0 0 0 0 0 0 0 0 0 7 26 44 46 38 33 36 44 56 71 81 78 73 74 74 55 24 6 2 2 1 0 0 0 0 0 0 0 0 0 0 0 0 0 0 0 0 0 0 0
0 0 0 0 0 0 0 0 0 7 25 40 40 32 26 30 40 55 73 84 82 78 79 84 74 42 16 8 6 4 2 1 0 0 0 0 0 0 0 0 0 0 0 0 0 0 0 0 0
0 0 0 0 0 0 0 0 1 6 19 32 35 28 22 24 31 45 65 79 79 77 81 89 87 65 35 20 18 18 15 11 7 3 1 0 0 0 0 0 0 0 0 0 0 0 0 0 0
0 0 0 0 0 0 0 0 1 5 12 25 33 28 22 21 24 36 58 72 74 76 83 92 95 84 62 47 44 42 34 23 12 4 1 1 1 1 0 0 0 0 0 0 0 0 0 0 0
0 0 0 0 0 0 0 0 0 2 7 18 27 27 22 20 23 35 55 69 73 79 87 94 97 95 88 79 71 59 39 20 8 2 0 1 1 1 0 0 0 0 0 0 0 0 0 0 0
0 0 0 0 0 0 0 0 0 0 3 10 17 20 21 25 33 45 61 74 81 88 92 96 98 100 98 93 79 56 28 8 1 0 0 0 0 0 0 0 0 0 0 0 0 0 0 0 0
0 0 0 0 0 0 0 0 0 0 1 4 8 14 24 39 53 64 75 86 92 96 97 98 99 100 98 89 69 39 14 3 0 0 0 0 0 0 0 0 0 0 0 0 0 0 0 0 0
0 0 0 0 0 0 0 0 0 0 0 1 4 12 33 58 75 84 91 96 98 99 99 99 99 100 94 77 48 20 5 1 0 0 0 0 0 0 0 0 0 0 0 0 0 0 0 0 0
0 0 0 0 0 0 0 0 0 0 0 0 2 9 35 68 88 95 99 100 100 100 100 100 100 97 83 55 24 6 1 0 0 0 0 0 0 0 0 0 0 0 0 0 0 0 0 0 0
0 0 0 0 0 0 0 0 0 0 0 0 2 6 28 66 91 98 100 100 100 100 100 99 95 83 59 28 8 1 0 0 0 0 0 0 0 0 0 0 0 0 0 0 0 0 0 0 0
0 0 0 0 0 0 0 0 0 0 0 3 9 14 30 62 89 98 100 100 100 97 92 84 71 52 28 10 2 0 0 0 0 0 0 0 0 0 0 0 0 0 0 0 0 0 0 0 0
0 0 0 0 0 0 0 0 0 2 8 18 30 38 48 68 89 98 99 99 95 83 66 48 32 18 7 2 0 0 0 0 0 0 0 0 0 0 0 0 0 0 0 0 0 0 0 0 0
0 0 0 0 0 0 0 0 2 12 30 47 60 67 73 82 92 97 96 93 80 55 30 15 7 2 0 0 0 0 0 0 0 0 0 0 0 0 0 0 0 0 0 0 0 0 0 0 0
0 0 0 0 0 0 0 0 4 20 45 66 77 81 82 82 81 80 78 70 51 25 8 2 0 0 0 0 0 0 0 0 0 0 0 0 0 0 0 0 0 0 0 0 0 0 0 0 0
0 0 0 0 0 0 0 0 3 13 35 58 70 70 65 57 49 46 42 34 20 8 1 0 0 0 0 0 0 0 0 0 0 0 0 0 0 0 0 0 0 0 0 0 0 0 0 0 0
0 0 0 0 0 0 0 3 6 8 19 38 48 44 34 25 19 15 12 8 4 1 0 0 0 0 0 0 0 0 0 0 0 0 0 0 0 0 0 0 0 0 0 0 0 0 0 0 0
0 0 0 0 0 0 1 6 11 12 16 26 30 25 16 11 7 4 1 0 0 0 0 0 0 0 0 0 0 0 0 0 0 0 0 0 0 0 0 0 0 0 0 0 0 0 0 0 0

GEFSSGP_con_probscp_018.txt.gz
Probability
0 0 0 0 0 0 0 0 0 0 0 0 0 0 0 0 0 0 0 0 0 0 0 0 0 0 0 0 0 1 2 3 5 8 11 14 12 6 1 0 0 0 0 0 0 0 0 0 0
0 0 0 0 0 0 0 0 0 0 0 0 0 0 0 0 0 0 0 0 0 0 0 0 0 0 0 0 0 1 2 2 3 4 5 5 5 2 0 0 0 0 0 0 0 0 0 0 0
0 0 0 0 0 0 0 0 0 0 0 0 0 0 0 0 0 0 0 0 0 0 0 0 0 0 0 0 0 0 1 1 1 1 0 0 0 0 0 0 0 0 0 0 0 0 0 0 0
0 0 0 0 0 0 0 0 0 0 0 0 0 0 0 0 0 0 0 0 0 0 0 0 1 1 0 0 0 0 0 0 0 0 0 0 0 0 0 0 0 0 0 0 0 0 0 0 0
0 0 0 0 0 0 0 0 0 0 0 0 0 0 0 0 0 0 0 1 1 0 0 0 2 3 2 0 0 0 0 0 0 0 0 0 0 0 0 0 0 0 0 0 0 0 0 0 0
0 0 0 0 0 0 0 0 0 0 0 0 0 0 0 0 0 0 1 1 1 1 1 0 2 3 2 0 0 0 0 0 0 0 0 0 0 0 0 0 0 0 0 0 0 0 0 0 0
0 0 0 0 0 0 0 0 0 0 0 0 0 0 0 0 0 0 0 0 0 1 2 1 1 1 1 0 0 0 0 0 0 0 0 0 0 0 0 0 0 0 0 0 0 0 0 0 0
0 0 0 0 0 0 0 0 0 0 0 0 0 0 0 0 0 0 0 0 0 1 2 1 0 0 0 0 0 0 0 0 0 0 0 0 0 0 0 0 0 0 0 0 0 0 0 0 0
0 0 0 0 0 0 0 0 0 0 0 0 0 0 0 1 1 2 1 0 0 1 1 1 0 0 0 0 0 0 0 0 0 0 0 0 0 0 0 0 0 0 0 0 0 0 0 0 0
0 0 0 0 0 0 0 0 0 0 0 0 0 2 5 6 3 2 2 1 0 0 0 0 0 0 0 0 0 0 0 0 0 0 0 0 0 0 0 0 0 0 0 0 0 0 0 0 0
0 0 0 0 0 0 0 0 0 0 0 0 2 10 19 17 9 4 2 2 1 1 0 1 1 1 1 0 0 0 0 0 0 0 0 0 0 0 0 0 0 0 0 0 0 0 0 0 0
0 0 0 0 0 0 0 0 0 0 0 0 6 23 35 32 20 9 3 2 3 2 1 1 2 3 2 1 0 0 0 0 0 0 0 0 0 0 0 0 0 0 0 0 0 0 0 0 0
0 0 0 0 0 0 0 0 0 0 0 1 14 36 51 49 35 17 6 4 3 2 1 0 1 3 4 2 1 0 0 0 0 0 0 0 0 0 0 0 0 0 0 0 0 0 0 0 0
0 0 0 0 0 0 0 0 0 0 0 5 24 48 63 64 51 30 15 9 6 4 2 1 3 6 7 6 4 2 0 0 0 0 0 0 0 0 0 0 0 0 0 0 0 0 0 0 0
0 0 0 0 0 0 0 0 0 0 1 9 30 55 66 67 62 45 27 18 13 10 7 7 9 15 17 13 8 4 1 0 0 0 0 0 0 0 0 0 0 0 0 0 0 0 0 0 0
0 0 0 0 0 0 0 0 0 0 1 9 30 53 61 59 58 49 35 28 28 28 25 23 26 32 32 23 12 4 1 0 0 0 0 0 0 0 0 0 0 0 0 0 0 0 0 0 0
0 0 0 0 0 0 0 0 0 0 1 8 27 47 54 51 50 45 37 38 47 53 53 52 56 60 53 37 20 8 2 1 1 1 0 0 0 0 0 0 0 0 0 0 0 0 0 0 0
0 0 0 0 0 0 0 0 0 0 0 5 19 36 44 46 47 42 38 44 57 70 76 81 84 85 74 54 35 19 7 2 1 1 0 0 0 0 0 0 0 0 0 0 0 0 0 0 0
0 0 0 0 0 0 0 0 0 0 0 2 10 22 32 37 38 34 33 42 58 73 85 92 95 93 84 67 47 25 9 2 1 1 0 0 0 0 0 0 0 0 0 0 0 0 0 0 0
0 0 0 0 0 0 0 0 0 0 0 1 4 10 17 22 23 22 25 34 51 70 84 93 95 90 80 64 41 19 6 1 0 0 0 0 0 0 0 0 0 0 0 0 0 0 0 0 0
0 0 0 0 0 0 0 0 0 0 0 0 1 2 5 9 13 15 18 26 43 66 83 92 92 83 69 48 25 8 2 0 0 0 0 0 0 0 0 0 0 0 0 0 0 0 0 0 0
0 0 0 0 0 0 0 0 0 0 0 0 0 0 1 4 8 12 14 19 38 65 84 91 86 71 52 31 13 3 1 0 0 0 0 0 0 0 0 0 0 0 0 0 0 0 0 0 0
0 0 0 0 0 0 0 0 0 0 0 1 3 4 5 6 7 11 15 23 43 69 85 85 71 50 32 16 6 1 0 0 0 0 0 0 0 0 0 0 0 0 0 0 0 0 0 0 0
0 0 0 0 0 0 0 0 0 1 3 7 11 14 16 15 15 20 30 41 57 74 79 67 47 27 13 5 1 0 0 0 0 0 0 0 0 0 0 0 0 0 0 0 0 0 0 0 0
0 0 0 0 0 0 0 0 1 4 9 12 15 19 21 22 26 34 45 53 61 65 57 40 22 9 3 0 0 0 0 0 0 0 0 0 0 0 0 0 0 0 0 0 0 0 0 0 0
0 0 0 0 0 0 0 0 2 7 11 12 11 12 16 20 27 35 37 39 40 35 25 14 7 2 0 0 0 0 0 0 0 0 0 0 0 0 0 0 0 0 0 0 0 0 0 0 0
0 0 0 0 0 0 0 0 2 6 8 8 6 6 10 15 19 19 17 14 12 9 5 2 1 0 0 0 0 0 0 0 0 0 0 0 0 0 0 0 0 0 0 0 0 0 0 0 0
0 0 0 0 0 0 0 0 1 2 4 6 6 5 6 8 8 6 4 2 1 0 0 0 0 0 0 0 0 0 0 0 0 0 0 0 0 0 0 0 0 0 0 0 0 0 0 0 0
0 0 0 0 0 0 0 0 1 3 6 8 7 4 3 2 2 1 1 0 0 0 0 0 0 0 0 0 0 0 0 0 0 0 0 0 0 0 0 0 0 0 0 0 0 0 0 0 0
0 0 0 0 0 0 0 1 3 7 11 12 8 3 1 0 0 0 0 0 0 0 0 0 0 0 0 0 0 0 0 0 0 0 0 0 0 0 0 0 0 0 0 0 0 0 0 0 0

GEFSSGP_con_probscp_024.txt.gz
Probability
0 0 0 0 0 0 0 0 0 0 0 0 0 0 0 0 0 0 0 0 0 0 0 0 0 0 0 0 0 0 1 2 2 2 2 1 0 0 0 0 0 0 0 0 0 0 0 0 0
0 0 0 0 0 0 0 0 0 0 0 0 0 0 0 0 0 0 0 0 0 0 0 0 0 0 0 0 0 0 1 2 3 2 1 0 0 0 0 0 0 0 0 0 0 0 0 0 0
0 0 0 0 0 0 0 0 0 0 0 0 0 0 0 0 0 0 0 0 0 0 0 0 0 0 0 0 0 0 1 2 2 2 1 0 0 0 0 0 0 0 0 0 0 0 0 0 0
0 0 0 0 0 0 0 0 0 0 0 0 0 0 0 0 0 0 0 0 0 0 0 0 0 0 0 0 0 0 0 1 1 1 1 0 0 0 0 0 0 0 0 0 0 0 0 0 0
0 0 0 0 0 0 0 0 0 0 0 0 0 0 0 0 0 0 0 0 0 0 0 0 0 0 0 0 0 0 0 0 0 0 0 0 0 0 0 0 0 0 0 0 0 0 0 0 0
0 0 0 0 0 0 0 0 0 0 0 0 0 0 0 0 0 0 0 0 0 0 0 0 0 0 0 0 0 0 0 0 0 0 0 0 0 0 0 0 0 0 0 0 0 0 0 0 0
0 0 0 0 0 0 0 0 0 0 0 0 0 0 0 0 0 0 0 0 0 0 0 0 0 0 0 0 0 0 0 0 0 0 0 0 0 0 0 0 0 0 0 0 0 0 0 0 0
0 0 0 0 0 0 0 0 0 0 0 0 0 0 1 2 1 0 0 0 0 0 0 0 0 0 0 0 0 0 0 0 0 0 0 0 0 0 0 0 0 0 0 0 0 0 0 0 0
0 0 0 0 0 0 0 0 0 0 0 0 0 0 2 6 5 1 0 0 0 0 0 0 0 0 0 0 0 0 0 0 0 0 0 0 0 0 0 0 0 0 0 0 0 0 0 0 0
0 0 0 0 0 0 0 0 0 0 0 0 0 0 5 11 10 3 0 0 0 0 0 0 0 0 0 0 0 0 0 0 0 0 0 0 0 0 0 0 0 0 0 0 0 0 0 0 0
0 0 0 0 0 0 0 0 0 0 0 0 0 2 11 19 15 5 1 0 0 0 0 0 0 0 0 0 0 0 0 0 0 0 0 0 0 0 0 0 0 0 0 0 0 0 0 0 0
0 0 0 0 0 0 0 0 0 0 0 0 0 4 16 22 15 6 1 0 0 0 0 0 0 1 1 1 0 0 0 0 0 0 1 1 0 0 0 0 0 0 0 0 0 0 0 0 0
0 0 0 0 0 0 0 0 0 0 0 0 0 4 11 14 10 3 1 0 1 1 1 2 2 3 4 3 1 0 0 0 0 0 1 2 1 1 1 2 2 1 1 1 0 0 0 0 0
0 0 0 0 0 0 0 0 0 0 0 0 0 1 3 5 4 4 6 7 6 6 7 8 9 11 12 8 4 1 0 1 1 1 3 5 7 9 10 11 11 11 10 7 3 0 0 0 0
0 0 0 0 0 0 0 0 0 0 0 0 0 0 0 1 3 6 13 19 21 21 24 24 23 27 27 20 12 7 5 6 8 9 11 14 18 26 34 36 35 32 25 15 7 2 1 1 0
0 0 0 0 0 0 0 0 0 0 0 0 0 0 0 1 2 5 15 30 42 47 50 47 43 47 49 42 33 26 20 18 21 27 31 34 39 51 65 66 57 45 31 17 9 5 3 2 1
0 0 0 0 0 0 0 0 0 0 0 0 0 0 0 0 1 3 16 39 61 71 73 70 67 69 72 69 63 55 45 40 43 49 55 59 61 68 73 69 55 39 23 12 7 5 3 2 1
0 0 0 0 0 0 0 0 0 0 0 0 0 0 0 1 1 4 19 43 69 82 85 86 86 87 89 89 85 77 69 63 59 57 60 61 59 57 53 46 35 23 13 7 4 2 1 1 0
0 0 0 0 0 0 0 0 0 0 0 0 1 2 3 5 6 10 23 44 66 83 90 93 95 96 97 95 90 82 73 61 48 40 37 36 33 29 26 21 16 10 6 3 1 1 0 0 0
0 0 0 0 0 0 0 0 0 0 0 2 6 10 15 19 19 20 28 43 62 79 90 96 98 99 97 92 84 73 57 38 21 14 12 11 10 9 8 6 4 3 1 1 0 0 0 0 0
0 0 0 0 0 0 0 0 0 0 2 8 18 29 38 41 38 32 31 39 54 71 86 94 98 98 93 86 75 61 42 21 8 3 2 2 2 2 1 1 0 0 0 0 0 0 0 0 0
0 0 0 0 0 0 0 0 0 0 4 17 36 52 62 64 58 47 41 45 54 67 82 92 97 95 89 81 70 55 37 19 7 2 0 0 0 0 0 0 0 0 0 0 0 0 0 0 0
0 0 0 0 0 0 0 0 0 2 10 29 53 70 75 74 68 62 63 67 71 79 87 93 94 89 80 71 62 48 32 16 6 1 0 0 0 0 0 0 0 0 0 0 0 0 0 0 0
0 0 0 0 0 0 0 0 3 10 24 43 65 77 76 71 68 72 80 84 86 89 92 90 83 72 60 51 44 34 21 9 2 0 0 0 0 0 0 0 0 0 0 0 0 0 0 0 0
0 0 0 0 0 0 0 1 9 22 34 47 62 68 62 56 57 65 74 78 78 77 76 70 59 46 35 30 25 18 10 3 0 0 0 0 0 0 0 0 0 0 0 0 0 0 0 0 0
0 0 0 0 0 0 0 3 13 22 26 34 43 43 37 33 35 41 47 51 52 50 46 40 31 22 16 13 9 6 3 1 0 0 0 0 0 0 0 0 0 0 0 0 0 0 0 0 0
0 0 0 0 0 0 0 4 10 12 14 22 26 21 15 12 13 15 19 22 22 22 20 18 13 8 5 3 2 1 1 0 0 0 0 0 0 0 0 0 0 0 0 0 0 0 0 0 0
0 0 0 0 0 0 0 2 5 10 16 20 18 12 6 3 2 3 4 4 5 5 5 5 4 2 0 0 0 0 0 0 0 0 0 0 0 0 0 0 0 0 0 0 0 0 0 0 0
0 0 0 0 0 0 0 1 7 17 24 20 13 7 2 0 0 0 0 0 0 0 0 0 0 0 0 0 0 0 0 0 0 0 0 0 0 0 0 0 0 0 0 0 0 0 0 0 0
0 0 0 0 0 0 1 3 11 23 28 18 7 2 1 0 0 0 0 0 0 0 0 0 0 0 0 0 0 0 0 0 0 0 0 0 0 0 0 0 0 0 0 0 0 0 0 0 0

GEFSSGP_con_probscp_030.txt.gz
Probability
0 0 0 0 0 0 0 0 0 0 0 0 0 0 0 0 0 0 0 1 3 2 1 0 0 0 0 0 0 0 0 0 0 0 0 0 0 0 0 0 0 0 0 0 0 0 0 0 0
0 0 0 0 0 0 0 0 0 0 0 0 0 0 0 0 0 0 0 1 2 1 0 0 0 0 0 0 0 0 0 0 0 0 0 0 0 0 0 0 0 0 0 0 0 0 0 0 0
0 0 0 0 0 0 0 0 0 0 0 0 0 0 0 0 0 0 0 1 1 1 0 0 0 0 0 0 0 0 0 0 0 0 0 0 0 0 0 0 0 0 0 0 0 0 0 0 0
0 0 0 0 0 0 0 0 0 0 0 0 0 0 0 0 0 1 0 0 0 0 0 0 0 0 0 0 0 0 0 0 0 0 0 0 0 0 0 0 0 0 0 0 0 0 0 0 0
0 0 0 0 0 0 0 0 0 0 0 0 0 0 0 0 0 0 0 0 1 2 1 0 0 0 0 0 0 0 0 0 0 0 0 0 0 0 0 0 0 0 0 0 0 0 0 0 0
0 0 0 0 0 0 0 0 0 0 0 0 0 1 0 0 0 0 0 0 3 6 5 1 0 0 0 0 0 0 0 0 0 0 0 0 0 0 0 0 0 0 0 0 0 0 0 0 0
0 0 0 0 0 0 0 0 0 0 0 0 0 1 1 1 0 0 0 0 4 8 6 2 0 0 0 0 0 0 0 0 0 0 0 0 0 0 0 0 0 0 0 0 0 0 0 0 0
0 0 0 0 0 0 0 0 0 0 0 0 0 2 4 2 0 0 0 0 3 6 6 2 0 0 0 0 0 0 0 0 0 0 0 0 0 0 0 0 0 0 0 0 0 0 0 0 0
0 0 0 0 0 0 0 0 0 1 0 0 0 2 5 2 0 0 0 0 1 5 6 2 0 0 0 0 0 0 0 0 0 0 0 0 0 0 0 3 4 2 0 0 0 0 0 0 0
0 0 0 0 0 0 0 0 0 0 0 0 1 3 4 2 1 0 0 0 1 4 6 4 1 0 0 1 1 0 0 0 0 0 0 0 0 2 5 10 11 5 1 0 0 0 0 0 0
0 0 0 0 0 0 0 0 0 0 0 0 2 6 7 6 2 1 0 0 0 2 4 7 8 6 5 7 6 2 1 2 2 1 2 1 2 7 14 18 14 7 2 0 0 0 0 0 0
0 0 0 0 0 0 0 0 0 0 0 1 3 8 12 10 5 1 1 1 2 2 4 12 23 22 19 24 21 10 8 10 12 14 15 12 13 18 26 27 19 9 4 3 2 2 1 0 0
0 0 0 0 0 0 0 0 0 0 0 1 2 7 11 10 5 2 3 5 11 13 11 21 42 48 45 49 44 28 24 29 34 40 39 33 33 39 45 46 37 26 22 20 15 12 10 6 3
0 0 0 0 0 0 0 0 0 0 0 0 1 3 6 5 4 4 6 11 27 37 34 42 63 74 75 74 67 51 46 51 59 66 65 59 61 67 72 70 62 56 56 53 44 37 30 19 12
0 0 0 0 0 0 0 0 0 0 0 0 0 1 1 2 3 6 12 25 47 62 66 70 81 90 93 91 84 71 64 70 79 84 85 83 86 90 91 87 80 78 79 77 71 65 53 39 31
0 0 0 0 0 0 0 0 0 0 0 0 0 0 0 0 2 7 22 47 69 82 89 91 91 96 99 98 95 85 79 85 92 92 93 96 97 97 95 91 86 83 81 78 76 72 62 49 44
0 0 0 0 0 0 0 0 0 0 0 0 0 0 0 0 1 8 31 64 85 93 98 98 97 98 100 100 99 94 92 93 90 86 88 93 96 95 93 87 80 74 67 60 56 54 47 37 31
0 0 0 0 0 0 0 0 0 0 0 0 0 1 2 2 3 10 34 68 91 98 100 100 100 100 100 100 99 98 96 90 80 74 75 81 86 87 84 76 66 56 45 36 29 25 21 15 11
0 0 0 0 0 0 0 0 0 0 0 0 1 4 6 7 10 17 36 67 90 99 100 100 100 100 100 100 99 97 92 82 72 64 60 61 64 66 65 56 44 33 25 17 10 7 5 4 2
0 0 0 0 0 0 0 0 0 0 0 1 3 7 13 17 22 30 43 64 85 96 99 100 100 100 100 100 98 93 84 74 64 54 44 39 37 38 37 32 21 15 11 6 2 1 1 1 0
0 0 0 0 0 0 0 0 0 0 0 1 5 13 25 33 41 48 55 67 82 93 99 100 100 100 100 99 95 87 77 66 53 38 26 20 17 14 14 12 8 5 3 1 0 0 0 0 0
0 0 0 0 0 0 0 0 0 0 0 3 13 29 46 57 63 68 73 78 86 94 98 100 100 100 99 98 93 85 76 64 44 24 13 8 5 2 2 3 2 1 1 0 0 0 0 0 0
0 0 0 0 0 0 0 0 0 0 3 13 33 56 72 79 82 86 89 91 94 96 98 99 99 98 95 93 90 84 74 57 33 14 7 3 1 0 0 0 0 0 0 0 0 0 0 0 0
0 0 0 0 0 0 0 0 3 11 23 41 64 81 88 89 90 92 95 96 97 97 96 96 94 90 86 81 77 71 59 39 19 8 4 2 0 0 0 0 0 0 0 0 0 0 0 0 0
0 0 0 0 0 0 0 2 13 37 61 77 88 93 91 87 85 84 85 87 89 89 89 86 82 76 70 63 57 49 37 21 9 4 3 1 0 0 0 0 0 0 0 0 0 0 0 0 0
0 0 0 0 0 0 1 9 32 65 87 96 97 93 84 74 66 61 59 61 64 66 66 63 58 53 46 39 34 29 20 11 6 3 1 0 0 0 0 0 0 0 0 0 0 0 0 0 0
0 0 0 0 0 0 2 18 50 79 94 96 93 83 67 50 38 32 29 30 33 35 34 30 27 25 22 19 17 14 9 5 3 2 1 0 0 0 0 0 0 0 0 0 0 0 0 0 0
0 0 0 0 0 0 3 20 51 80 91 88 78 61 42 26 17 11 10 10 11 12 10 8 7 7 7 7 7 6 4 3 2 1 0 0 0 0 0 0 0 0 0 0 0 0 0 0 0
0 0 0 0 0 0 3 18 50 77 84 73 54 33 19 11 6 4 3 3 3 2 1 1 2 2 2 3 3 2 2 2 1 0 0 0 0 0 0 0 0 0 0 0 0 0 0 0 0
0 0 0 0 0 0 3 21 56 79 77 61 38 17 8 5 2 1 0 0 0 0 0 0 1 0 0 1 1 1 1 1 0 0 0 0 0 0 0 0 0 0 0 0 0 0 0 0 0

GEFSSGP_con_probscp_036.txt.gz
Probability
0 0 0 0 0 0 0 0 0 0 0 0 0 0 0 0 0 0 0 2 4 4 1 2 6 5 1 0 0 0 0 0 0 0 0 0 0 1 2 2 1 0 0 0 0 0 0 0 0
0 0 0 0 0 0 0 0 0 0 0 0 0 0 0 0 0 0 0 2 4 3 1 1 3 3 1 0 0 0 0 0 0 0 0 0 0 0 1 1 0 0 0 0 0 0 0 0 0
0 0 0 0 0 0 0 0 0 0 0 0 0 0 0 0 0 0 0 2 2 1 0 0 1 1 0 0 0 0 0 0 0 0 0 0 0 0 0 0 0 0 0 0 0 0 0 0 0
0 0 0 0 0 0 0 0 0 0 0 1 2 2 0 0 0 0 0 1 1 0 0 0 0 0 0 0 0 0 0 0 0 0 0 0 0 0 0 0 0 0 0 0 0 0 0 0 0
0 0 0 0 0 0 0 0 0 0 0 2 6 5 1 1 1 1 0 0 0 0 0 0 0 0 0 0 0 0 0 0 0 0 0 0 0 0 0 0 0 0 0 0 0 0 0 0 0
0 0 0 0 0 0 0 0 0 0 0 3 7 7 2 1 1 1 0 0 0 0 0 0 0 0 0 0 0 0 0 0 0 0 0 0 0 0 0 0 0 0 0 0 0 0 0 0 0
0 0 0 0 0 0 0 0 0 0 0 2 5 4 2 1 1 1 1 1 0 0 0 0 0 0 0 0 0 0 0 0 0 0 0 0 0 0 0 0 0 0 0 0 0 0 0 0 0
0 0 0 0 0 0 0 0 0 0 0 0 1 1 1 1 4 7 6 3 1 0 0 0 0 0 0 0 0 0 0 0 0 0 0 0 0 0 0 0 0 0 0 0 0 0 0 0 1
0 0 0 0 0 0 0 0 0 0 1 1 1 0 0 2 8 16 16 7 2 0 0 0 0 0 0 0 0 0 0 0 0 0 0 0 0 0 0 0 0 0 0 0 0 0 0 0 1
0 0 0 0 0 0 0 0 0 1 2 2 2 1 1 3 10 22 23 12 3 0 0 0 0 0 0 0 0 0 0 0 0 0 0 0 0 0 0 0 0 0 0 0 0 0 0 0 1
0 0 0 0 0 0 0 0 0 2 3 3 2 1 1 3 9 19 23 15 4 0 0 0 0 0 0 0 0 0 0 0 0 0 0 0 0 0 0 0 0 0 0 0 0 0 0 0 0
0 0 0 0 0 0 0 0 0 1 2 2 2 2 1 3 6 14 21 18 9 3 1 0 0 0 0 0 0 0 0 0 0 0 0 0 0 0 0 0 0 0 0 0 0 0 1 0 0
0 0 0 0 0 0 0 0 0 0 0 1 3 3 2 2 4 10 17 20 15 7 3 1 0 0 0 0 0 0 0 0 0 0 0 0 0 0 0 0 0 0 0 0 0 1 1 0 0
0 0 0 0 0 0 0 0 0 0 0 1 5 6 5 3 3 6 14 23 23 15 8 4 2 1 0 1 0 0 0 0 0 0 0 0 0 0 0 0 0 0 0 0 0 1 0 0 0
0 0 0 0 0 0 0 0 0 0 0 1 6 11 10 6 4 6 13 23 29 26 19 13 9 6 6 5 3 2 3 2 1 1 1 0 0 1 1 1 0 0 0 0 1 1 0 0 0
0 0 0 0 0 0 0 0 0 1 1 1 7 12 13 10 8 9 14 22 31 34 34 31 27 26 25 22 16 12 11 11 9 7 6 4 3 4 3 2 2 1 0 1 1 1 0 0 0
0 0 0 0 0 0 0 0 0 1 1 2 6 11 13 13 13 13 16 21 28 39 47 52 55 57 55 51 41 32 27 26 25 23 18 15 12 9 7 4 3 3 2 2 2 1 0 0 0
0 0 0 0 0 0 0 0 0 0 1 2 5 10 14 17 18 18 17 18 27 40 53 66 76 79 78 76 69 57 48 43 41 38 33 28 23 17 12 8 6 5 4 2 1 0 0 0 0
0 0 0 0 0 0 0 0 0 0 1 3 6 11 16 20 25 27 25 22 29 40 53 67 80 85 87 87 84 74 61 50 44 41 36 30 24 18 13 10 7 5 3 1 0 0 0 0 0
0 0 0 0 0 0 0 0 0 1 5 10 17 23 27 29 33 37 35 31 33 41 51 63 75 85 89 89 83 72 58 47 39 31 25 19 15 12 11 9 6 2 1 0 0 0 0 0 0
0 0 0 0 0 0 0 0 1 5 14 26 39 47 48 47 45 44 42 38 39 45 55 62 72 83 88 85 77 66 53 43 33 22 12 8 6 6 6 5 2 0 0 0 0 0 0 0 0
0 0 0 0 0 0 0 0 1 8 23 41 58 68 68 65 61 56 52 49 48 51 57 64 73 82 84 80 73 65 53 41 28 15 7 4 3 2 2 1 0 0 0 0 0 0 0 0 0
0 0 0 0 0 0 0 0 3 10 26 48 68 77 77 77 75 70 66 63 59 56 59 66 74 78 77 73 66 59 48 33 19 9 3 1 1 0 0 0 0 0 0 0 0 0 0 0 0
0 0 0 0 0 0 0 1 7 16 29 52 73 79 79 79 77 74 71 69 66 63 64 70 73 72 69 63 54 45 34 21 11 4 1 0 0 0 0 0 0 0 0 0 0 0 0 0 0
0 0 0 0 0 0 0 5 15 23 35 53 66 69 68 67 64 63 62 61 59 59 62 66 67 62 56 49 38 28 18 10 5 2 0 0 0 0 0 0 0 0 0 0 0 0 0 0 0
0 0 0 0 0 0 2 10 21 25 31 42 46 44 43 43 43 43 43 41 39 39 44 48 47 42 36 30 21 12 7 4 2 0 0 0 0 0 0 0 0 0 0 0 0 0 0 0 0
0 0 0 0 0 0 3 13 21 24 24 25 22 20 19 20 21 21 20 19 18 18 21 23 22 18 16 12 7 3 1 1 0 0 0 0 0 0 0 0 0 0 0 0 0 0 0 0 0
0 0 0 0 0 0 2 10 21 26 23 15 8 6 6 6 7 6 5 5 5 5 6 7 6 5 4 3 1 0 0 0 0 0 0 0 0 0 0 0 0 0 0 0 0 0 0 0 0
0 0 0 0 0 0 0 6 17 26 22 10 2 1 0 1 1 0 0 0 0 0 1 1 1 1 1 1 0 0 0 0 0 0 0 0 0 0 0 0 0 0 0 0 0 0 0 0 0
0 0 0 0 0 0 1 4 14 23 18 6 1 0 0 0 0 0 0 0 0 0 0 0 0 0 0 0 0 0 0 0 0 0 0 0 0 0 0 0 0 0 0 0 0 0 0 0 0

GEFSSGP_con_probscp_042.txt.gz
Probability
0 0 0 0 0 0 0 0 0 0 0 0 0 0 0 0 0 0 0 1 3 5 3 1 1 7 14 18 19 18 13 9 9 9 9 6 2 0 0 0 0 0 0 0 0 0 0 0 0
0 0 0 0 0 0 0 0 0 0 0 0 0 0 0 0 0 0 0 2 5 6 3 1 1 5 11 14 15 13 9 6 6 6 6 4 2 0 0 0 0 0 0 0 0 0 0 0 0
0 0 0 0 0 0 0 0 0 0 0 0 0 0 0 0 0 0 1 4 6 5 2 0 0 2 6 8 8 7 4 2 2 2 2 1 1 0 0 0 0 0 0 0 0 0 0 0 0
0 0 0 0 0 0 0 0 0 0 0 0 0 0 0 0 0 0 2 5 6 4 1 0 0 0 2 3 3 2 1 0 0 0 0 0 0 0 0 0 0 0 0 0 0 0 0 0 0
0 0 0 0 0 0 0 0 0 0 0 0 0 0 0 0 0 0 2 3 3 2 1 0 0 0 0 1 1 0 1 1 0 0 0 0 0 0 0 0 0 0 0 0 0 0 0 0 0
0 0 0 0 0 0 0 0 0 0 0 0 0 0 0 0 0 0 1 1 1 1 0 0 0 0 0 0 0 1 2 2 1 0 0 0 0 0 0 0 0 0 0 0 0 0 0 0 0
0 0 0 0 0 0 0 0 0 0 0 0 0 0 0 0 0 0 0 0 0 0 0 0 0 0 1 1 1 2 3 2 1 0 0 0 0 0 0 0 0 0 0 0 0 0 0 0 0
0 0 0 0 0 0 0 0 0 0 0 0 0 0 0 1 1 1 1 0 0 0 0 0 0 0 0 1 1 2 2 2 1 0 0 0 0 0 0 0 0 0 0 0 0 0 0 0 0
0 0 0 0 0 0 0 0 0 0 0 0 0 0 2 4 3 2 1 0 0 0 0 0 0 0 0 0 1 1 1 1 0 0 0 0 0 0 0 0 0 0 0 0 0 0 0 0 0
0 0 0 0 0 0 0 0 0 0 0 0 0 3 9 10 5 1 0 0 0 0 0 0 0 0 0 0 0 0 0 0 0 0 0 0 0 0 0 0 0 0 0 0 0 0 0 0 0
0 0 0 0 0 0 0 0 0 0 0 0 2 11 20 17 7 1 0 0 0 0 0 0 0 0 0 0 0 0 0 0 0 0 0 0 0 0 0 0 0 0 0 0 0 0 0 0 0
0 0 0 0 0 0 0 0 0 0 0 0 6 22 33 24 10 3 1 0 0 0 0 0 0 0 0 0 0 0 0 0 0 0 0 0 0 0 0 0 0 0 0 0 0 0 0 0 0
0 0 0 0 0 0 0 0 0 0 0 1 8 27 38 29 14 5 1 0 0 0 0 0 0 0 0 0 0 0 0 0 0 0 0 0 0 0 0 0 0 0 0 0 0 0 0 0 0
0 0 0 0 0 0 0 0 0 0 0 1 8 22 32 28 18 9 2 0 0 0 1 1 2 1 0 0 0 0 0 0 0 0 0 0 0 0 0 0 0 0 0 0 0 0 0 0 0
0 0 0 0 0 0 0 0 0 0 0 1 5 13 19 20 17 12 6 3 2 2 2 3 3 2 1 1 0 0 0 0 0 0 0 0 0 0 0 0 0 0 0 0 0 0 0 0 0
0 0 0 0 0 0 0 0 0 0 0 0 1 5 9 12 12 12 10 8 8 9 8 7 7 7 5 3 2 1 0 0 0 0 0 0 0 0 0 0 0 0 0 0 0 0 0 0 0
0 0 0 0 0 0 0 0 0 0 0 0 1 2 4 6 9 11 14 16 19 21 21 20 20 17 12 7 5 3 2 1 1 0 0 0 0 0 0 0 0 1 1 1 0 0 0 0 0
0 0 0 0 0 0 0 0 0 0 0 1 2 4 4 5 7 10 16 24 30 32 33 34 34 30 24 16 13 10 7 6 4 2 2 2 3 3 3 3 3 3 3 1 0 0 0 0 0
0 0 0 0 0 0 0 1 2 2 2 4 5 7 6 6 8 12 20 30 37 36 35 36 37 39 38 33 28 22 16 12 9 6 5 6 7 8 9 7 6 6 4 1 0 0 0 0 0
0 0 0 0 0 0 0 1 4 9 12 15 16 14 12 10 13 20 28 35 38 36 33 32 36 44 50 49 43 35 25 17 14 12 10 9 10 11 10 8 6 5 3 1 0 0 0 0 0
0 0 0 0 0 0 0 1 6 17 29 35 33 29 24 21 22 28 35 38 36 33 32 34 39 48 56 57 55 48 38 28 23 20 14 8 6 8 7 4 2 1 1 0 0 0 0 0 0
0 0 0 0 0 0 0 2 6 18 35 44 43 40 35 32 30 31 34 36 33 28 28 33 41 49 55 60 60 57 51 43 33 24 16 6 2 2 2 1 0 0 0 0 0 0 0 0 0
0 0 0 0 0 0 0 2 6 14 27 35 36 35 33 31 31 30 30 31 28 24 24 29 37 45 52 58 59 56 51 43 33 22 13 5 1 0 0 0 0 0 0 0 0 0 0 0 0
0 0 0 0 0 0 0 2 8 14 19 22 22 21 20 21 25 25 25 26 25 21 21 26 31 38 46 50 50 46 39 31 24 16 9 4 1 0 0 0 0 0 0 0 0 0 0 0 0
0 0 0 0 0 0 1 6 14 17 15 12 11 10 9 12 16 18 17 18 20 19 18 20 24 30 36 36 32 29 24 19 14 10 6 3 1 0 0 0 0 0 0 0 0 0 0 0 0
0 0 0 0 0 0 4 11 16 14 9 6 5 4 5 7 10 10 9 9 12 12 12 14 17 21 22 19 15 12 10 8 7 5 3 2 1 0 0 0 0 0 0 0 0 0 0 0 0
0 0 0 0 0 1 6 14 15 10 5 3 2 2 3 3 4 4 3 3 4 4 6 8 10 10 9 7 5 4 4 3 3 2 1 1 0 0 0 0 0 0 0 0 0 0 0 0 0
0 0 0 0 0 1 4 10 13 9 3 1 1 1 1 1 1 0 1 1 1 1 2 3 4 3 3 2 2 2 2 2 1 1 0 0 0 0 0 0 0 0 0 0 0 0 0 0 0
0 0 0 0 0 0 1 4 7 5 2 0 0 0 0 0 0 0 0 0 0 0 0 0 1 1 1 1 1 1 1 1 0 0 0 0 0 0 0 0 0 0 0 0 0 0 0 0 0
0 0 0 0 0 0 0 1 2 3 1 0 0 0 0 0 0 0 0 0 0 0 0 0 0 0 0 0 0 0 0 0 0 0 0 0 0 0 0 0 0 0 0 0 0 0 0 0 0

GEFSSGP_con_probscp_048.txt.gz
Probability
0 0 0 0 0 0 0 0 0 0 0 0 0 0 0 0 0 0 0 2 6 6 4 2 1 0 1 7 15 20 20 22 23 19 14 8 2 0 0 0 0 0 0 0 0 0 0 0 0
0 0 0 0 0 0 0 0 0 0 0 0 0 0 0 0 0 0 1 5 8 7 4 2 1 0 2 10 23 32 35 36 33 28 21 13 6 2 0 0 0 0 0 0 0 0 0 0 0
0 0 0 0 0 0 0 0 0 0 0 0 0 0 0 0 0 0 3 7 9 6 3 2 1 1 4 14 29 45 53 52 45 36 27 18 10 3 0 0 0 0 0 0 0 0 0 0 0
0 0 0 0 0 0 0 0 0 0 0 0 0 0 0 0 0 1 4 7 6 3 1 1 0 1 5 15 31 47 56 56 48 37 27 19 10 3 0 0 0 0 0 0 0 0 0 0 0
0 0 0 0 0 0 0 0 0 0 0 0 0 0 0 0 1 3 5 5 4 2 1 0 0 1 5 15 29 43 52 53 46 34 23 15 7 2 0 0 0 0 0 0 0 0 0 0 0
0 0 0 0 0 0 0 0 0 0 0 0 0 0 0 0 2 5 6 4 3 2 1 0 1 1 4 11 22 35 43 44 38 28 18 10 4 0 0 0 0 0 0 0 0 0 0 0 0
0 0 0 0 0 0 0 0 0 0 0 0 0 0 1 4 8 11 9 4 2 1 0 0 0 0 2 5 11 20 26 28 26 20 12 5 1 0 0 0 0 0 0 0 0 0 0 0 0
0 0 0 0 0 0 0 0 0 0 0 0 0 0 3 12 21 22 16 7 2 0 0 0 0 0 0 1 4 7 11 12 12 10 6 2 0 0 0 0 0 0 0 0 0 0 0 0 0
0 0 0 0 0 0 0 0 0 0 0 0 0 0 7 23 37 39 30 15 5 1 0 0 0 0 0 0 0 1 3 3 3 2 1 0 0 0 0 0 0 0 0 0 0 0 0 0 0
0 0 0 0 0 0 0 0 0 0 0 0 0 0 9 27 43 48 40 25 11 2 0 0 0 0 0 0 0 0 0 0 0 0 0 0 0 0 0 0 0 0 0 0 0 0 0 0 0
0 0 0 0 0 0 0 0 0 0 0 0 0 1 9 23 37 43 39 25 10 2 0 0 0 0 0 0 0 0 0 0 0 0 0 0 0 0 0 0 0 0 0 0 0 0 0 0 0
0 0 0 0 0 0 0 0 0 0 0 0 0 2 8 18 26 32 28 17 7 2 0 0 0 0 0 0 0 0 0 0 1 1 1 0 0 0 0 0 0 0 0 0 0 0 0 0 0
0 0 0 0 0 0 0 0 0 0 0 0 0 1 6 12 19 23 20 12 5 1 0 0 0 0 0 0 0 0 0 0 1 1 1 0 0 1 1 1 0 0 0 0 0 0 0 0 0
0 0 0 0 0 0 0 0 0 0 0 0 0 1 3 8 15 21 19 13 7 3 0 0 0 0 0 0 0 0 0 0 0 1 1 1 1 3 3 2 2 1 0 0 1 1 2 1 1
0 0 0 0 0 0 0 0 0 0 0 0 0 0 1 5 13 18 18 14 9 5 2 0 0 1 1 1 0 0 0 0 1 2 3 4 6 8 9 9 8 7 5 5 6 6 4 4 4
0 0 0 0 0 0 0 0 0 0 0 0 0 1 3 6 10 13 15 14 10 7 5 2 2 3 4 4 2 2 3 4 4 6 8 11 14 18 21 22 25 26 22 20 18 15 10 8 8
0 0 0 0 0 0 0 0 1 1 0 0 2 6 9 11 12 13 15 13 10 9 9 7 6 8 9 9 8 8 10 13 13 14 17 22 27 31 35 42 49 51 51 48 41 33 25 18 15
0 0 0 0 0 0 0 1 3 4 4 4 8 13 17 21 20 20 20 17 13 14 15 14 12 14 17 18 17 18 21 25 27 28 33 39 43 46 53 63 69 70 73 74 66 52 38 27 21
0 0 0 0 0 0 1 3 7 11 14 15 17 21 25 29 30 27 27 26 24 24 26 26 25 27 30 32 33 34 35 38 40 44 50 54 54 58 69 76 79 78 77 76 68 55 38 25 19
0 0 0 0 0 0 2 5 11 18 24 28 30 31 34 39 42 40 37 39 41 42 42 42 44 48 53 54 55 56 56 54 56 61 63 64 63 66 71 75 75 71 67 62 55 45 32 19 11
0 0 0 0 0 0 1 4 11 18 26 34 40 43 45 51 54 52 50 52 55 56 55 56 60 65 72 74 74 74 73 71 72 73 70 65 64 64 63 62 61 59 55 49 43 35 25 15 7
0 0 0 0 0 0 0 2 6 14 23 34 43 47 51 56 57 56 59 62 63 62 61 62 64 68 73 77 78 79 79 79 77 74 66 55 50 47 45 43 44 44 40 35 28 20 14 8 4
0 0 0 0 0 0 0 1 5 13 22 31 39 43 46 50 51 55 62 65 64 63 62 62 63 65 66 68 72 76 78 77 73 66 55 41 30 25 24 22 23 24 21 17 11 6 4 2 1
0 0 0 0 0 0 0 3 9 16 22 27 31 33 35 37 40 46 54 58 59 60 60 59 61 63 62 62 67 73 75 74 68 57 43 29 18 14 12 10 9 9 7 4 2 0 0 0 0
0 0 0 0 0 0 0 6 14 18 17 19 20 19 20 22 24 30 36 40 43 48 52 55 56 57 58 58 60 63 67 66 58 45 30 20 13 9 7 5 4 3 2 0 0 0 0 0 0
0 0 0 0 0 0 2 9 15 11 8 9 9 8 9 10 12 15 19 21 25 32 38 42 43 43 45 46 44 44 45 45 39 28 19 14 9 6 4 2 1 1 0 0 0 0 0 0 0
0 0 0 0 0 0 3 11 11 5 2 3 4 5 6 6 6 6 7 9 12 15 19 22 24 25 26 26 23 20 19 18 15 11 8 7 5 3 2 1 0 0 0 0 0 0 0 0 0
0 0 0 0 0 0 2 6 6 3 2 3 3 4 4 4 2 2 2 3 3 4 6 7 8 9 9 9 7 5 3 3 2 2 2 2 1 1 1 0 0 0 0 0 0 0 0 0 0
0 0 0 0 0 0 0 1 3 4 5 5 4 2 2 1 0 0 0 0 0 0 1 1 1 1 1 1 1 0 0 0 0 0 0 0 0 0 0 0 0 0 0 0 0 0 0 0 0
0 0 0 0 0 0 0 1 2 7 9 7 4 1 0 0 0 0 0 0 0 0 0 0 0 0 0 0 0 0 0 0 0 0 0 0 0 0 0 0 0 0 0 0 0 0 0 0 0

GEFSSGP_con_probscp_054.txt.gz
Probability
0 0 0 0 0 0 0 0 0 0 0 0 0 0 1 1 2 3 7 32 70 82 75 71 58 34 17 8 2 0 0 0 0 0 0 0 0 0 0 0 0 0 0 0 0 0 0 0 0
0 0 0 0 0 0 0 0 0 0 0 0 0 0 1 2 2 5 17 47 73 77 72 73 65 44 23 11 4 1 1 0 0 0 0 0 0 0 0 0 0 0 0 0 0 0 0 0 0
0 0 0 0 0 0 0 0 0 0 0 0 0 0 1 1 3 12 32 57 71 69 70 79 76 58 34 17 7 3 2 1 0 0 0 0 0 0 0 0 0 0 0 0 0 0 0 0 0
0 0 0 0 0 0 0 0 0 0 0 0 0 2 4 3 8 21 36 53 62 63 69 80 83 71 47 24 11 6 4 1 0 0 0 0 0 0 0 0 0 0 0 0 0 0 0 0 0
0 0 0 0 0 0 0 0 0 0 0 0 2 7 10 8 11 18 25 37 52 61 65 74 82 77 56 31 15 9 6 3 2 1 1 1 0 0 0 0 0 0 0 0 0 0 0 0 0
0 0 0 0 0 0 0 0 0 0 0 0 4 13 18 13 9 8 11 23 43 57 59 63 71 70 57 35 17 11 7 6 5 4 3 2 1 0 0 0 0 0 0 0 0 0 0 0 0
0 0 0 0 0 0 0 0 0 0 0 0 4 17 27 21 7 3 6 17 38 50 47 44 47 50 44 28 16 11 8 6 6 4 3 2 1 0 0 0 0 0 0 0 0 0 0 0 0
0 0 0 0 0 0 0 0 0 0 0 0 3 18 32 24 7 2 6 17 34 42 32 21 21 24 21 14 10 9 6 4 3 2 1 1 0 0 0 0 0 0 0 0 0 0 0 0 0
0 0 0 0 0 0 0 0 0 0 0 0 3 17 27 19 6 3 8 20 37 40 24 9 5 6 6 5 4 4 3 1 1 1 0 0 0 0 0 0 0 0 0 0 0 0 0 0 0
0 0 0 0 0 0 0 0 0 0 0 1 6 17 22 14 6 5 10 25 44 43 22 5 0 0 1 2 2 1 1 0 0 0 0 0 0 0 0 0 0 0 0 0 0 0 0 0 0
0 0 0 0 0 0 0 0 0 0 0 1 8 16 17 11 6 8 14 28 44 42 20 4 0 0 2 3 3 1 1 1 1 1 0 0 0 0 0 0 0 0 0 0 0 0 0 0 0
0 0 0 0 0 0 0 0 0 0 0 1 7 12 11 7 5 8 16 27 39 36 18 6 5 6 11 13 7 2 2 2 2 2 1 0 0 0 0 0 0 0 0 1 1 1 0 0 0
0 0 0 0 0 0 0 0 0 0 0 1 4 8 7 4 4 8 17 28 39 37 22 15 19 25 32 32 19 7 4 3 3 4 2 0 0 1 1 1 1 1 4 6 5 3 4 4 3
0 0 0 0 0 0 0 0 0 0 0 1 3 5 6 4 5 13 24 33 42 45 37 34 43 51 55 49 31 15 7 4 5 7 7 4 2 4 7 9 9 10 13 20 18 14 15 15 11
0 0 0 0 0 0 0 0 0 0 0 0 1 3 5 7 11 22 36 46 53 60 61 58 61 67 69 58 41 23 11 7 9 14 18 15 11 15 23 26 27 27 31 41 43 37 36 33 26
0 0 0 0 0 0 0 0 0 0 0 1 2 3 6 12 20 32 50 64 70 76 80 75 68 72 74 65 48 31 19 18 24 32 37 34 29 35 46 48 46 48 53 63 67 63 59 54 49
0 0 0 0 0 0 0 0 1 1 2 3 4 6 10 19 31 47 66 80 84 86 88 83 76 76 76 70 57 41 36 41 50 58 61 58 54 57 66 67 64 66 72 75 76 75 73 69 66
0 0 0 0 0 0 1 3 5 7 9 9 10 13 19 30 46 64 81 90 91 90 90 86 83 82 79 75 67 58 56 63 72 79 82 79 73 74 77 77 76 78 79 77 75 73 71 68 65
0 0 0 0 1 2 3 7 12 17 21 23 24 26 32 43 59 76 88 92 91 90 88 83 81 83 83 79 76 75 74 78 83 88 91 88 83 79 78 77 79 79 76 74 71 68 64 59 56
0 0 0 0 1 4 6 9 16 24 30 35 39 40 45 55 68 81 89 90 90 89 85 78 76 80 81 78 78 81 85 86 87 88 90 88 83 79 75 73 74 75 71 66 63 61 57 49 43
0 0 0 0 1 3 6 8 15 26 34 40 45 48 52 59 68 76 83 85 86 86 83 78 75 76 76 74 74 80 86 88 86 87 86 83 79 76 72 68 66 66 62 56 50 50 49 41 31
0 0 0 0 0 1 2 5 12 24 34 40 46 49 50 53 57 62 68 74 77 79 81 80 78 76 74 73 73 78 83 84 84 84 81 75 70 67 63 57 53 50 47 42 37 38 39 31 22
0 0 0 0 0 0 1 3 10 23 33 39 43 43 41 40 41 44 50 56 60 65 71 73 73 73 72 71 70 72 75 75 75 75 71 62 54 50 46 40 34 31 30 29 28 27 24 18 13
0 0 0 0 0 0 1 5 15 27 34 37 36 33 32 29 28 31 35 38 42 46 51 55 57 59 60 59 59 59 61 61 62 62 56 43 34 30 28 23 18 15 16 17 17 15 11 7 6
0 0 0 0 0 0 2 13 29 39 39 34 30 26 24 22 20 20 22 24 26 29 33 37 39 41 43 42 41 40 42 43 45 44 37 25 18 16 14 11 8 6 6 7 7 7 5 3 2
0 0 0 0 0 0 7 26 44 47 39 31 25 21 17 15 13 12 11 12 13 16 20 23 25 26 25 24 23 23 24 24 24 23 17 11 8 7 5 4 3 3 2 2 2 3 2 1 1
0 0 0 0 0 0 9 30 45 44 35 27 21 16 12 10 8 7 6 6 6 8 10 11 12 11 10 9 10 10 10 9 7 6 4 3 2 1 1 1 2 1 1 1 1 1 1 0 0
0 0 0 0 0 0 5 17 30 34 29 23 17 12 8 6 5 4 4 3 4 4 4 3 2 2 1 1 2 3 2 1 1 0 0 0 0 0 0 0 0 0 0 0 0 0 0 0 0
0 0 0 0 0 0 0 5 14 22 21 17 12 8 5 3 2 1 1 1 1 1 1 0 0 0 0 0 0 0 0 0 0 0 0 0 0 0 0 0 0 0 0 0 0 0 0 0 0
0 0 0 0 0 0 1 3 10 15 15 11 8 5 2 1 0 0 0 0 0 0 0 0 0 0 0 0 0 0 0 0 0 0 0 0 0 0 0 0 0 0 0 0 0 0 0 0 0

GEFSSGP_con_probscp_060.txt.gz
Probability
0 0 0 0 0 0 0 0 0 0 0 0 0 0 1 1 1 0 1 6 14 17 12 6 6 9 9 7 3 0 0 0 0 0 0 0 0 0 0 0 0 0 0 0 0 0 0 0 0
0 0 0 0 0 0 0 0 0 0 0 0 0 0 1 2 1 1 4 13 24 27 18 10 9 10 11 9 4 1 0 0 0 0 0 0 0 0 0 0 0 0 0 0 0 0 0 0 0
0 0 0 0 0 0 0 0 0 0 0 0 0 0 0 1 2 4 12 27 38 37 25 16 13 12 12 11 6 2 0 0 0 0 0 0 0 0 0 0 0 0 0 0 0 0 0 0 0
0 0 0 0 0 0 0 0 0 0 0 0 1 2 3 4 8 15 27 39 45 40 28 20 18 15 12 11 8 3 1 0 0 0 0 0 0 0 0 0 0 0 0 0 0 0 0 0 0
0 0 0 0 0 0 0 0 0 0 0 1 4 8 9 12 21 33 40 44 44 40 30 22 21 19 16 13 9 5 2 1 0 0 0 0 0 0 0 0 0 0 0 0 0 0 0 0 0
0 0 0 0 0 0 0 0 0 0 0 2 9 16 17 20 31 40 43 41 42 42 33 22 19 20 19 14 11 8 3 1 0 0 0 0 0 0 0 0 0 0 0 0 0 0 0 0 0
0 0 0 0 0 0 0 0 0 0 0 3 12 20 21 21 29 38 40 38 41 44 36 24 18 18 16 12 11 8 4 1 0 0 0 0 0 0 0 0 0 0 0 0 0 0 0 0 0
0 0 0 0 0 0 0 0 0 0 0 3 10 17 18 18 27 39 41 37 36 38 36 27 21 18 14 11 9 8 5 1 0 0 1 1 0 0 0 0 0 0 0 0 0 0 0 0 0
0 0 0 0 0 0 0 0 0 0 0 4 9 12 13 17 29 43 46 41 34 30 29 28 26 24 19 13 10 9 8 3 1 1 2 2 1 0 0 0 0 0 0 0 0 0 0 0 0
0 0 0 0 0 0 0 0 0 0 0 4 10 14 16 21 32 45 51 48 36 26 23 23 25 25 22 19 15 14 11 6 3 3 3 2 1 0 0 0 0 0 0 0 0 0 0 0 0
0 0 0 0 0 0 0 0 0 0 0 4 12 19 21 23 30 42 52 51 40 26 20 18 19 19 19 21 19 15 11 6 4 3 2 1 0 0 0 0 0 0 0 0 0 0 0 0 0
0 0 0 0 0 0 0 0 0 0 0 4 14 21 20 18 23 35 48 50 40 26 17 15 13 12 14 16 15 10 6 4 3 2 1 0 0 0 0 0 0 0 0 0 0 0 0 0 0
0 0 0 0 0 0 0 0 0 0 1 5 14 18 15 12 15 26 42 50 43 30 22 17 12 9 10 10 7 3 2 1 1 1 0 0 0 0 0 0 0 0 0 0 0 0 0 0 0
0 0 0 0 0 0 0 0 0 0 1 5 11 13 11 10 13 23 40 52 51 42 31 21 11 7 6 5 3 1 0 0 0 0 0 0 0 0 0 0 0 0 0 0 0 0 0 0 0
0 0 0 0 0 0 0 0 0 1 3 6 9 11 12 12 16 26 43 57 58 51 41 27 14 7 4 2 1 1 0 0 0 0 0 0 0 0 0 0 0 0 0 0 0 0 0 0 0
0 0 0 0 0 0 0 0 1 3 5 9 13 15 16 17 21 32 48 59 60 57 53 42 29 18 11 7 4 3 2 1 1 1 0 0 0 0 0 0 0 1 1 0 0 0 0 0 0
0 0 0 0 0 0 1 3 5 7 9 14 20 23 22 22 27 39 53 61 62 63 65 62 53 42 33 24 16 11 8 6 6 4 3 3 3 2 2 2 2 3 3 2 1 1 0 0 0
0 0 0 0 1 1 4 8 11 13 16 20 25 28 29 30 36 47 60 64 63 67 73 75 71 65 57 48 39 30 22 17 15 12 10 9 10 12 11 9 7 7 8 5 3 1 0 0 0
0 0 0 0 1 2 7 14 20 22 24 26 29 30 33 39 46 54 61 64 64 68 74 76 77 74 70 64 58 51 40 31 27 22 17 14 18 24 25 20 15 14 12 8 3 1 1 1 1
0 0 0 0 1 2 7 18 27 30 29 31 32 32 33 39 46 50 54 56 57 59 63 66 68 70 69 67 65 60 50 39 32 25 18 17 22 28 30 27 23 20 15 10 6 4 4 3 3
0 0 0 0 0 0 5 14 23 26 28 30 31 31 30 31 34 38 41 43 43 44 47 49 52 57 60 61 62 59 49 38 30 24 19 18 22 25 25 24 24 21 16 12 10 9 7 6 6
0 0 0 0 0 0 1 4 10 15 20 22 23 23 22 20 23 28 30 30 30 31 33 35 39 44 47 50 54 53 44 33 26 24 20 17 18 19 17 16 17 16 14 12 11 9 8 8 8
0 0 0 0 0 0 0 0 2 6 12 16 17 17 16 14 15 20 22 21 21 21 22 25 30 33 34 37 40 41 36 28 24 22 19 15 12 12 11 10 10 11 10 9 8 7 6 6 6
0 0 0 0 0 0 0 0 1 4 8 13 17 18 15 12 12 14 16 15 14 14 15 18 21 23 24 24 25 25 24 21 18 17 14 11 8 6 6 6 6 6 5 4 4 3 3 3 3
0 0 0 0 0 0 0 0 1 4 8 13 17 17 14 11 9 10 10 10 9 10 12 13 14 15 16 14 13 13 12 11 11 11 9 6 4 3 2 2 2 2 1 1 1 1 1 1 1
0 0 0 0 0 0 0 0 1 6 11 15 16 14 11 8 7 7 7 7 7 7 8 9 10 10 9 8 7 6 5 5 5 5 3 2 1 1 0 0 0 0 0 0 0 0 0 0 0
0 0 0 0 0 0 0 0 1 6 13 15 13 10 8 7 6 6 6 6 5 5 4 4 5 5 4 4 3 3 2 2 2 1 1 0 0 0 0 0 0 0 0 0 0 0 0 0 0
0 0 0 0 0 0 0 0 1 4 9 11 8 6 5 5 6 5 4 3 3 2 1 1 1 1 1 1 1 1 1 0 0 0 0 0 0 0 0 0 0 0 0 0 0 0 0 0 0
0 0 0 0 0 0 0 0 0 1 3 4 4 3 3 3 3 3 1 1 1 0 0 0 0 0 0 0 0 0 0 0 0 0 0 0 0 0 0 0 0 0 0 0 0 0 0 0 0
0 0 0 0 0 0 0 0 0 0 0 1 1 1 1 1 1 1 0 0 0 0 0 0 0 0 0 0 0 0 0 0 0 0 0 0 0 0 0 0 0 0 0 0 0 0 0 0 0

GEFSSGP_con_probscp_066.txt.gz
Probability
0 0 0 0 0 0 0 0 0 0 0 0 0 0 0 1 1 1 0 1 3 6 6 3 1 0 0 1 5 9 14 17 18 15 10 6 3 1 0 1 1 0 0 0 0 0 0 0 0
0 0 0 0 0 0 0 0 0 0 0 0 0 0 0 1 2 2 1 2 7 12 11 6 3 1 1 1 5 11 16 17 16 12 8 6 4 2 1 2 2 1 0 0 0 0 0 0 0
0 0 0 0 0 0 0 0 0 0 0 0 0 1 2 3 4 3 3 7 15 22 21 13 8 6 4 4 6 12 17 16 12 8 6 6 5 4 3 3 3 1 0 0 0 0 0 0 0
0 0 0 0 0 0 0 0 0 0 0 0 2 5 7 7 7 6 8 17 27 31 28 21 16 13 11 9 8 10 16 16 12 8 8 7 6 4 3 3 3 2 1 0 0 0 0 0 0
0 0 0 0 0 0 0 0 0 0 0 1 5 9 12 12 11 10 16 27 36 38 33 27 23 21 18 15 12 12 16 18 17 14 11 8 5 3 3 3 2 2 1 0 0 0 0 0 0
0 0 0 0 0 0 0 0 0 0 0 1 6 11 13 15 18 22 28 36 41 43 41 35 29 24 22 20 18 18 20 20 20 19 14 9 5 3 3 2 1 1 0 0 0 0 0 0 0
0 0 0 0 0 0 0 0 0 0 0 1 6 11 13 18 29 39 44 47 48 49 50 46 37 29 25 25 24 24 23 21 21 19 15 10 6 3 3 2 1 0 0 0 0 0 0 0 0
0 0 0 0 0 0 0 0 0 0 0 2 6 9 15 27 42 53 58 57 53 51 52 51 45 37 33 30 28 26 24 22 20 18 14 10 6 4 3 2 1 0 0 0 0 0 0 0 0
0 0 0 0 0 0 0 0 0 0 1 4 8 12 23 41 53 59 61 58 52 47 46 47 44 43 42 37 31 29 26 22 19 16 13 9 5 3 3 2 1 0 0 0 0 0 0 0 0
0 0 0 0 0 0 0 0 0 0 1 4 9 17 32 49 55 54 54 51 47 44 43 41 39 42 46 44 39 35 31 24 17 14 12 7 4 3 3 3 1 0 0 0 0 0 0 0 0
0 0 0 0 0 0 0 0 0 0 0 2 8 21 38 51 53 48 46 44 42 42 42 39 37 40 44 48 48 44 39 30 19 13 9 5 3 3 3 3 2 1 0 0 0 0 0 0 0
0 0 0 0 0 0 0 0 0 0 0 1 7 23 42 52 50 44 42 40 37 38 40 40 39 40 43 48 51 48 42 33 21 13 7 4 3 3 3 3 2 1 0 1 1 1 0 0 0
0 0 0 0 0 0 0 0 0 0 0 2 10 25 39 46 43 38 37 35 30 31 37 40 42 43 45 47 47 45 39 30 21 12 7 4 3 3 3 2 1 0 0 1 1 1 0 0 0
0 0 0 0 0 0 0 1 1 0 1 5 14 23 29 32 32 31 32 29 24 25 31 37 41 44 46 45 43 39 34 27 19 12 7 4 3 3 2 1 0 0 0 0 0 0 0 0 0
0 0 0 0 0 0 0 1 2 2 3 7 14 19 22 24 25 28 30 28 24 25 31 37 42 43 44 43 40 34 28 22 15 9 5 4 3 3 1 0 0 0 0 0 0 0 0 0 0
0 0 0 0 0 0 0 1 2 3 5 8 11 16 19 21 23 26 28 29 28 30 35 42 45 44 40 36 31 27 20 13 8 5 4 3 3 3 1 0 0 0 0 0 0 0 0 0 0
0 0 0 0 0 0 0 0 2 5 7 8 11 16 20 21 22 23 25 27 27 30 37 43 45 42 35 27 21 16 12 7 4 3 3 3 3 3 2 1 0 0 0 0 0 0 0 0 0
0 0 0 0 0 0 0 1 3 6 8 11 15 21 23 24 22 20 21 23 25 29 35 40 41 38 31 23 15 9 6 5 4 3 3 3 3 3 2 1 1 1 1 1 0 0 0 0 0
0 0 0 0 0 0 0 1 3 6 9 14 22 26 27 26 24 21 20 21 25 30 34 37 37 35 31 25 17 9 7 6 5 3 3 2 2 3 2 2 2 2 2 1 1 1 1 1 1
0 0 0 0 0 0 1 2 3 5 8 12 19 24 25 24 23 21 20 20 24 28 31 33 34 34 33 29 22 15 9 5 4 3 2 1 2 3 3 2 2 2 2 2 1 2 2 2 2
0 0 0 0 0 0 1 1 2 3 5 6 9 12 15 17 17 17 18 18 21 23 25 25 26 27 28 28 27 21 12 5 2 1 1 1 1 3 3 2 2 3 3 3 3 3 3 3 3
0 0 0 0 0 0 0 0 1 1 2 2 2 3 6 9 11 12 15 17 19 19 18 17 17 18 19 22 26 24 16 7 2 0 0 0 0 1 1 1 1 2 3 3 3 3 4 5 5
0 0 0 0 0 0 0 0 0 0 1 1 1 2 3 5 7 8 11 15 17 15 15 15 16 16 16 17 19 19 14 8 3 1 1 0 0 0 0 0 0 1 1 1 2 2 3 4 5
0 0 0 0 0 0 0 0 0 0 0 1 3 4 5 5 5 5 7 11 14 14 15 17 18 18 16 13 12 11 8 6 4 3 2 1 0 0 0 0 0 0 0 0 1 1 1 1 2
0 0 0 0 0 0 0 0 0 0 1 3 5 6 6 6 4 4 5 8 11 12 14 16 17 16 13 9 8 6 5 5 4 3 2 1 0 0 0 0 0 0 0 0 0 0 0 0 0
0 0 0 0 0 0 0 0 0 1 2 4 5 4 5 5 5 4 4 6 7 8 9 12 13 11 8 5 4 3 3 3 3 2 1 0 0 0 0 0 0 0 0 0 0 0 0 0 0
0 0 0 0 0 0 0 0 0 1 2 3 2 2 2 4 4 3 3 4 4 4 5 6 7 5 3 2 1 1 1 1 1 1 0 0 0 0 0 0 0 0 0 0 0 0 0 0 0
0 0 0 0 0 0 0 0 0 1 1 1 0 0 2 3 3 3 3 3 3 3 3 2 2 1 1 0 0 0 0 0 0 0 0 0 0 0 0 0 0 0 0 0 0 0 0 0 0
0 0 0 0 0 0 0 0 0 0 0 0 0 0 1 2 2 2 2 2 2 2 1 1 0 0 0 0 0 0 0 0 0 0 0 0 0 0 0 0 0 0 0 0 0 0 0 0 0
0 0 0 0 0 0 0 0 0 0 0 0 0 0 0 1 1 1 1 1 1 1 0 0 0 0 0 0 0 0 0 0 0 0 0 0 0 0 0 0 0 0 0 0 0 0 0 0 0

GEFSSGP_con_probscp_072.txt.gz
Probability
0 0 0 0 0 0 0 0 0 0 0 0 0 0 0 0 0 2 7 10 18 39 55 57 56 49 38 32 32 35 35 29 19 13 10 7 4 2 1 0 0 0 0 0 0 0 0 0 0
0 0 0 0 0 0 0 0 0 0 0 0 0 0 0 0 1 3 6 9 19 39 55 61 63 59 48 41 41 46 47 40 28 19 14 9 5 3 3 1 1 1 0 0 0 0 0 0 1
0 0 0 0 0 0 0 0 0 0 0 0 0 0 0 1 1 5 9 12 22 40 56 67 74 73 64 54 53 58 59 52 39 28 19 11 7 6 5 4 3 2 1 0 0 0 0 1 2
0 0 0 0 0 0 0 0 0 0 0 0 0 0 1 3 4 9 15 17 25 41 57 72 81 82 76 68 63 62 62 57 47 35 23 13 9 8 7 5 4 3 2 1 1 0 0 1 2
0 0 0 0 0 0 0 0 0 0 0 0 0 0 3 6 9 13 17 20 30 46 61 75 83 84 79 75 69 65 62 60 53 41 28 18 12 11 8 6 5 4 3 2 1 1 0 0 1
0 0 0 0 0 0 0 0 0 0 0 0 1 1 4 9 14 17 19 23 36 53 67 77 81 78 75 73 72 69 67 64 57 45 32 22 16 14 11 8 7 5 4 2 1 1 1 0 0
0 0 0 0 0 0 0 0 0 0 0 1 2 3 7 14 20 24 25 30 42 56 67 75 74 70 70 70 70 71 71 68 59 46 33 23 18 15 12 10 8 7 5 3 2 2 1 0 0
0 0 0 0 0 0 0 0 0 0 0 1 2 5 11 21 29 34 37 42 50 57 66 72 72 66 62 60 62 65 69 68 57 42 30 19 13 10 9 8 8 7 5 4 4 3 1 0 0
0 0 0 0 0 0 0 0 0 0 0 0 1 5 14 24 35 45 51 54 58 62 67 71 71 65 53 48 51 52 55 53 42 31 23 13 6 5 5 7 8 6 4 4 4 3 2 0 0
0 0 0 0 0 0 0 0 0 0 0 0 0 3 10 21 36 50 56 59 62 65 68 69 69 63 52 48 49 45 40 33 22 18 17 11 7 5 4 8 8 5 3 3 3 2 1 0 0
0 0 0 0 0 0 0 0 0 0 0 0 0 1 6 17 31 43 49 53 59 66 67 68 70 68 62 59 57 51 44 33 23 22 24 20 17 12 8 8 7 4 3 2 2 1 0 0 0
0 0 0 0 0 0 0 0 0 0 0 0 0 1 5 14 24 31 34 40 52 61 66 70 76 78 76 72 69 64 58 49 43 42 40 32 26 18 12 9 7 4 3 2 1 0 0 0 0
0 0 0 0 0 0 0 0 0 0 0 0 0 1 5 12 19 23 25 31 42 53 62 71 79 84 84 82 78 72 66 63 60 54 45 35 27 19 15 14 11 7 4 4 3 2 1 1 1
0 0 0 0 0 0 0 0 0 0 0 0 2 5 10 15 20 23 26 29 35 44 54 64 74 82 84 83 80 74 72 72 65 54 42 32 25 21 20 19 17 11 8 9 8 4 3 3 2
0 0 0 0 0 0 0 0 0 0 0 2 5 11 17 22 25 27 29 31 33 38 47 55 62 72 78 78 75 71 71 71 64 56 48 36 28 29 29 25 20 17 15 17 14 8 4 3 2
0 0 0 0 0 0 0 0 0 0 1 2 7 14 22 28 31 33 35 35 34 37 45 50 52 59 66 71 71 68 67 67 66 65 59 48 39 38 38 33 28 26 25 23 18 13 10 8 6
0 0 0 0 0 0 0 0 0 1 1 3 9 16 23 30 34 37 40 40 38 40 47 49 45 47 53 61 66 65 64 67 69 72 69 61 52 47 44 41 36 34 34 31 25 22 21 18 15
0 0 0 0 0 0 0 0 1 2 4 7 13 19 22 28 32 34 39 41 41 44 50 49 43 42 46 52 60 61 59 62 68 72 72 69 62 54 49 47 43 42 44 43 38 34 31 27 24
0 0 0 0 0 0 0 0 1 4 8 12 18 20 21 22 24 27 31 36 38 43 49 49 47 47 49 52 56 57 55 57 62 65 67 68 65 59 56 56 56 56 57 53 48 43 37 32 29
0 0 0 0 0 0 0 0 1 5 9 13 16 17 16 15 15 18 22 25 29 33 40 45 48 52 54 55 55 54 51 49 51 55 57 58 58 60 61 63 65 64 61 55 50 47 42 36 33
0 0 0 0 0 0 0 0 1 3 6 10 12 11 10 9 9 12 15 18 20 23 27 34 41 48 52 54 53 49 44 40 40 42 42 41 43 48 55 58 57 56 54 49 47 45 42 37 33
0 0 0 0 0 0 0 0 0 1 3 5 7 8 7 6 6 9 13 15 16 17 18 24 32 39 45 47 48 43 36 31 29 27 23 22 22 26 33 36 36 38 38 36 34 33 33 30 28
0 0 0 0 0 0 0 0 1 1 1 2 4 6 6 5 5 7 9 12 14 15 15 18 24 31 35 39 40 37 30 23 18 14 12 10 9 8 11 13 15 18 20 19 17 17 18 19 17
0 0 0 0 0 0 0 0 1 1 1 2 3 4 4 3 4 5 6 9 12 15 16 17 21 25 28 30 32 28 21 14 10 8 6 5 4 3 4 4 6 8 9 8 7 6 6 7 7
0 0 0 0 0 0 0 0 2 2 3 4 3 2 2 3 3 4 6 9 11 13 15 18 21 23 24 23 22 19 14 9 7 6 5 3 3 4 4 3 4 5 4 3 2 1 1 1 1
0 0 0 0 0 0 0 1 4 5 4 4 4 3 3 4 5 6 8 10 10 10 12 16 19 20 18 16 14 11 9 7 6 5 4 2 2 2 2 1 1 2 1 1 0 0 0 0 0
0 0 0 0 0 0 0 1 4 4 3 3 3 4 5 6 6 6 7 9 9 8 9 12 14 13 10 9 8 6 5 5 4 3 2 1 1 1 0 0 0 0 0 0 0 0 0 0 0
0 0 0 0 0 0 0 0 1 2 1 2 3 4 6 6 5 4 5 6 7 8 8 8 8 6 5 5 5 4 3 3 2 1 1 0 0 0 0 0 0 0 0 0 0 0 0 0 0
0 0 0 0 0 0 0 0 0 0 1 2 3 4 5 5 4 3 3 4 5 6 6 4 3 2 2 3 3 3 2 1 1 0 0 0 0 0 0 0 0 0 0 0 0 0 0 0 0
0 0 0 0 0 0 0 0 0 0 0 1 3 3 3 4 4 3 3 4 4 4 4 2 1 1 1 2 3 3 1 0 0 0 0 0 0 0 0 0 0 0 0 0 0 0 0 0 0

GEFSSGP_con_probscp_078.txt.gz
Probability
0 0 0 0 0 0 0 0 0 0 0 0 0 0 0 0 1 2 5 24 61 81 78 73 67 51 30 16 10 5 2 1 1 1 0 0 0 0 0 0 0 0 0 0 0 0 0 0 0
0 0 0 0 0 0 0 0 0 0 0 0 0 0 0 0 1 4 11 31 61 74 70 69 69 57 39 24 15 8 5 2 2 1 1 0 0 0 0 0 0 0 0 0 0 0 0 0 0
0 0 0 0 0 0 0 0 0 0 0 0 0 0 1 2 4 11 21 35 54 62 61 70 73 64 51 37 26 18 11 5 4 3 2 1 1 1 1 0 0 0 0 0 0 0 0 0 0
0 0 0 0 0 0 0 0 0 0 0 0 0 0 4 9 15 23 27 32 46 57 64 72 75 69 61 51 40 31 21 11 7 6 4 3 4 3 2 1 0 0 0 0 0 0 0 0 0
0 0 0 0 0 0 0 0 0 0 0 0 0 2 10 22 30 31 24 26 44 61 70 73 74 73 69 62 54 46 35 24 17 13 11 10 9 7 3 1 0 0 0 0 0 0 0 0 0
0 0 0 0 0 0 0 0 0 0 0 0 0 4 19 36 43 35 24 25 44 66 76 75 72 71 69 67 65 62 55 44 33 25 20 18 14 9 4 2 1 0 0 0 0 0 0 0 0
0 0 0 0 0 0 0 0 0 0 0 0 0 7 30 53 55 42 31 31 49 70 80 77 71 67 63 64 67 70 69 61 50 38 29 22 15 8 4 3 2 1 0 0 0 0 0 0 0
0 0 0 0 0 0 0 0 0 0 0 0 0 10 37 61 61 49 39 40 56 74 81 76 70 64 59 59 64 71 73 68 57 42 30 20 10 4 2 3 4 2 1 0 0 0 0 0 0
0 0 0 0 0 0 0 0 0 0 0 0 1 13 39 57 55 47 43 48 63 77 78 70 64 60 55 55 64 71 68 60 48 36 25 14 5 1 1 4 6 4 1 0 0 0 0 0 0
0 0 0 0 0 0 0 0 0 0 0 0 2 13 33 47 46 40 42 54 70 81 78 64 54 52 49 54 68 70 59 45 34 26 20 11 5 3 5 10 12 6 1 1 1 1 0 0 0
0 0 0 0 0 0 0 0 0 0 0 0 1 8 22 35 38 35 40 56 75 85 80 63 51 46 46 57 71 67 54 41 28 24 22 15 10 10 16 22 18 8 3 2 2 2 1 0 0
0 0 0 0 0 0 0 0 0 0 0 0 1 5 15 26 34 36 42 58 77 87 83 70 60 54 53 65 72 61 50 42 33 32 31 24 18 17 24 29 20 8 3 3 3 2 1 0 0
0 0 0 0 0 0 0 0 0 0 0 0 2 8 16 25 32 41 51 65 79 87 86 79 74 70 70 75 73 60 51 46 44 46 43 33 26 25 30 32 23 11 4 3 2 3 3 2 2
0 0 0 0 0 0 0 0 0 0 1 2 7 13 21 27 35 48 64 75 82 86 85 84 83 82 82 81 77 68 62 59 58 60 55 42 36 40 45 42 30 16 9 9 8 7 9 7 5
0 0 0 0 0 0 0 0 0 1 2 6 13 20 26 32 41 55 72 83 85 83 81 82 82 82 82 81 79 74 70 69 70 72 67 54 48 55 60 54 40 24 19 23 23 19 18 15 11
0 0 0 0 0 0 0 0 0 1 4 11 19 27 33 38 46 58 72 83 85 81 78 77 75 76 78 78 75 71 67 67 71 74 72 62 56 60 63 58 48 37 32 35 34 29 25 22 19
0 0 0 0 0 0 0 0 0 3 7 15 24 33 38 43 49 56 67 78 82 79 76 73 70 71 73 73 68 63 58 58 60 63 64 59 55 56 56 55 53 48 43 41 36 33 31 28 26
0 0 0 0 0 0 0 0 2 5 11 19 28 36 41 44 47 50 58 69 75 75 74 72 70 70 69 66 60 52 46 44 45 47 50 50 47 47 47 49 51 52 51 47 42 40 39 34 32
0 0 0 0 0 0 0 2 5 8 14 22 29 35 40 41 40 41 46 55 61 65 68 67 66 66 65 61 54 44 36 33 33 32 35 38 38 38 38 41 46 52 56 55 51 49 45 40 39
0 0 0 0 0 0 1 3 7 11 16 22 28 34 37 35 31 31 35 39 44 50 54 57 58 57 56 55 52 43 34 28 25 22 22 26 30 33 35 39 44 50 55 56 55 53 47 43 43
0 0 0 0 0 0 1 4 9 14 19 24 28 31 31 28 23 22 24 26 30 35 40 44 48 48 47 49 48 41 31 25 20 16 15 19 25 29 33 37 38 41 46 47 47 48 46 43 42
0 0 0 0 0 0 0 3 9 17 22 22 23 25 24 19 16 15 16 17 19 24 28 33 38 40 40 42 41 35 28 22 16 13 13 16 21 25 27 28 27 28 31 32 32 35 39 38 36
0 0 0 0 0 0 0 2 8 17 20 18 18 18 16 12 11 12 11 11 12 15 20 25 30 32 34 35 33 27 23 17 11 10 10 12 14 18 18 17 16 17 18 19 20 23 26 27 26
0 0 0 0 0 0 0 1 6 12 16 18 16 14 12 11 11 11 11 10 9 9 14 21 25 26 29 30 26 21 16 11 7 6 7 7 8 9 9 9 8 9 10 11 11 12 13 13 13
0 0 0 0 0 0 0 1 4 9 15 17 16 13 11 10 10 11 11 10 8 7 11 18 22 23 24 24 19 15 12 7 4 4 5 4 4 4 3 2 2 3 3 4 4 5 4 4 4
0 0 0 0 0 0 0 2 6 10 13 14 13 11 9 7 7 8 9 9 8 7 9 14 18 19 18 17 13 10 8 5 4 4 4 3 3 2 1 0 0 0 0 0 1 1 1 1 1
0 0 0 0 0 0 0 3 7 9 10 10 9 7 6 6 6 7 7 8 8 8 8 9 12 14 13 10 7 5 4 4 4 4 3 3 2 1 0 0 0 0 0 0 0 0 0 0 0
0 0 0 0 0 0 0 1 4 6 7 6 5 5 5 6 6 6 6 6 7 7 6 6 7 9 8 5 4 3 3 4 3 3 3 2 1 0 0 0 0 0 0 0 0 0 0 0 0
0 0 0 0 0 0 0 0 2 4 5 4 3 4 5 6 6 6 5 4 3 3 3 3 3 4 3 2 3 3 3 3 3 2 2 1 0 0 0 0 0 0 0 0 0 0 0 0 0
0 0 0 0 0 0 0 0 1 3 6 4 1 2 3 4 5 5 4 3 1 1 1 1 1 1 1 2 3 3 3 3 2 1 1 0 0 0 0 0 0 0 0 0 0 0 0 0 0

GEFSSGP_con_probscp_084.txt.gz
Probability
0 0 0 0 0 0 0 0 0 0 0 0 0 1 4 5 3 1 0 2 8 14 15 17 19 15 7 2 0 0 1 3 4 2 1 1 2 4 4 2 1 0 0 0 0 0 0 0 0
0 0 0 0 0 0 0 0 0 0 0 0 0 2 7 11 7 2 1 5 14 20 20 21 23 20 12 5 2 1 1 2 3 1 0 0 2 4 5 3 1 0 0 0 0 0 0 0 0
0 0 0 0 0 0 0 0 0 0 0 0 0 3 10 14 11 5 5 13 24 28 26 27 30 27 19 12 7 4 2 2 1 1 0 0 2 4 5 3 2 0 0 0 0 0 0 0 0
0 0 0 0 0 0 0 0 0 0 0 0 1 7 14 17 15 14 15 22 30 32 31 34 36 32 26 20 13 9 5 3 1 0 0 0 1 3 3 1 1 0 0 0 0 0 0 0 0
0 0 0 0 0 0 0 0 0 0 0 0 4 14 24 28 29 29 30 31 34 36 39 44 45 39 32 25 19 14 10 5 2 0 1 1 0 1 1 0 0 0 0 0 0 0 0 0 0
0 0 0 0 0 0 0 0 0 0 0 0 6 21 35 42 45 44 39 38 43 49 52 55 54 48 39 31 24 19 13 8 5 2 2 2 1 0 0 0 0 0 0 0 0 0 0 0 0
0 0 0 0 0 0 0 0 0 0 0 0 8 24 38 46 52 52 48 48 56 64 66 64 58 51 45 37 29 22 15 12 11 7 4 2 1 0 0 0 0 0 0 0 0 0 0 0 0
0 0 0 0 0 0 0 0 0 0 0 1 8 22 35 46 59 63 62 63 68 73 74 71 65 58 52 45 36 30 24 20 18 13 7 3 1 0 0 0 0 0 0 0 0 0 0 0 0
0 0 0 0 0 0 0 0 0 0 1 4 12 25 41 57 70 75 76 76 77 78 79 79 75 70 65 58 51 45 39 32 26 20 13 8 3 0 0 0 0 0 0 0 0 0 0 0 0
0 0 0 0 0 0 0 0 0 1 2 9 21 38 55 67 73 77 79 80 81 80 80 81 80 77 74 72 69 64 57 49 39 29 22 15 8 2 1 0 0 0 0 0 0 0 0 0 0
0 0 0 0 0 0 0 0 0 1 3 9 24 43 58 67 69 69 72 76 79 80 80 79 78 76 75 77 80 78 72 63 52 40 30 22 13 6 3 1 1 0 0 0 0 0 0 0 0
0 0 0 0 0 0 0 0 0 1 3 9 20 37 53 62 64 62 63 67 73 77 77 75 72 72 73 76 80 81 77 70 61 48 36 25 15 7 3 2 2 1 0 0 0 0 0 0 0
0 0 0 0 0 0 0 0 0 1 5 9 18 33 48 57 59 58 58 61 65 67 67 66 65 66 69 71 74 74 71 67 60 51 38 27 16 8 4 4 4 4 2 1 0 0 0 0 0
0 0 0 0 0 0 0 0 0 2 5 11 19 30 42 52 55 54 56 60 59 57 55 56 58 60 61 63 65 65 62 57 52 44 33 23 14 9 7 7 7 5 4 2 1 0 0 0 0
0 0 0 0 0 0 0 0 0 2 6 13 22 30 39 46 49 51 55 57 55 53 50 50 52 54 55 56 58 58 53 45 39 33 27 18 11 9 8 9 7 6 5 3 1 0 0 0 0
0 0 0 0 0 0 0 0 0 4 11 19 26 32 36 40 43 47 50 52 51 48 46 46 45 46 49 51 52 49 42 34 29 26 23 18 12 8 8 8 6 6 5 2 0 0 0 0 0
0 0 0 0 0 0 0 1 2 7 16 24 28 31 34 36 37 41 43 44 43 42 41 39 37 38 41 46 47 42 34 27 23 21 21 18 14 10 8 7 6 5 4 2 1 0 0 0 0
0 0 0 0 0 0 2 3 5 10 18 25 26 25 26 28 29 31 33 34 35 37 35 32 30 31 33 38 41 37 30 23 18 17 16 15 12 9 7 6 6 5 3 2 1 0 0 0 0
0 0 0 0 0 1 3 4 6 11 18 23 23 19 16 17 18 19 22 23 25 28 28 25 24 24 26 30 32 30 24 18 14 12 11 10 8 6 5 5 6 5 3 2 1 0 0 0 0
0 0 0 0 0 0 2 3 5 12 19 23 21 15 12 12 11 11 11 12 14 16 18 19 19 18 20 23 24 21 17 13 10 8 8 7 5 4 4 4 4 3 2 1 0 0 0 0 0
0 0 0 0 0 0 0 1 4 10 17 21 20 14 12 13 10 7 6 5 6 8 10 12 13 14 15 18 19 17 14 10 8 7 6 6 5 4 3 3 2 1 1 1 0 0 0 0 0
0 0 0 0 0 0 0 0 3 8 12 15 15 13 12 11 9 6 4 4 4 5 6 7 8 9 12 16 16 15 13 9 6 5 4 5 4 2 2 1 1 1 1 0 0 0 0 0 0
0 0 0 0 0 0 0 0 1 4 5 7 8 10 10 8 6 5 5 3 3 4 4 4 4 5 9 12 13 11 9 7 5 3 2 2 2 2 1 0 0 0 0 0 0 0 0 0 0
0 0 0 0 0 0 0 0 0 1 1 2 4 7 8 5 3 4 3 2 2 3 4 4 4 4 6 7 8 7 6 4 3 2 1 0 1 1 1 0 0 0 0 0 0 0 0 0 0
0 0 0 0 0 0 0 0 0 0 0 1 3 6 6 4 2 1 1 1 2 3 4 5 5 4 3 3 3 3 4 3 2 1 0 0 0 0 0 0 0 0 0 0 0 0 0 0 0
0 0 0 0 0 0 0 0 0 0 0 0 1 3 4 3 1 0 0 1 2 3 3 4 4 3 2 1 1 1 1 1 1 0 0 0 0 0 0 0 0 0 0 0 0 0 0 0 0
0 0 0 0 0 0 0 0 0 0 0 0 0 0 1 1 0 0 0 1 2 2 1 1 2 2 1 0 0 0 0 0 0 0 0 0 0 0 0 0 0 0 0 0 0 0 0 0 0
0 0 0 0 0 0 0 0 0 0 0 0 0 0 0 0 0 0 0 1 1 1 0 1 1 1 0 0 0 0 0 0 0 0 0 0 0 0 0 0 0 0 0 0 0 0 0 0 0
0 0 0 0 0 0 0 0 0 0 0 0 0 0 0 0 0 0 0 0 0 0 0 0 0 0 0 0 0 0 0 0 0 0 0 0 0 0 0 0 0 0 0 0 0 0 0 0 0
0 0 0 0 0 0 0 0 0 0 0 0 0 0 0 0 0 0 0 0 0 0 0 0 0 0 0 0 0 0 0 0 0 0 0 0 0 0 0 0 0 0 0 0 0 0 0 0 0

GEFSSGP_con_probscp_090.txt.gz
Probability
0 0 0 0 0 0 0 0 0 0 0 0 0 0 0 0 0 0 0 1 5 12 17 17 13 8 7 10 14 19 23 25 26 25 20 14 10 6 2 0 0 0 0 0 0 0 0 0 0
0 0 0 0 0 0 0 0 0 0 0 0 0 0 0 0 0 0 0 1 7 14 18 19 18 13 10 12 16 19 22 23 25 27 24 19 13 8 3 1 0 0 0 0 0 0 0 0 0
0 0 0 0 0 0 0 0 0 0 0 0 0 0 1 1 0 0 0 2 10 17 20 24 26 22 16 15 16 17 19 22 26 29 29 24 19 13 6 2 0 0 0 0 0 0 0 0 0
0 0 0 0 0 0 0 0 0 0 0 0 0 1 2 2 1 0 1 5 15 22 24 30 35 31 25 21 18 17 18 21 26 28 29 26 22 17 10 3 0 0 0 0 0 0 0 0 0
0 0 0 0 0 0 0 0 0 0 0 0 0 2 4 5 4 4 5 11 20 26 28 34 41 40 36 31 26 23 21 21 23 23 22 21 21 19 13 5 1 0 0 0 0 0 0 0 0
0 0 0 0 0 0 0 0 0 0 0 0 1 5 10 11 10 12 15 18 24 30 32 37 44 46 44 41 37 31 27 25 22 19 17 16 16 17 14 9 3 0 0 0 0 0 0 0 0
0 0 0 0 0 0 0 0 0 0 0 1 3 8 15 19 22 27 29 27 29 36 41 44 47 47 46 46 44 38 33 29 25 20 16 13 12 12 13 10 5 1 0 0 0 0 0 0 0
0 0 0 0 0 0 0 0 0 0 1 4 7 11 20 32 42 49 47 38 34 38 46 51 52 49 48 50 50 46 41 36 30 24 19 14 10 9 10 9 5 1 0 0 0 0 0 0 0
0 0 0 0 0 0 0 0 0 0 2 8 13 19 32 50 63 67 60 46 36 35 42 50 55 56 57 58 59 59 55 47 39 31 25 19 14 11 11 8 4 1 0 0 0 0 0 0 0
0 0 0 0 0 0 0 0 0 0 2 8 15 24 43 62 71 69 60 48 37 31 35 43 52 60 65 68 71 72 68 60 51 43 37 30 23 18 15 11 5 2 1 1 1 1 0 0 0
0 0 0 0 0 0 0 0 0 0 1 4 10 23 45 62 65 59 52 44 37 32 33 38 45 55 64 70 73 74 73 70 65 59 52 44 34 26 20 14 8 4 3 3 4 4 2 0 0
0 0 0 0 0 0 1 1 1 1 2 5 13 28 47 56 55 49 43 39 38 38 38 39 42 50 58 63 67 68 69 72 72 68 65 58 47 34 24 16 10 7 6 5 6 6 4 1 0
0 0 0 0 0 1 3 3 2 2 6 12 23 37 47 49 45 42 38 36 39 43 45 42 44 49 55 58 61 63 66 69 70 68 67 64 54 41 29 20 13 9 8 7 6 6 5 2 1
0 0 0 0 0 1 3 3 3 4 9 17 27 36 40 40 37 35 33 32 35 42 46 45 45 50 53 55 58 61 63 64 65 64 63 61 53 41 32 26 19 12 9 7 6 5 3 1 1
0 0 0 0 0 1 3 3 3 7 13 20 27 30 32 32 30 27 26 26 30 37 42 43 44 47 49 50 54 58 60 59 58 57 57 55 49 39 32 28 22 17 14 11 7 5 2 1 1
0 0 0 0 0 1 2 3 4 8 15 20 22 24 26 24 21 18 17 19 25 32 37 40 43 44 45 44 46 49 51 51 49 47 47 48 44 36 30 27 23 20 18 14 9 5 2 1 1
0 0 0 0 0 1 2 3 4 7 11 13 14 16 17 14 11 10 11 14 21 28 33 36 39 39 38 36 36 38 41 41 39 37 36 37 36 32 28 26 23 20 18 15 9 4 2 2 1
0 0 0 0 0 0 2 3 4 4 5 6 7 8 7 6 5 7 9 11 17 22 26 29 31 31 29 28 29 32 33 33 32 28 27 28 28 28 27 24 21 18 16 13 8 2 1 2 2
0 0 0 0 0 0 1 3 3 2 2 3 3 3 2 2 2 3 5 8 11 14 17 21 23 22 21 23 25 28 28 29 27 23 21 21 20 21 22 19 15 13 11 9 5 1 0 1 1
0 0 0 0 0 0 1 2 2 2 2 2 2 2 2 2 1 1 2 3 5 7 9 13 16 16 16 18 20 21 21 21 19 17 16 14 14 14 14 12 10 8 8 6 4 1 0 0 0
0 0 0 0 0 0 0 1 1 2 1 1 2 4 4 2 0 0 0 0 1 2 4 6 9 11 12 13 14 15 15 14 12 11 11 9 9 9 9 8 7 6 7 6 3 1 0 0 0
0 0 0 0 0 0 0 0 0 0 0 0 1 3 3 1 0 0 0 1 1 1 1 2 3 6 8 10 11 12 13 11 8 6 6 6 6 7 7 7 6 5 5 3 1 0 0 0 0
0 0 0 0 0 0 0 0 0 0 0 0 0 1 1 0 0 0 0 1 2 2 2 1 1 3 6 7 8 10 10 9 6 3 3 3 4 4 5 5 4 3 2 1 0 0 0 0 0
0 0 0 0 0 0 0 0 0 0 0 0 0 1 0 0 0 0 0 1 1 2 3 2 1 3 4 4 4 5 5 6 4 2 0 1 1 1 2 2 1 1 1 0 0 0 0 0 0
0 0 0 0 0 0 0 0 0 0 0 0 0 0 0 0 0 0 0 0 0 1 2 2 2 2 3 2 1 1 1 3 2 1 0 0 0 0 0 0 0 0 0 0 0 0 0 0 0
0 0 0 0 0 0 0 0 0 0 0 0 0 0 0 0 0 0 0 0 0 0 1 2 2 2 1 1 0 0 0 1 1 0 0 0 0 0 0 0 0 0 0 0 0 0 0 0 0
0 0 0 0 0 0 0 0 0 0 0 0 0 0 0 0 0 0 0 0 0 0 0 1 2 1 0 0 0 0 0 0 0 0 0 0 0 0 0 0 0 0 0 0 0 0 0 0 0
0 0 0 0 0 0 0 0 0 0 0 0 0 0 0 0 0 0 0 0 0 0 0 0 0 0 0 0 0 0 0 0 0 0 0 0 0 0 0 0 0 0 0 0 0 0 0 0 0
0 0 0 0 0 0 0 0 0 0 0 0 0 0 0 0 0 0 0 0 0 0 0 0 0 0 0 0 0 0 0 0 0 0 0 0 0 0 0 0 0 0 0 0 0 0 0 0 0
0 0 0 0 0 0 0 0 0 0 0 0 0 0 0 0 0 0 0 0 0 0 0 0 0 0 0 0 0 0 0 0 0 0 0 0 0 0 0 0 0 0 0 0 0 0 0 0 0

GEFSSGP_con_probscp_096.txt.gz
Probability
0 0 0 0 0 0 0 0 0 0 0 0 0 0 0 0 0 0 0 1 6 13 15 15 18 16 11 11 16 18 19 19 15 13 10 6 3 1 0 0 0 0 0 0 0 0 0 0 0
0 0 0 0 0 0 0 0 0 0 0 0 0 0 0 0 0 0 1 2 6 12 15 16 19 22 20 20 22 25 28 29 25 19 13 8 5 3 2 1 0 0 0 0 0 0 0 0 0
0 0 0 0 0 0 0 0 0 0 0 0 1 1 1 2 2 1 1 3 5 9 13 17 22 27 30 31 34 40 44 45 42 35 25 18 13 9 6 4 2 1 0 0 0 0 0 0 0
0 0 0 0 0 0 0 0 0 0 0 0 1 2 4 5 5 4 3 3 4 6 10 16 21 26 31 36 45 52 56 58 57 51 43 36 29 19 12 7 4 2 1 0 0 0 0 0 0
0 0 0 0 0 0 0 0 0 0 0 1 2 5 10 10 8 6 5 3 3 4 9 16 21 22 26 36 47 55 61 64 62 57 53 49 44 35 24 16 10 6 3 1 1 1 0 0 0
0 0 0 0 0 0 0 0 0 0 2 4 7 13 20 20 13 9 7 6 3 4 11 18 18 16 20 29 41 51 59 62 62 59 56 54 52 45 35 27 19 12 7 5 3 2 1 0 0
0 0 0 0 0 0 0 0 1 4 8 13 15 20 29 31 22 14 11 9 5 6 12 16 13 10 13 20 30 41 51 58 63 62 58 54 51 45 37 31 25 18 13 9 7 4 3 1 0
0 0 0 0 0 0 0 0 3 10 19 27 28 29 37 39 29 21 18 14 11 11 13 15 11 8 8 12 18 27 39 52 58 58 55 48 40 32 27 26 27 23 16 12 9 6 5 2 1
0 0 0 0 0 0 0 1 5 13 25 37 43 45 48 45 36 31 29 25 21 19 18 17 16 13 10 11 15 18 26 37 41 42 43 37 26 18 18 26 33 27 17 13 10 8 6 3 1
0 0 0 0 0 0 1 2 6 12 23 38 49 55 54 47 40 36 36 35 30 25 22 20 19 18 16 20 24 22 24 29 29 31 34 30 23 17 20 34 38 28 17 13 12 10 6 2 1
0 0 0 0 0 0 1 3 7 12 20 31 44 52 52 45 38 34 34 37 36 30 26 23 22 21 23 31 39 39 39 42 40 40 43 43 39 32 33 40 40 28 19 15 13 10 4 1 0
0 0 0 0 0 0 0 3 8 12 16 22 32 44 48 46 40 37 38 41 41 35 31 30 30 30 33 41 50 52 55 60 60 59 61 61 59 51 46 47 43 32 23 20 18 12 7 3 1
0 0 0 0 0 0 0 2 6 9 10 12 23 37 46 48 47 45 46 49 47 39 35 36 39 42 46 52 55 56 61 66 68 69 70 71 69 64 57 56 54 42 33 30 25 19 15 10 7
0 0 0 0 0 0 0 2 5 7 7 8 19 33 41 44 46 46 45 47 46 41 38 41 44 48 53 57 56 57 60 64 66 68 71 72 72 69 64 64 63 55 47 41 35 30 26 23 19
0 0 0 0 0 0 0 1 4 6 5 8 17 26 32 35 37 36 35 35 36 37 38 39 41 45 51 54 55 56 58 60 61 65 69 71 71 71 68 67 66 64 59 55 50 46 43 39 34
0 0 0 0 0 0 0 1 2 3 3 6 12 17 21 24 25 25 24 25 27 30 32 33 35 40 47 51 54 55 56 58 60 63 66 66 67 69 71 70 68 68 68 67 64 62 61 54 46
0 0 0 0 0 0 0 1 3 2 3 5 7 9 12 15 16 17 18 20 23 26 29 29 30 36 43 49 53 55 57 59 61 61 59 59 60 64 68 70 71 70 71 72 70 69 69 62 53
0 0 0 0 0 0 0 1 3 4 5 6 5 5 6 7 10 11 13 16 21 25 28 28 29 34 40 47 52 54 56 60 59 55 51 50 52 56 58 62 66 68 69 71 71 70 70 64 56
0 0 0 0 0 0 0 1 3 4 5 5 4 4 5 6 7 8 9 11 16 21 23 24 26 31 37 44 50 51 52 56 55 51 46 44 45 48 49 50 55 59 62 66 69 68 66 58 51
0 0 0 0 0 0 0 1 2 4 5 4 3 4 6 6 6 6 6 8 12 16 17 18 21 25 32 38 41 42 44 47 47 44 42 41 40 40 41 41 45 50 55 59 62 62 57 47 40
0 0 0 0 0 0 0 1 2 3 4 4 3 4 5 6 5 4 5 8 11 13 13 15 17 21 25 29 30 31 35 36 33 32 34 35 35 33 33 34 37 43 49 51 52 51 46 37 30
0 0 0 0 0 0 0 0 1 2 2 2 3 4 6 6 5 4 5 8 11 12 11 12 16 18 19 22 23 24 26 26 24 24 26 29 29 28 27 28 32 38 41 43 44 40 34 28 23
0 0 0 0 0 0 0 0 0 0 1 2 3 5 6 6 6 5 4 7 9 10 10 11 13 14 15 16 18 19 20 21 22 23 23 25 26 25 24 25 28 32 34 35 35 32 26 22 19
0 0 0 0 0 0 0 0 0 0 0 1 3 5 6 6 6 4 3 4 6 8 8 9 10 11 12 12 12 14 16 16 17 19 20 23 25 23 21 21 24 26 27 27 26 24 21 18 16
0 0 0 0 0 0 0 0 0 0 0 1 2 4 5 6 5 3 2 2 3 4 5 7 7 8 8 8 9 11 13 12 12 12 13 17 19 18 16 15 17 18 18 18 18 18 17 16 14
0 0 0 0 0 0 0 0 1 0 0 0 1 2 3 3 3 2 2 1 2 3 4 5 6 5 5 5 6 8 8 8 7 6 7 9 11 11 11 10 9 8 8 10 11 11 11 11 11
0 0 0 0 0 0 0 0 0 0 0 0 0 1 1 1 1 1 1 1 1 2 3 4 4 3 2 2 3 3 3 3 2 2 4 5 6 7 7 6 4 3 4 5 7 7 7 6 6
0 0 0 0 0 0 0 0 0 0 0 0 0 0 0 0 1 1 0 0 0 1 2 3 3 2 1 0 1 1 0 0 0 0 1 2 3 4 4 3 3 3 3 4 5 6 5 3 1
0 0 0 0 0 0 0 0 0 0 0 0 0 0 0 1 2 1 0 0 0 0 1 2 2 2 1 0 0 0 0 0 0 0 0 1 2 2 2 1 2 2 3 3 3 4 3 2 0
0 0 0 0 0 0 0 0 0 0 0 0 0 0 0 1 2 1 0 0 0 0 0 1 1 1 0 0 0 0 0 0 0 0 0 0 1 1 0 0 1 1 2 2 2 1 1 1 0

GEFSSGP_con_probscp_102.txt.gz
Probability
0 0 0 0 0 0 0 0 0 0 0 0 0 1 4 7 7 7 13 30 42 33 21 19 15 7 1 0 0 0 0 0 0 0 0 0 0 0 0 0 0 0 0 0 0 0 0 0 0
0 0 0 0 0 0 0 0 0 0 0 0 0 3 7 11 11 9 18 33 37 25 18 18 16 8 2 0 0 0 0 0 0 0 0 0 0 0 0 0 0 0 0 0 0 0 0 0 0
0 0 0 0 0 0 0 0 0 0 0 0 3 8 14 16 15 15 23 33 29 19 18 21 19 12 5 2 1 0 0 0 0 0 0 0 0 0 0 0 0 0 0 0 0 0 0 0 0
0 0 0 0 0 0 0 0 0 0 1 3 9 20 25 24 21 19 24 27 25 21 23 25 23 16 10 5 3 1 0 1 1 1 0 0 0 0 0 0 0 0 0 0 0 0 0 0 0
0 0 0 0 0 0 0 0 0 1 2 6 18 33 38 35 27 20 18 21 25 27 26 26 25 21 15 10 6 4 2 3 4 3 2 2 1 1 0 0 0 0 0 0 0 0 0 0 0
0 0 0 0 0 0 0 0 0 1 4 11 25 37 42 39 30 20 15 18 27 31 27 23 23 23 19 14 11 8 7 8 10 10 9 8 6 3 1 1 1 0 0 1 1 1 0 0 0
0 0 0 0 0 0 0 0 0 2 9 20 31 39 42 40 32 22 17 21 30 33 26 19 18 19 18 16 15 13 14 16 18 18 16 14 11 6 3 4 4 3 2 1 1 1 0 0 0
0 0 0 0 0 0 0 0 2 8 19 29 37 42 44 42 35 25 21 27 35 35 25 15 13 14 14 15 16 17 19 22 23 22 19 15 10 6 4 8 11 9 5 3 1 0 0 0 0
0 0 0 0 0 0 0 1 5 14 26 34 38 40 41 39 33 27 27 34 40 36 24 14 13 12 11 14 17 18 19 20 19 18 15 10 5 3 4 13 22 20 11 5 2 1 0 0 0
0 0 0 0 0 0 1 3 8 17 26 32 36 37 35 35 31 28 33 41 44 38 29 22 20 17 16 20 22 17 15 14 11 11 11 8 3 2 10 26 38 33 19 9 5 3 1 0 0
0 0 0 0 0 0 2 6 12 19 24 28 32 33 32 31 29 30 37 46 47 40 34 33 32 29 29 33 29 20 19 20 17 17 18 13 6 7 22 43 50 41 25 13 10 6 2 0 0
0 0 0 0 0 0 2 8 14 18 20 23 25 28 29 30 30 34 41 48 49 43 37 36 38 38 41 46 39 28 30 36 37 39 41 30 16 15 32 51 55 42 26 19 17 12 5 2 1
0 0 0 0 0 0 2 6 11 12 13 18 22 26 29 31 32 37 44 48 49 47 41 36 38 43 50 54 49 40 42 50 55 61 62 51 36 31 40 55 57 43 30 27 25 18 13 10 7
0 0 0 0 0 0 1 5 7 6 7 14 23 26 27 29 32 38 44 46 48 49 46 40 39 47 56 57 54 51 53 59 65 71 73 65 58 55 57 63 63 51 40 37 34 27 26 25 22
0 0 0 0 0 0 1 4 5 3 3 11 20 22 21 23 26 33 39 41 42 45 47 43 40 47 55 56 57 59 62 66 70 75 77 74 72 74 72 71 70 61 53 52 49 42 41 41 39
0 0 0 0 0 0 1 3 3 2 4 10 17 18 18 19 20 25 29 31 33 37 43 43 41 48 55 57 60 63 67 70 74 77 79 78 75 74 75 75 73 67 65 66 62 56 53 51 50
0 0 0 0 0 0 1 2 1 2 6 12 16 18 18 17 18 19 19 20 24 32 39 40 43 51 58 61 62 64 69 73 75 76 78 76 71 67 68 71 70 68 69 69 66 63 59 53 50
0 0 0 0 0 0 1 1 1 3 8 14 16 16 16 16 16 16 14 14 18 27 34 38 43 51 58 62 62 63 68 72 74 74 73 71 66 63 63 64 65 66 67 64 61 60 56 49 45
0 0 0 0 0 0 0 1 3 6 10 15 17 17 16 16 15 12 11 11 15 23 29 33 38 45 52 58 60 62 64 65 67 69 67 63 60 59 59 59 60 62 60 56 52 50 47 43 39
0 0 0 0 0 0 1 2 6 10 12 15 19 20 18 16 14 11 9 10 14 19 24 26 30 37 45 52 57 60 61 60 60 62 61 56 51 50 50 52 54 55 52 48 46 44 42 39 36
0 0 0 0 0 0 1 5 11 14 13 15 18 19 16 14 14 10 9 10 12 15 18 20 24 31 39 48 54 57 58 56 56 56 54 49 43 40 40 43 45 46 44 43 44 43 42 40 37
0 0 0 0 0 0 1 5 13 16 13 11 12 12 12 13 12 9 8 10 11 12 14 17 22 25 32 39 45 48 49 48 48 47 44 40 36 34 34 35 37 38 39 39 40 40 40 39 37
0 0 0 0 0 0 0 3 10 14 11 8 7 8 9 11 9 7 7 8 9 10 12 15 17 19 22 26 30 32 34 34 34 32 31 31 31 30 29 28 29 31 33 35 35 35 35 35 33
0 0 0 0 0 0 0 2 6 10 8 8 9 8 8 8 6 4 4 6 7 9 11 12 12 13 14 16 19 19 20 22 22 21 21 23 24 24 23 23 24 26 29 31 32 31 30 29 29
0 0 0 0 0 0 0 1 5 6 5 9 12 11 10 8 4 2 1 3 5 6 8 9 10 10 11 12 14 15 16 17 18 16 15 16 18 18 18 18 20 23 25 26 27 26 25 25 26
0 0 0 0 0 0 0 2 4 5 6 11 14 14 12 8 3 1 0 1 2 3 4 6 7 8 9 9 10 12 14 14 13 12 11 12 13 14 14 13 15 17 19 20 20 19 19 21 22
0 0 0 0 0 0 0 1 4 6 8 12 14 15 11 6 3 1 0 1 2 2 2 3 4 6 6 6 6 7 8 7 7 7 7 8 9 10 10 9 9 11 13 13 13 12 12 14 17
0 0 0 0 0 0 0 0 2 4 7 11 14 13 10 6 4 3 1 1 2 2 2 2 2 3 3 3 3 3 2 1 2 3 3 3 4 5 5 5 5 7 7 7 7 7 7 8 9
0 0 0 0 0 0 0 0 0 2 6 11 14 13 10 7 6 4 2 1 1 2 2 2 2 2 1 1 1 1 0 0 1 1 1 1 1 1 2 2 2 3 3 2 3 3 3 4 4
0 0 0 0 0 0 0 0 1 3 7 12 15 13 11 10 8 5 2 0 0 1 2 2 1 1 1 0 0 0 0 0 0 0 0 0 0 0 0 0 0 1 0 0 1 1 2 3 3

GEFSSGP_con_probscp_108.txt.gz
Probability
0 0 0 0 0 0 0 0 0 0 1 5 15 29 38 35 25 14 5 6 17 24 23 22 22 18 12 8 5 3 1 0 0 1 0 0 0 0 0 0 0 0 0 0 0 0 0 0 0
0 0 0 0 0 0 0 0 0 0 1 7 21 36 44 42 33 20 10 13 28 35 31 28 28 23 16 10 6 3 1 0 1 1 1 0 0 0 0 0 0 0 0 0 0 0 0 0 0
0 0 0 0 0 0 0 0 0 1 4 14 27 39 44 41 34 23 17 25 41 45 39 38 38 31 22 13 7 3 1 0 1 2 1 0 0 0 0 0 0 0 0 0 0 0 0 0 0
0 0 0 0 0 0 0 0 0 3 12 25 37 44 43 36 29 27 28 35 48 49 43 43 43 37 28 19 12 7 3 2 1 1 0 0 0 0 0 0 0 0 0 0 0 0 0 0 0
0 0 0 0 0 0 0 0 2 9 22 36 46 52 47 36 34 36 36 40 48 50 46 44 43 39 32 25 18 12 9 5 1 0 0 0 0 0 0 0 0 0 0 0 0 0 0 0 0
0 0 0 0 0 0 0 2 7 16 26 35 44 49 45 36 37 40 39 40 45 49 47 44 41 38 35 30 24 17 13 9 4 1 0 0 0 0 0 0 0 0 0 0 0 0 0 0 0
0 0 0 0 0 0 1 6 14 21 27 29 33 39 39 36 35 36 37 40 44 45 44 42 38 36 36 33 27 21 16 12 7 3 1 1 0 0 0 0 0 0 0 0 0 0 0 0 0
0 0 0 0 0 0 3 10 18 24 27 28 30 35 38 37 37 37 39 43 43 39 36 33 31 31 33 33 29 23 18 13 9 5 3 1 0 0 0 0 0 0 0 0 0 0 0 0 0
0 0 0 0 0 1 6 13 20 26 32 34 36 40 42 40 40 40 39 41 39 32 26 21 21 25 28 29 27 22 16 12 9 6 3 2 1 0 0 1 1 1 1 0 0 1 1 1 0
0 0 0 0 0 3 7 13 19 26 33 38 40 42 42 40 40 39 36 35 32 25 18 14 15 19 22 23 22 19 15 12 10 7 4 3 1 0 1 2 2 2 2 1 1 2 3 2 1
0 0 0 0 1 3 7 11 17 23 27 32 35 37 37 36 36 34 30 30 27 22 16 14 14 15 15 17 18 16 14 14 13 10 7 5 2 1 1 2 3 3 3 3 3 4 5 4 3
0 0 0 1 2 3 6 11 17 21 23 25 26 28 29 28 27 25 23 24 23 21 17 15 14 13 11 12 14 13 11 12 12 11 9 7 4 2 1 2 3 5 6 6 5 5 5 5 5
0 0 0 1 3 4 6 10 15 19 22 23 22 23 23 22 21 18 17 17 18 19 16 14 12 10 8 9 10 9 7 7 7 8 10 9 7 4 2 2 3 5 7 7 6 4 4 4 4
0 0 0 1 3 5 8 10 11 15 19 21 20 19 21 21 18 14 14 15 15 14 12 11 9 7 5 6 7 6 5 6 6 7 10 12 10 7 6 5 5 5 5 6 5 4 3 3 2
0 0 0 1 1 3 7 10 9 11 16 17 15 14 16 16 12 9 10 11 12 10 8 7 6 4 4 5 6 6 7 9 11 10 12 14 14 11 12 11 8 6 6 6 4 3 2 1 1
0 0 0 0 0 1 4 7 8 11 15 14 10 8 8 7 5 5 5 6 7 6 5 3 3 3 3 4 5 7 9 12 15 16 17 18 18 17 18 16 12 9 9 9 7 3 1 1 0
0 0 0 0 0 0 2 5 8 13 16 14 8 4 3 2 1 1 2 2 3 4 2 1 1 2 3 4 6 9 12 15 18 20 23 24 23 23 23 20 17 17 16 15 12 7 3 2 1
0 0 0 0 0 1 4 7 10 14 18 15 8 5 3 1 0 0 0 0 1 1 1 0 0 1 3 5 8 12 17 18 19 21 23 24 25 26 26 25 24 24 22 18 14 10 6 4 3
0 0 0 0 1 3 7 10 11 12 15 13 9 7 6 3 1 0 0 0 0 1 1 1 1 1 3 5 8 14 17 16 14 15 17 18 21 24 26 26 25 24 22 18 14 10 7 6 4
0 0 0 0 1 5 9 10 9 9 10 11 10 9 8 5 2 1 1 1 2 2 2 2 2 2 2 3 6 11 13 11 9 9 10 11 14 17 20 22 22 21 20 18 14 11 8 6 5
0 0 0 0 2 5 7 8 8 8 8 8 9 8 7 5 4 4 3 3 4 4 4 4 4 3 3 3 4 8 10 9 7 6 6 6 8 10 12 15 17 19 18 16 14 13 10 7 6
0 0 0 0 1 2 4 5 7 8 6 4 5 6 6 5 5 5 4 3 4 5 6 6 5 5 5 5 5 7 9 8 6 6 5 5 4 6 8 10 12 16 16 13 12 12 10 8 8
0 0 0 0 0 0 1 2 5 6 4 3 5 6 6 5 5 4 3 3 4 5 6 6 6 6 6 6 5 6 6 6 6 6 7 6 6 6 8 8 10 12 12 10 10 11 10 8 8
0 0 0 0 0 0 0 1 2 3 3 4 6 6 5 4 3 2 1 1 2 3 3 3 3 3 3 3 3 2 3 3 4 5 6 7 7 6 6 6 7 7 7 8 10 12 11 9 7
0 0 0 0 0 0 0 0 1 2 3 6 7 6 5 4 2 1 1 0 1 1 1 1 1 1 1 1 1 0 1 1 1 2 3 3 4 3 3 3 2 2 4 6 8 10 10 9 7
0 0 0 0 0 0 0 0 0 2 5 7 8 7 6 5 2 1 1 0 0 0 0 0 0 0 0 0 0 0 0 0 0 1 1 1 1 1 1 1 0 0 2 3 4 5 7 7 7
0 0 0 0 0 0 0 0 0 2 5 7 7 7 6 4 2 1 0 0 0 0 0 0 0 0 0 0 0 0 0 0 0 0 0 0 0 0 0 0 0 0 1 1 1 2 3 4 5
0 0 0 0 0 0 0 0 0 2 4 6 6 6 5 3 1 1 0 0 0 0 0 0 0 0 0 0 0 0 0 0 0 0 0 0 0 0 0 0 0 0 0 0 0 0 1 1 2
0 0 0 0 0 0 0 0 0 1 2 3 5 5 3 1 2 2 1 0 0 0 0 0 0 0 0 0 0 0 0 0 0 0 0 0 0 0 0 0 0 0 0 0 0 0 0 0 0
0 0 0 0 0 0 0 0 0 1 2 3 3 2 1 1 2 2 1 0 0 0 0 0 0 0 0 0 0 0 0 0 0 0 0 0 0 0 0 0 0 0 0 0 0 0 0 0 0

GEFSSGP_con_probscp_114.txt.gz
Probability
0 0 0 0 0 0 0 0 0 0 0 2 7 11 10 6 3 1 2 6 11 13 11 9 11 12 13 13 11 10 12 15 16 15 12 8 3 1 0 0 0 0 0 0 0 0 0 0 0
0 0 0 0 0 0 0 0 0 0 1 4 11 16 14 9 4 3 5 11 18 18 13 11 12 15 17 16 14 12 12 15 17 16 13 9 5 2 1 0 0 0 0 0 0 0 0 0 0
0 0 0 0 0 0 0 0 0 1 2 6 13 19 17 11 7 7 10 19 28 26 19 15 16 18 21 20 17 16 15 16 18 16 12 10 6 3 2 1 1 0 0 0 0 0 0 0 0
0 0 0 0 0 0 0 0 0 1 5 10 16 18 17 13 10 12 18 27 36 35 26 21 20 22 24 23 20 19 18 17 17 14 11 9 6 3 3 3 2 1 0 0 0 0 0 0 0
0 0 0 0 0 0 0 0 0 2 6 12 17 19 19 17 15 19 26 32 40 43 37 29 28 28 27 24 21 20 19 18 17 14 11 9 6 4 3 4 4 2 1 0 0 0 0 0 0
0 0 0 0 0 0 0 0 2 5 8 11 15 20 23 22 21 24 28 34 42 48 47 42 37 35 32 27 23 21 20 20 18 15 12 10 8 5 4 5 5 4 2 1 0 0 1 0 0
0 0 0 0 0 0 0 2 5 8 9 9 11 18 23 24 23 25 30 37 43 47 50 51 47 43 38 33 29 24 22 22 20 17 13 11 9 7 6 7 6 5 4 2 1 0 0 0 0
0 0 0 0 0 0 1 3 6 9 11 11 13 18 23 26 26 30 36 41 43 44 47 52 52 48 41 35 32 27 23 22 21 16 12 9 8 7 7 7 6 6 5 3 1 1 1 0 0
0 0 0 0 0 0 1 3 6 9 15 18 19 23 28 31 32 35 40 40 39 40 43 47 48 45 39 35 33 27 21 20 20 15 10 8 7 6 7 6 6 6 4 3 3 2 2 1 0
0 0 0 0 0 0 1 4 5 10 16 19 22 27 33 33 32 33 35 34 34 35 36 39 41 40 38 37 34 26 19 18 17 14 10 8 6 5 6 6 6 6 4 3 3 3 3 2 1
0 0 0 0 0 0 1 4 7 10 13 15 19 27 31 30 28 27 27 26 27 28 28 29 32 34 35 35 32 25 17 14 13 12 10 8 7 7 7 7 6 5 5 4 4 4 4 3 2
0 0 0 0 0 1 4 7 10 10 10 12 16 21 24 25 22 20 17 16 17 19 19 20 22 24 26 28 28 23 16 12 10 10 10 10 10 10 9 8 6 5 5 4 4 5 5 3 3
0 0 0 0 0 2 6 10 10 9 9 10 12 14 16 17 15 11 9 8 8 9 11 12 12 14 17 20 22 20 16 13 11 10 12 12 12 10 9 8 6 4 4 3 3 5 5 4 4
0 0 0 0 0 2 6 8 7 6 7 9 9 9 10 11 9 7 5 4 3 3 4 5 6 8 12 15 16 16 15 14 12 11 12 12 11 10 9 8 7 5 4 3 3 4 4 4 3
0 0 0 0 0 1 3 4 3 4 7 9 8 7 7 7 6 4 3 3 3 3 2 2 3 5 9 11 11 12 13 11 10 9 10 11 11 10 9 8 8 7 6 6 5 4 3 2 1
0 0 0 0 0 0 2 3 4 5 7 9 7 6 5 4 3 2 1 2 4 3 2 1 1 2 5 7 7 8 9 7 6 6 7 9 11 11 10 9 9 9 9 8 8 7 4 1 0
0 0 0 0 0 0 1 3 5 6 8 8 6 5 4 3 2 1 0 1 2 2 1 0 0 0 1 2 3 4 5 4 3 3 4 5 8 10 10 10 10 10 10 10 10 9 6 2 1
0 0 0 0 0 0 1 3 5 6 7 6 4 4 3 2 1 0 0 0 0 0 0 0 0 0 0 1 2 3 3 3 2 2 2 2 4 7 8 9 10 10 10 11 11 9 6 3 2
0 0 0 0 0 1 3 4 4 5 6 4 3 3 2 1 1 0 0 0 0 0 0 0 0 0 1 2 2 2 3 3 2 2 2 2 2 3 5 5 6 7 9 11 10 8 5 2 1
0 0 1 1 1 2 4 5 5 5 4 3 2 2 3 2 2 1 1 1 0 0 0 0 0 0 0 1 1 1 1 2 2 2 2 2 2 1 2 2 2 5 8 10 9 7 4 2 1
0 0 0 1 1 2 3 4 5 5 3 1 1 3 3 3 3 2 2 1 0 0 0 0 0 0 0 0 0 0 0 0 0 0 0 1 1 0 1 1 1 2 6 8 8 7 6 4 2
0 0 0 0 1 1 1 1 3 4 3 1 2 3 3 2 2 2 1 1 0 0 0 0 0 0 0 0 0 0 0 0 0 0 0 0 0 0 0 1 1 1 3 5 5 5 5 5 4
0 0 0 0 0 0 0 0 1 2 2 2 3 4 3 2 1 1 0 0 0 0 0 0 0 0 0 0 0 0 0 0 0 0 0 0 0 0 0 1 2 1 2 3 2 2 3 4 4
0 0 0 0 0 0 0 0 0 1 2 2 4 5 3 2 1 0 0 0 0 0 0 0 0 0 0 0 0 0 0 0 0 0 0 0 0 0 0 1 1 1 1 1 0 0 1 2 3
0 0 0 0 0 0 0 0 0 0 1 2 4 4 3 2 1 0 0 0 0 0 0 0 0 0 0 0 0 0 0 0 0 0 0 0 0 0 0 0 0 0 0 0 0 0 0 1 2
0 0 0 0 0 0 0 0 0 0 0 1 2 3 3 2 1 1 1 0 0 0 0 0 0 0 0 0 0 0 0 0 0 0 0 0 0 0 0 0 0 0 0 0 0 0 0 0 1
0 0 0 0 0 0 0 0 0 0 1 2 2 3 3 3 2 2 1 0 0 0 0 0 0 0 0 0 0 0 0 0 0 0 0 0 0 0 0 0 0 0 0 0 0 0 0 0 1
0 0 0 0 0 0 0 0 0 1 2 3 3 3 3 2 2 2 1 0 0 0 0 0 0 0 0 0 0 0 0 0 0 0 0 0 0 0 0 0 0 0 0 0 0 0 0 0 1
0 0 0 0 0 0 0 0 0 1 2 3 3 3 2 1 1 1 0 0 0 0 0 0 0 0 0 0 0 0 0 0 0 0 0 0 0 0 0 0 0 0 0 0 0 0 0 0 1
0 0 0 0 0 0 0 0 0 0 1 3 3 3 1 0 0 0 0 0 0 0 0 0 0 0 0 0 0 0 0 0 0 0 0 0 0 0 0 0 0 0 0 0 0 0 0 0 0

GEFSSGP_con_probscp_120.txt.gz
Probability
0 0 0 0 0 0 0 0 0 0 0 0 1 2 4 5 3 1 1 0 1 2 3 2 1 2 3 6 9 10 7 6 7 6 3 1 0 0 0 0 0 0 0 0 0 0 0 0 0
0 0 0 0 0 0 0 0 0 0 0 1 3 5 5 5 3 1 2 2 2 2 2 2 2 3 4 7 12 15 14 12 12 10 6 4 2 1 0 0 0 0 0 0 0 0 0 0 0
0 0 0 0 0 0 0 0 0 0 1 2 4 6 6 4 2 3 5 5 5 6 5 4 4 5 7 10 16 23 24 22 19 15 10 8 6 3 0 0 0 0 0 0 0 0 0 0 0
0 0 0 0 0 0 0 0 0 1 2 3 5 6 6 5 4 6 9 8 8 11 11 9 8 8 9 11 18 26 30 30 26 20 15 13 11 6 2 1 1 0 0 0 0 0 0 0 0
0 0 0 0 0 0 0 0 0 1 2 5 7 8 7 6 7 12 13 11 10 14 15 13 12 10 9 11 17 24 31 35 32 26 20 17 14 9 5 3 2 1 1 0 0 0 0 0 0
0 0 0 0 0 0 0 0 0 0 2 5 8 9 9 9 13 16 18 16 14 15 15 14 10 8 8 11 16 23 31 36 35 29 23 18 14 10 8 6 4 2 1 0 0 0 0 0 0
0 0 0 0 0 0 0 0 1 1 2 4 8 10 11 13 16 18 21 22 19 18 17 13 10 8 10 12 16 23 29 32 32 29 24 18 13 10 8 7 6 3 1 0 0 0 0 0 0
0 0 0 0 0 0 0 1 2 4 5 7 10 12 14 16 18 21 24 25 24 21 19 15 13 13 14 14 18 22 26 26 25 23 21 17 11 8 6 6 5 3 0 0 0 1 1 1 0
0 0 0 0 0 0 0 1 3 5 7 12 16 20 22 23 24 27 29 28 26 22 19 17 17 17 16 17 20 22 23 21 17 15 14 11 7 5 4 5 5 2 0 0 1 1 1 1 1
0 0 0 0 0 0 0 1 4 6 9 14 21 29 33 32 31 32 31 28 24 20 19 19 18 17 17 20 24 22 19 15 11 9 8 5 4 3 4 7 6 3 1 1 1 1 1 1 0
0 0 0 0 0 0 1 3 7 11 12 15 23 31 34 33 32 30 28 25 20 16 17 19 17 16 19 24 26 24 20 17 13 10 8 6 6 5 5 6 6 4 4 4 3 1 0 0 0
0 0 0 0 0 1 3 7 12 16 17 18 23 27 29 29 28 26 23 20 16 15 16 18 19 20 23 28 30 29 27 25 22 18 12 9 10 9 7 8 7 5 6 7 6 3 1 0 0
0 0 0 0 0 2 5 8 13 16 17 18 20 23 25 24 23 20 18 16 14 15 16 19 22 25 27 32 34 31 30 30 28 23 16 13 15 14 12 13 11 6 6 9 10 7 5 3 2
0 0 0 0 1 2 4 7 11 13 15 16 18 18 18 18 18 17 16 15 14 16 18 19 24 28 31 35 35 31 30 33 29 22 19 19 21 19 16 16 14 10 8 11 13 11 8 5 3
0 0 0 1 1 2 3 4 6 9 12 13 13 13 12 12 13 13 14 14 14 16 17 18 21 26 31 33 30 27 29 32 29 23 21 21 20 20 18 17 16 15 15 17 19 16 12 8 5
0 0 0 1 2 2 1 2 3 5 9 9 8 9 9 9 9 9 10 10 11 13 16 18 18 20 24 26 25 24 26 30 30 27 23 18 17 19 22 20 19 20 21 24 26 25 22 17 12
0 0 0 1 1 1 1 1 2 4 6 7 6 7 7 7 5 5 7 8 9 10 13 15 14 12 14 17 18 21 25 28 30 28 24 21 20 21 23 25 24 22 24 28 30 31 32 28 23
0 0 0 0 0 0 1 2 3 3 4 5 5 6 5 4 4 5 7 9 8 7 8 8 6 6 8 11 13 16 21 24 25 25 23 24 23 21 20 22 22 23 26 29 30 32 34 32 29
0 0 0 0 0 0 1 2 2 2 2 2 3 4 4 4 4 5 7 7 6 5 4 2 1 2 6 9 10 11 15 18 20 21 20 20 20 18 16 16 17 22 26 27 27 28 29 27 25
0 0 0 0 0 0 0 1 1 1 1 1 2 3 4 5 4 5 6 5 3 3 3 1 1 1 4 6 7 9 11 13 15 16 16 14 14 14 14 16 17 19 22 23 22 23 23 21 19
0 0 0 0 0 0 0 0 0 0 1 1 3 5 6 6 5 5 5 3 2 1 1 0 0 0 1 2 4 7 9 11 12 13 12 11 10 11 13 15 17 17 18 19 18 18 19 18 17
0 0 0 0 0 0 0 0 0 1 1 1 4 7 9 9 7 5 4 3 2 1 0 0 0 0 0 0 2 5 6 7 9 9 9 8 8 8 9 10 12 14 15 15 15 15 17 18 18
0 0 0 0 0 0 0 0 0 1 1 2 4 10 14 12 9 7 6 5 3 2 1 0 0 0 0 0 0 2 3 3 4 5 6 5 5 5 6 7 9 11 11 12 11 12 15 17 17
0 0 0 0 0 0 0 0 0 1 2 4 7 14 17 15 13 10 8 6 4 2 1 0 0 0 0 0 0 0 1 1 1 1 2 2 2 3 3 5 7 9 9 9 8 10 12 13 13
0 0 0 0 0 0 0 0 0 1 2 6 12 17 17 16 14 12 8 5 3 2 1 0 0 0 0 0 0 0 0 0 0 0 0 0 0 1 1 2 4 5 6 6 6 7 8 8 9
0 0 0 0 0 0 0 0 0 0 2 7 13 16 15 15 13 10 8 5 3 2 2 1 0 0 0 0 0 0 0 0 0 0 0 0 0 0 0 1 1 2 3 4 4 4 4 4 4
0 0 0 0 0 0 0 0 0 0 2 6 10 13 14 12 9 7 7 6 4 3 2 1 0 0 0 0 0 0 0 0 0 0 0 0 0 0 0 0 0 0 1 1 1 1 1 1 1
0 0 0 0 0 0 0 0 0 1 1 3 7 10 11 10 7 7 7 7 4 2 1 0 0 0 0 0 0 0 0 0 0 0 0 0 0 0 0 0 0 0 0 0 0 0 0 0 0
0 0 0 0 0 0 0 0 0 0 1 2 4 7 8 8 7 6 5 4 3 1 0 0 0 0 0 0 0 0 0 0 0 0 0 0 0 0 0 0 0 0 0 0 0 0 0 0 0
0 0 0 0 0 0 0 0 0 0 1 2 4 5 6 7 6 4 2 2 2 1 0 0 0 0 0 0 0 0 0 0 0 0 0 0 0 0 0 0 0 0 0 0 0 0 0 0 0

GEFSSGP_con_probscp_126.txt.gz
Probability
0 0 0 0 0 0 0 0 0 0 1 3 6 10 15 18 15 10 9 17 24 19 14 16 17 11 4 1 0 1 0 0 1 0 0 0 0 0 0 0 0 0 0 0 0 0 0 0 0
0 0 0 0 0 0 0 1 1 1 1 4 10 15 19 19 15 11 13 19 21 17 16 20 21 15 8 3 2 1 1 1 1 1 1 1 1 0 0 0 0 0 0 0 0 0 0 0 0
0 0 0 0 0 0 1 2 3 3 3 7 16 24 24 18 14 13 15 18 18 20 25 29 29 24 16 9 5 3 1 1 2 2 2 2 2 1 0 0 0 0 0 0 0 0 0 0 0
0 0 0 0 0 0 1 2 4 4 6 11 21 29 27 20 15 14 16 17 20 25 29 32 36 34 25 16 10 6 4 2 1 1 2 3 2 1 0 0 0 0 0 0 0 0 0 0 0
0 0 0 0 0 0 0 2 4 6 9 15 24 31 30 23 17 17 19 20 24 27 26 29 37 38 31 24 18 14 11 7 3 2 3 3 4 3 1 0 0 0 0 0 0 0 0 0 0
0 0 0 0 0 0 1 2 4 7 11 17 25 31 29 21 17 20 23 26 29 28 25 27 31 32 31 29 26 24 21 18 13 9 8 7 6 5 2 1 0 0 0 0 0 0 0 0 0
0 0 0 0 0 1 2 3 4 7 12 17 23 26 24 18 18 23 27 31 35 33 28 26 26 25 25 28 30 29 28 28 25 19 14 11 9 6 4 2 1 0 0 0 0 0 0 0 0
0 0 0 0 0 1 3 5 7 11 18 24 27 28 24 20 22 27 33 37 42 41 34 29 25 22 20 24 29 30 31 32 29 23 16 12 9 7 5 4 2 1 0 0 0 0 0 0 0
0 0 0 0 0 1 3 6 9 16 28 36 39 36 29 24 25 31 38 44 47 46 39 32 28 23 19 22 28 29 29 30 26 19 14 10 8 7 7 10 10 5 1 1 1 0 0 0 0
0 0 0 1 1 1 2 4 8 15 28 39 42 38 31 26 27 32 41 48 48 46 40 36 33 27 25 28 31 28 26 27 22 15 11 8 8 9 13 19 19 11 4 2 2 1 0 0 0
0 0 0 1 1 1 3 5 10 18 27 34 37 34 30 30 32 36 42 46 45 42 39 37 36 34 36 40 36 30 29 28 24 18 14 10 11 15 22 25 21 13 6 4 4 2 0 0 0
0 0 0 1 1 2 6 11 19 27 32 34 34 32 30 32 36 41 44 44 42 39 36 36 38 39 45 48 42 36 36 34 32 31 27 22 22 24 29 30 25 16 9 7 6 3 0 0 0
0 0 0 0 1 5 11 19 26 31 34 36 34 32 31 33 37 40 42 42 39 36 36 38 40 43 49 52 47 42 41 39 40 43 41 38 35 35 38 39 34 24 16 12 8 4 3 3 2
0 0 0 1 2 6 13 21 26 27 28 31 32 33 36 40 42 42 43 43 40 38 38 40 40 43 49 51 48 46 46 45 45 47 46 45 44 42 46 47 40 30 24 20 15 10 9 8 6
0 0 0 1 2 4 8 14 21 24 23 25 30 35 41 47 49 48 46 44 43 41 40 39 38 41 45 44 41 42 45 45 45 45 45 44 42 42 46 47 39 30 28 29 26 22 19 15 12
0 0 0 0 0 1 4 9 16 20 22 24 29 36 42 47 49 48 45 43 43 42 40 38 36 38 40 37 34 34 35 38 40 41 40 38 35 36 38 38 34 30 30 31 31 29 26 21 17
0 0 0 0 0 0 3 9 15 19 22 24 29 33 39 43 44 41 39 39 39 38 36 34 34 34 35 36 34 31 30 31 33 34 32 30 28 28 29 30 30 29 29 29 28 29 30 27 25
0 0 0 0 0 0 3 9 14 16 18 22 27 31 36 41 40 35 34 35 34 32 31 29 28 29 31 34 35 33 30 28 27 26 24 22 22 23 23 25 28 28 27 25 24 24 28 29 29
0 0 0 1 1 1 4 7 10 12 13 18 26 32 38 42 39 34 32 30 30 29 27 24 20 20 23 27 30 31 29 26 23 20 18 18 18 19 18 19 23 24 21 19 18 18 21 25 27
0 0 0 1 2 2 4 6 6 6 9 14 25 37 45 44 40 36 31 27 25 24 22 17 13 11 14 18 22 24 25 24 19 15 14 14 15 15 13 13 16 17 15 13 13 14 15 19 23
0 0 0 1 1 1 3 4 4 5 7 12 23 39 48 46 43 38 31 25 21 18 15 11 8 6 7 11 15 16 18 18 15 12 11 11 11 11 11 11 12 12 11 11 12 12 11 14 18
0 0 0 0 0 1 2 3 4 8 12 15 22 34 44 47 46 40 30 23 18 14 10 8 7 6 6 8 11 12 12 11 10 9 8 7 6 7 8 9 10 10 9 10 11 11 10 12 13
0 0 0 0 1 0 1 1 4 11 17 20 23 30 40 47 47 42 31 22 16 11 7 6 6 6 7 9 11 10 8 7 6 5 4 3 4 4 5 5 7 8 9 10 11 12 12 12 12
0 0 0 0 0 0 0 1 4 11 17 21 25 30 38 45 47 42 30 21 15 10 6 5 4 5 6 8 8 7 6 4 2 1 1 1 1 2 3 3 5 7 8 9 10 11 12 11 11
0 0 0 0 0 0 0 1 6 11 14 20 25 31 38 44 45 38 27 20 15 10 7 5 3 4 5 6 6 6 4 2 1 0 0 0 0 1 2 2 4 5 6 7 8 9 10 9 8
0 0 0 0 0 0 0 3 8 11 13 19 25 31 37 42 41 33 25 19 15 11 8 5 4 4 3 4 5 5 3 1 0 0 0 0 0 0 0 1 2 2 3 4 5 6 6 5 4
0 0 0 0 0 0 1 3 7 9 14 21 27 31 36 38 36 30 24 19 14 10 7 5 4 3 2 2 3 3 2 0 0 0 0 0 0 0 0 0 0 0 1 1 1 2 2 2 1
0 0 0 0 0 0 0 2 5 8 14 21 27 31 36 36 33 28 23 18 13 9 7 5 3 2 1 0 1 1 0 0 0 0 0 0 0 0 0 0 0 0 0 0 0 0 0 0 0
0 0 0 0 0 0 1 2 5 9 13 18 24 28 32 35 33 26 21 18 13 9 6 4 2 0 0 0 0 0 0 0 0 0 0 0 0 0 0 0 0 0 0 0 0 0 0 0 0
0 0 0 0 0 1 2 3 6 11 14 17 21 24 28 33 32 26 20 17 13 8 5 3 1 0 0 0 0 0 0 0 0 0 0 0 0 0 0 0 0 0 0 0 0 0 0 0 0

GEFSSGP_con_probscp_132.txt.gz
Probability
0 0 0 0 0 0 0 0 0 0 3 13 25 31 29 22 11 4 1 2 7 10 7 5 6 5 2 1 1 1 1 1 1 2 2 1 0 0 0 0 0 0 0 0 0 0 0 0 0
0 0 0 0 0 0 0 0 2 4 9 22 34 38 36 28 17 6 2 5 11 11 7 7 7 5 3 3 2 3 3 2 1 1 1 0 0 0 0 0 0 0 0 0 0 0 0 0 0
0 0 0 0 0 0 0 1 7 14 23 35 43 43 38 30 20 9 4 10 14 11 8 9 10 7 5 4 4 5 5 4 4 3 1 1 0 0 1 1 0 0 0 0 0 0 0 0 0
0 0 0 0 0 0 0 2 11 24 36 44 47 45 38 29 20 14 11 15 16 12 9 12 13 11 9 8 8 8 7 7 7 5 3 2 1 1 2 2 1 0 0 0 0 0 0 0 0
0 0 0 0 0 0 1 5 16 31 42 48 49 45 39 31 25 21 19 19 20 15 12 14 18 18 15 13 13 12 10 9 9 7 4 2 1 1 3 3 2 1 0 0 0 0 0 0 0
0 0 0 0 0 0 4 11 25 39 46 47 46 42 36 31 29 25 22 22 23 20 16 18 21 22 22 20 18 16 13 11 11 10 7 4 3 3 4 5 4 2 1 0 0 0 0 0 0
0 0 0 0 0 1 6 16 32 45 48 42 39 38 34 30 29 26 23 23 25 23 21 21 22 23 25 25 23 20 16 15 16 16 12 8 6 5 6 7 7 5 2 1 1 2 2 1 0
0 0 0 0 0 2 8 20 34 42 40 32 29 32 34 34 35 32 26 25 26 24 22 21 22 22 25 27 29 25 20 19 22 23 19 13 8 6 6 7 8 7 5 3 3 5 4 2 1
0 0 0 0 0 3 11 25 35 38 34 30 29 31 38 44 45 38 30 27 26 23 20 19 19 21 23 27 29 27 21 19 21 22 20 14 9 6 6 6 7 8 8 8 9 9 7 4 2
0 0 0 0 1 4 13 26 34 36 35 34 34 38 45 50 49 41 33 28 25 21 17 15 15 17 19 22 23 21 17 14 14 15 14 10 7 6 5 5 6 9 10 11 12 9 6 4 3
0 0 0 1 3 7 14 23 31 34 32 31 35 42 46 47 45 39 31 26 21 17 13 11 10 11 12 15 15 13 11 10 8 8 7 5 4 5 6 5 7 9 9 9 8 6 4 3 3
0 0 1 3 7 12 18 26 31 31 27 27 34 40 43 42 39 33 27 22 18 16 13 9 7 6 7 9 9 8 8 8 7 6 6 5 3 4 6 6 7 9 8 6 4 2 1 2 1
0 0 1 4 10 16 24 30 33 30 26 29 35 39 41 40 34 27 23 21 19 19 16 10 5 4 5 7 6 5 6 7 7 8 9 7 4 3 5 6 7 7 7 5 3 1 0 0 0
0 0 1 3 9 16 23 28 29 26 26 30 34 36 36 35 29 25 23 20 18 17 16 11 6 4 5 5 5 4 5 6 7 10 11 9 5 3 3 4 3 3 3 3 3 2 1 1 1
0 0 0 2 6 11 18 22 22 21 24 29 33 32 30 28 25 22 20 19 17 16 14 11 7 4 4 4 4 5 6 5 5 6 7 7 6 4 3 2 1 1 1 1 2 2 2 2 1
0 0 0 1 3 6 12 15 15 17 23 28 31 31 26 24 23 21 19 19 18 15 13 11 8 6 6 6 6 8 9 7 5 4 4 6 6 5 3 1 0 0 0 0 1 2 2 2 1
0 0 0 1 2 3 7 9 11 16 22 26 29 29 26 23 22 21 21 20 16 13 11 10 8 8 9 9 9 11 12 12 10 7 5 7 6 5 3 2 0 0 0 0 0 1 2 1 1
0 0 0 0 1 2 4 6 10 16 21 24 26 27 26 24 22 21 19 17 12 10 9 9 8 9 9 9 9 11 11 11 11 8 6 7 6 5 3 1 0 0 0 0 0 0 1 1 0
0 0 0 1 2 3 5 7 11 16 21 23 24 25 24 23 21 18 15 13 11 9 8 8 8 7 6 6 7 6 6 5 4 4 5 5 4 4 3 2 1 1 0 0 0 0 0 0 0
0 0 0 1 2 3 6 8 10 14 19 22 23 23 22 21 18 14 11 10 10 8 6 7 6 4 4 4 4 3 2 1 1 1 1 2 1 2 3 4 3 3 2 0 0 0 0 0 0
0 0 1 1 1 1 3 4 6 8 13 19 21 22 22 20 17 13 9 7 7 6 5 5 4 2 2 2 2 2 1 1 0 0 0 0 0 0 2 3 4 4 3 1 0 0 0 0 0
0 0 1 1 0 0 0 1 2 3 7 14 17 19 21 20 17 13 9 6 5 4 4 4 3 1 0 1 1 1 0 0 0 0 0 0 0 0 1 2 3 3 2 1 0 0 0 0 0
0 0 1 1 0 0 0 0 0 2 5 9 11 14 18 19 16 12 9 6 4 4 4 4 3 1 0 0 0 0 0 0 0 0 0 0 0 0 0 1 2 1 1 0 0 0 0 0 0
0 0 0 0 0 0 0 0 0 1 5 8 9 10 14 18 16 11 8 5 3 4 5 5 3 1 0 0 0 0 0 0 0 0 0 0 0 0 0 0 0 0 0 0 0 0 0 0 0
0 0 0 0 0 0 0 0 0 2 6 10 10 11 13 15 14 10 5 2 2 4 5 5 3 1 0 0 0 0 0 0 0 0 0 0 0 0 0 0 0 0 0 0 0 0 0 0 0
0 0 0 0 0 0 0 0 1 3 7 11 11 10 11 11 11 8 3 1 2 3 3 3 1 1 0 0 0 0 0 0 0 0 0 0 0 0 0 0 0 0 0 0 0 0 0 0 0
0 0 0 0 0 0 0 0 1 3 5 8 8 9 9 7 5 4 2 1 1 1 1 1 0 0 0 0 0 0 0 0 0 0 0 0 0 0 0 0 0 0 0 0 0 0 0 0 0
0 0 0 0 0 0 0 0 0 1 2 3 5 8 8 4 2 1 1 0 0 0 0 0 0 0 0 0 0 0 0 0 0 0 0 0 0 0 0 0 0 0 0 0 0 0 0 0 0
0 0 0 0 0 0 0 0 0 0 0 1 4 8 7 3 1 0 0 0 0 0 0 0 0 0 0 0 0 0 0 0 0 0 0 0 0 0 0 0 0 0 0 0 0 0 0 0 0
0 0 0 0 0 0 0 0 0 0 0 2 6 9 7 3 0 0 0 0 0 0 0 0 0 0 0 0 0 0 0 0 0 0 0 0 0 0 0 0 0 0 0 0 0 0 0 0 0

GEFSSGP_con_probscp_138.txt.gz
Probability
0 0 0 0 0 0 0 0 0 0 0 1 1 0 1 2 1 0 0 0 0 1 1 0 1 3 4 4 4 2 2 4 7 9 9 8 5 2 1 0 0 0 0 0 0 0 0 0 0
0 0 0 0 0 0 0 0 1 1 1 1 1 0 1 2 2 1 0 0 1 2 2 1 2 4 5 5 4 2 2 3 6 8 9 6 4 2 0 0 0 0 0 0 0 0 0 0 0
0 0 0 0 0 0 0 0 2 2 1 1 1 1 1 3 4 3 2 2 3 4 3 2 4 5 6 6 4 2 2 3 6 7 7 5 3 2 2 1 0 0 0 0 0 0 0 0 0
0 0 0 0 0 0 0 0 2 3 2 1 2 4 5 7 6 5 5 5 6 6 5 4 5 6 6 6 4 3 3 5 6 7 7 6 5 5 4 2 0 0 0 0 0 0 0 0 0
0 0 0 0 0 0 0 0 2 4 5 5 6 9 12 13 11 9 9 8 9 9 7 5 5 6 7 7 6 5 6 7 7 8 8 8 7 8 7 4 1 0 0 1 0 0 0 0 0
0 0 0 0 0 1 1 0 2 6 8 8 11 16 19 17 15 14 11 10 11 13 11 6 5 6 8 11 11 9 10 10 9 9 10 10 9 9 8 6 2 0 1 1 1 0 0 0 0
0 0 0 0 1 2 1 1 3 7 9 9 13 20 23 20 18 16 13 12 13 14 13 8 6 7 10 13 14 13 13 13 12 12 11 10 9 7 7 6 4 1 1 2 2 2 1 1 1
0 0 0 0 1 1 2 3 7 9 10 9 11 17 23 25 24 21 18 17 16 15 13 11 9 10 11 12 13 14 14 16 16 15 12 10 8 6 5 7 6 3 1 2 4 5 5 5 5
0 0 0 0 0 1 3 8 11 10 10 11 13 21 30 34 32 29 27 23 20 17 14 13 13 12 11 11 11 11 12 15 16 14 12 11 8 6 7 10 10 7 4 3 5 6 7 7 7
0 0 0 0 0 1 6 12 12 11 12 14 21 34 43 39 31 28 27 24 21 19 15 14 14 12 11 11 9 8 9 10 11 11 10 9 7 7 8 11 13 12 9 7 7 6 6 6 7
0 0 1 1 1 3 9 12 13 12 12 15 27 43 47 36 25 21 22 21 20 19 15 13 12 11 11 9 8 8 7 6 7 8 9 8 7 7 7 9 11 13 12 10 9 8 7 7 7
0 1 2 3 5 9 13 16 16 14 13 19 33 44 42 31 23 21 20 19 18 17 14 10 9 10 10 9 9 9 8 5 5 7 8 8 8 7 7 6 8 11 11 10 9 8 8 8 8
1 1 3 5 9 15 19 20 18 15 18 29 40 40 35 29 25 23 21 18 16 13 10 9 8 7 8 8 8 8 7 6 5 6 7 8 8 8 8 6 6 9 11 9 7 6 6 7 7
0 1 2 4 8 14 19 20 16 15 21 33 39 35 29 27 24 21 18 16 12 9 8 7 6 5 5 6 6 5 4 4 5 5 6 5 4 6 6 5 5 7 9 9 6 5 5 4 4
0 0 0 2 5 8 14 17 15 15 22 30 31 28 25 24 22 18 13 11 9 7 7 6 5 3 3 3 3 2 1 1 3 3 3 2 1 2 3 2 2 4 5 6 5 5 5 3 2
0 0 0 1 2 4 8 11 12 15 23 27 25 23 23 21 19 15 11 7 6 6 6 5 4 2 1 1 1 1 0 0 1 1 1 0 0 0 0 0 0 1 2 3 3 4 4 3 2
0 0 0 0 0 1 2 5 9 14 20 24 22 20 21 19 15 12 9 6 5 4 4 4 3 1 0 0 0 0 0 0 0 0 0 0 0 0 0 0 0 0 1 1 1 2 2 1 1
0 0 0 0 0 0 0 3 8 12 16 21 20 18 19 17 13 11 10 7 5 3 3 3 2 1 0 0 1 1 1 0 0 0 0 0 0 0 0 1 1 1 1 1 0 0 0 0 0
0 0 0 0 0 0 0 3 7 10 14 18 18 17 16 17 16 14 12 7 5 4 3 3 3 1 1 1 2 2 1 0 0 0 0 0 0 0 0 1 1 1 1 2 1 1 1 0 0
0 0 0 0 0 1 1 3 6 9 12 14 16 15 16 18 20 18 12 5 3 3 3 3 2 2 2 2 2 2 1 0 0 0 0 0 0 0 0 0 0 0 1 2 2 3 2 1 0
0 0 0 0 0 1 2 3 5 7 9 11 13 14 14 16 18 16 10 4 2 2 2 2 2 3 2 1 1 1 0 0 0 0 0 0 0 0 0 0 0 0 0 1 2 3 3 2 0
0 0 0 0 0 1 1 1 3 4 5 7 9 11 11 12 11 10 9 6 2 1 2 1 1 2 1 0 0 0 0 0 0 0 0 0 0 0 0 0 0 0 0 0 1 2 3 2 1
0 0 0 0 0 0 0 0 1 1 2 3 6 9 9 8 7 7 8 5 2 1 1 1 1 1 0 0 0 0 0 0 0 0 0 0 0 0 0 0 0 0 0 0 0 1 3 3 2
0 0 0 0 0 0 0 0 0 0 1 1 4 8 8 5 5 6 6 3 0 0 0 0 0 0 0 0 0 0 0 0 0 0 0 0 0 0 0 0 0 0 0 0 0 1 2 2 1
0 0 0 0 0 0 0 0 0 0 0 1 4 8 7 5 4 5 4 1 0 0 0 0 0 0 0 0 0 0 0 0 0 0 0 0 0 0 0 0 0 0 0 0 0 0 1 1 0
0 0 0 0 0 0 0 0 0 0 0 1 5 8 8 6 4 3 2 0 0 0 0 0 0 0 0 0 0 0 0 0 0 0 0 0 0 0 0 0 0 0 0 0 0 0 0 0 0
0 0 0 0 0 0 0 0 0 0 0 1 5 10 10 7 4 2 1 0 0 0 0 0 0 0 0 0 0 0 0 0 0 0 0 0 0 0 0 0 0 0 0 0 0 0 0 0 0
0 0 0 0 0 0 0 0 0 0 0 1 5 9 11 8 4 1 0 0 0 0 0 0 0 0 0 0 0 0 0 0 0 0 0 0 0 0 0 0 0 0 0 0 0 0 0 0 0
0 0 0 0 0 0 0 0 0 0 0 1 3 6 9 8 5 1 0 0 0 0 0 0 0 0 0 0 0 0 0 0 0 0 0 0 0 0 0 0 0 0 0 0 0 0 0 0 0
0 0 0 0 0 0 0 0 0 0 0 0 1 3 6 7 5 2 0 0 0 0 0 0 0 0 0 0 0 0 0 0 0 0 0 0 0 0 0 0 0 0 0 0 0 0 0 0 0

GEFSSGP_con_probscp_144.txt.gz
Probability
0 0 0 0 0 0 0 0 0 0 0 0 0 0 0 0 0 0 1 2 3 3 2 1 0 1 1 2 5 8 9 7 6 6 6 7 6 3 1 0 0 0 0 0 0 0 0 0 0
0 0 0 0 0 0 0 0 0 0 0 0 0 0 0 0 0 0 1 3 3 3 2 1 1 2 2 3 6 8 8 7 6 5 5 6 5 3 1 0 0 0 0 0 0 0 0 0 0
0 0 0 0 0 0 0 0 0 0 0 0 0 0 0 1 1 1 3 4 4 3 3 2 3 3 3 4 6 8 8 7 7 5 4 4 4 3 2 1 0 0 0 0 0 0 0 0 0
0 0 0 0 0 0 1 1 0 0 0 0 0 0 1 2 3 3 4 5 5 4 3 3 3 3 4 5 7 9 9 9 7 4 2 2 3 3 2 1 0 0 0 0 0 0 0 0 0
0 0 0 0 0 1 2 2 1 1 1 0 0 1 3 5 6 7 6 5 5 4 4 3 3 3 3 4 6 8 9 9 7 5 3 2 3 3 1 0 0 0 0 0 0 0 0 0 0
0 0 0 0 1 2 4 3 2 2 3 1 0 2 8 13 15 13 10 7 5 5 4 4 3 4 4 4 5 6 7 8 9 8 5 3 2 2 1 0 0 0 0 0 0 0 0 0 0
0 0 0 0 1 3 5 6 5 4 4 2 1 3 13 26 27 22 18 13 8 5 4 4 4 4 4 3 4 6 9 11 13 11 7 4 2 1 0 1 1 0 0 0 0 0 0 0 0
0 0 0 0 1 3 6 8 7 5 5 4 4 9 24 39 42 34 27 20 12 8 7 5 5 6 5 3 5 9 12 15 14 11 7 5 2 1 1 3 5 3 1 0 1 1 0 0 0
0 0 0 1 2 3 5 7 8 6 5 7 11 22 41 55 55 45 35 25 17 12 10 8 7 7 5 4 8 11 13 14 11 8 7 6 4 3 5 9 11 8 4 3 3 2 1 1 1
0 0 0 1 2 4 6 8 7 5 5 10 20 36 54 64 60 48 36 27 20 15 12 10 9 9 7 7 10 12 13 12 8 6 8 7 7 6 8 14 15 11 7 5 5 4 1 1 1
1 1 1 1 3 5 8 10 9 7 7 11 23 43 58 61 52 40 31 25 20 15 12 12 13 14 12 12 13 13 14 13 10 9 10 10 9 8 10 13 13 11 9 9 8 6 2 1 3
1 1 1 1 4 6 9 12 13 13 13 15 26 44 55 52 41 30 23 20 17 15 13 14 17 19 18 17 16 14 14 13 12 11 11 10 10 10 11 12 12 12 13 16 16 11 6 5 7
0 1 1 2 4 7 10 14 17 17 16 20 31 41 44 41 33 23 18 16 15 15 14 14 18 21 21 20 18 16 14 12 11 10 10 9 9 11 13 15 15 16 20 23 23 18 15 13 12
0 1 1 2 4 7 10 13 17 18 18 21 29 34 35 34 29 23 19 16 16 17 15 16 20 23 22 20 21 19 15 12 9 7 7 7 8 10 15 18 18 18 21 24 24 24 24 21 18
0 1 1 2 3 5 7 11 17 20 20 20 24 29 33 31 27 25 23 20 19 20 21 20 21 22 20 19 21 20 16 11 8 7 5 5 5 8 13 17 17 16 18 21 25 27 28 26 24
0 0 1 2 3 3 4 8 16 20 20 19 22 29 34 33 29 26 24 23 23 26 28 25 21 20 19 18 20 19 16 13 10 9 6 3 3 5 10 14 16 16 17 19 22 26 29 28 26
0 0 0 1 2 2 2 6 13 16 15 16 20 27 34 36 32 27 24 24 26 29 30 26 23 23 21 20 20 21 20 18 13 10 6 3 3 5 8 12 16 18 18 17 18 23 27 27 25
0 0 0 0 1 1 1 4 9 12 13 15 18 25 34 38 33 27 25 27 28 29 30 27 27 28 25 22 22 22 22 19 15 10 7 5 5 6 8 12 15 16 15 13 13 17 21 22 21
0 0 0 0 0 0 1 2 5 8 12 16 20 27 34 36 31 25 25 26 27 29 29 28 29 30 27 24 23 21 19 16 14 12 10 8 7 8 10 13 15 14 12 10 9 11 14 16 16
0 0 0 0 0 0 0 1 3 6 9 13 20 26 30 31 27 22 22 23 24 25 26 27 28 27 24 21 19 17 16 15 14 13 12 10 9 9 11 12 14 12 10 9 8 8 9 10 11
0 0 0 0 0 0 0 1 2 3 5 10 16 22 25 26 23 19 19 20 22 24 26 28 28 25 20 16 13 12 14 15 14 13 12 9 8 7 8 9 9 8 8 8 7 6 7 9 11
0 0 0 0 0 0 0 0 1 2 5 8 13 18 22 24 21 19 17 17 20 25 29 31 28 22 18 14 10 9 12 14 13 11 9 7 5 4 4 6 5 5 5 5 4 3 5 9 11
0 0 0 0 0 0 0 0 1 3 5 8 11 16 20 22 22 21 19 16 18 24 31 32 26 19 16 13 10 10 12 12 11 9 8 6 4 1 1 3 3 2 2 1 1 1 4 6 7
0 0 0 0 0 0 0 0 1 2 3 5 7 10 14 18 20 19 17 17 18 22 27 27 20 16 14 11 9 9 11 11 9 8 7 5 3 1 0 1 1 1 0 0 0 0 1 2 3
0 0 0 0 0 0 0 1 2 2 2 2 3 6 10 14 16 14 14 16 17 19 21 19 15 12 9 8 7 6 6 7 7 8 7 5 2 0 0 0 0 0 0 0 0 0 0 0 1
0 0 0 0 0 0 0 2 4 3 1 0 1 4 8 11 12 12 13 15 16 15 13 12 10 8 6 5 4 2 2 3 4 5 5 5 2 1 0 0 0 0 0 0 0 0 0 0 0
0 0 0 0 0 0 1 3 4 3 1 0 0 3 7 9 8 10 13 15 15 11 8 7 6 5 4 4 2 1 1 2 2 2 3 3 2 1 0 0 0 0 0 0 0 0 0 0 0
0 0 0 0 0 0 0 2 4 3 1 0 0 3 6 7 7 8 12 14 13 9 5 4 4 4 4 3 3 1 1 1 1 1 1 1 1 0 0 0 0 0 0 0 0 0 0 0 0
0 0 0 0 0 0 0 1 3 3 1 1 1 3 6 7 7 9 12 12 10 7 5 3 2 3 2 2 3 2 1 0 1 1 2 1 0 0 0 0 0 0 0 0 0 0 0 0 0
0 0 0 0 0 0 0 1 1 1 1 1 2 3 6 7 8 11 13 11 8 6 5 3 2 2 1 1 2 2 1 0 0 1 2 1 0 0 0 0 0 0 0 0 0 0 0 0 0

GEFSSGP_con_probscp_150.txt.gz
Probability
0 0 0 0 0 0 0 0 0 1 1 1 2 6 9 8 7 6 8 13 18 15 10 9 9 7 4 3 1 0 0 1 2 3 2 1 0 0 0 0 0 0 0 0 0 0 0 0 0
0 0 0 0 0 0 0 0 1 2 2 2 4 8 9 8 7 7 9 12 15 13 10 10 11 10 7 4 2 1 1 2 3 4 3 1 0 0 0 0 0 0 0 0 0 0 0 0 0
0 0 0 0 0 0 0 0 2 3 3 4 8 11 11 8 7 8 9 10 11 12 12 13 15 15 11 8 5 2 1 3 5 5 3 1 0 0 0 0 0 0 0 0 0 0 0 0 0
0 0 0 0 0 0 0 0 1 2 3 7 13 17 15 10 7 7 8 9 11 14 15 15 17 18 15 12 9 6 2 2 4 5 4 3 1 0 0 0 0 0 0 0 0 0 0 0 0
0 0 0 0 0 0 0 0 0 2 6 13 21 24 20 13 8 7 7 9 14 19 18 16 19 19 17 13 11 8 3 1 3 5 5 4 3 1 0 0 0 0 0 0 0 0 0 0 0
0 0 0 0 0 0 0 0 0 4 11 19 27 30 24 15 10 9 9 11 17 21 19 16 16 16 15 13 11 10 6 3 4 6 5 4 3 2 1 0 0 1 1 0 0 0 0 0 0
0 0 0 0 0 0 0 1 4 9 15 21 26 28 25 18 14 12 12 13 17 21 18 12 9 9 10 10 10 10 8 7 6 6 5 4 2 2 2 1 2 2 2 1 0 0 0 0 0
0 0 0 0 0 0 1 5 10 15 20 22 25 28 28 24 19 17 16 17 20 20 16 9 6 6 6 6 8 9 9 8 7 5 4 4 3 3 3 3 4 4 4 3 2 2 1 1 1
0 0 0 0 0 1 3 9 14 17 21 28 36 39 37 30 24 23 22 24 27 25 19 12 10 8 7 6 8 9 10 9 7 5 5 5 5 4 5 9 12 11 7 6 5 4 4 3 3
0 0 0 1 1 2 5 10 13 15 21 36 50 51 42 32 27 28 29 32 35 33 24 17 15 14 13 13 14 13 12 12 9 8 10 10 7 7 10 20 27 20 11 8 8 9 8 6 5
0 0 1 2 3 4 7 11 15 18 26 40 51 52 42 32 31 34 37 39 41 37 29 23 22 25 27 25 23 20 20 20 16 15 18 17 13 14 20 31 34 26 16 13 13 13 12 9 7
0 0 1 2 4 6 8 14 21 26 33 40 47 47 42 38 40 44 45 45 45 42 37 34 36 42 45 41 35 31 30 28 26 27 28 27 25 26 31 37 38 31 24 24 23 21 18 15 13
0 0 0 2 5 7 9 15 23 28 34 41 44 44 42 42 47 52 54 52 49 46 46 48 52 56 58 56 48 41 39 37 37 39 38 36 37 38 40 44 44 39 35 35 35 31 29 28 26
0 0 0 2 4 6 8 12 17 21 28 35 38 40 39 41 47 56 60 59 54 51 54 58 60 61 61 59 53 45 43 44 43 45 42 40 42 44 44 47 48 44 40 38 37 36 38 39 37
0 0 0 1 2 3 4 8 11 15 20 25 29 33 36 38 45 55 63 62 57 56 59 60 59 58 57 54 49 42 41 41 42 43 42 37 37 38 38 40 43 41 37 35 35 38 42 42 40
0 0 0 0 1 1 2 5 9 12 15 19 23 30 37 40 44 52 61 63 61 61 62 59 53 52 52 49 45 40 37 38 38 40 39 33 27 27 29 30 34 35 33 33 36 39 43 41 38
0 0 0 0 0 0 1 5 9 11 14 17 23 32 41 44 45 50 59 64 63 62 62 58 53 52 51 48 46 42 39 38 39 39 37 31 24 21 21 23 27 28 30 34 34 35 37 36 34
0 0 0 1 0 0 0 5 10 11 12 16 24 35 41 43 45 51 59 62 62 61 61 59 57 55 53 49 47 44 40 38 38 36 33 30 25 20 17 19 22 22 27 31 30 27 27 27 27
0 0 0 0 0 0 1 4 9 11 11 15 23 32 37 41 47 54 57 57 58 59 59 59 58 56 53 50 47 44 41 38 36 33 30 26 23 18 16 17 19 20 23 26 25 21 19 18 19
0 0 0 0 0 0 1 3 8 13 14 16 22 30 36 42 50 55 56 55 54 54 54 54 54 53 53 51 48 45 41 38 36 33 30 25 20 15 14 15 17 19 20 21 21 19 15 12 11
0 0 0 0 0 0 0 3 9 15 16 17 24 32 38 43 50 55 56 55 53 51 49 48 49 50 51 51 47 40 35 33 32 32 30 25 18 13 11 11 12 12 13 14 16 16 13 8 6
0 0 0 0 0 0 0 3 10 15 15 17 25 32 36 40 47 52 52 51 51 49 47 46 47 49 50 49 42 34 30 28 28 28 27 22 17 11 8 7 6 6 7 6 8 10 8 6 4
0 0 0 0 0 0 0 2 7 12 14 19 24 28 32 35 41 45 44 43 43 44 42 42 45 48 48 45 40 34 30 28 27 24 21 19 15 9 5 3 4 5 5 3 3 4 5 4 3
0 0 0 0 0 0 0 2 6 10 14 19 23 25 28 31 35 38 39 36 34 34 34 36 41 44 42 39 37 33 29 26 24 21 18 17 13 8 4 2 3 4 4 3 2 2 2 1 1
0 0 0 0 0 0 0 3 9 13 16 19 22 23 25 28 31 34 34 32 29 28 29 32 36 37 34 31 30 27 22 20 19 17 15 14 12 9 6 3 3 3 3 1 1 1 0 0 0
0 0 0 0 0 0 1 5 11 14 15 16 18 19 21 25 29 32 32 30 27 26 26 29 31 31 28 26 25 22 17 14 13 11 11 11 10 8 5 3 2 2 2 1 0 0 0 0 0
0 0 0 0 0 0 2 6 8 9 10 12 13 16 20 24 29 32 31 29 27 25 25 26 28 27 25 25 23 19 14 11 10 8 8 8 6 4 2 1 1 1 1 0 0 0 0 0 0
0 0 0 0 0 0 1 3 3 4 6 9 11 16 21 26 28 28 26 25 24 23 23 24 25 25 24 23 21 16 11 9 8 5 3 3 2 1 1 1 0 0 0 0 0 0 0 0 0
0 0 0 0 0 0 0 1 2 4 8 10 13 17 22 25 24 21 20 20 20 20 20 21 22 22 21 20 17 13 9 7 4 2 0 0 0 1 1 1 0 0 0 0 0 0 0 0 0
0 0 0 0 0 0 0 1 3 7 10 12 15 18 22 24 21 17 17 18 17 17 17 18 19 19 18 18 16 12 8 4 2 0 0 0 0 0 1 0 0 0 0 0 0 0 0 0 0

GEFSSGP_con_probscp_156.txt.gz
Probability
0 0 0 0 0 0 0 0 0 0 1 3 8 14 15 11 6 2 2 5 9 10 9 10 11 9 3 2 5 5 4 2 1 0 1 2 2 3 3 3 2 2 2 1 0 0 0 0 0
0 0 0 0 0 0 0 0 0 1 3 9 15 18 17 13 8 4 3 6 11 12 11 11 14 13 8 4 5 5 5 3 2 1 1 2 3 3 4 3 1 1 1 0 0 0 0 0 0
0 0 0 0 0 0 0 0 1 5 11 20 25 24 20 14 8 4 4 8 13 14 12 15 21 22 16 10 8 7 7 5 3 2 2 3 3 4 4 3 1 0 0 0 0 0 0 0 0
0 0 0 0 0 0 0 0 4 12 21 30 33 30 22 14 9 8 8 11 13 13 14 21 29 30 24 18 14 11 10 8 6 3 3 3 3 3 4 3 2 1 1 0 0 0 0 0 0
0 0 0 0 0 0 0 1 8 19 28 33 36 32 23 15 14 15 13 12 12 12 14 23 31 32 28 25 21 16 11 9 8 6 5 3 3 3 3 2 2 2 1 0 0 0 0 0 0
0 0 0 0 0 0 1 4 12 22 29 34 35 30 20 15 16 18 15 12 11 11 13 19 26 29 29 29 25 18 12 8 7 7 6 4 3 3 2 1 1 1 0 0 0 0 0 0 0
0 0 0 0 0 1 3 7 14 21 28 34 36 29 18 12 14 16 16 13 12 12 12 15 19 22 27 29 26 21 15 11 8 7 6 5 3 2 2 0 0 0 0 0 0 0 0 1 1
0 0 0 0 0 1 5 10 14 20 28 36 38 30 20 15 16 20 21 16 13 12 12 13 14 15 20 23 24 22 19 15 12 8 7 6 4 3 2 1 0 0 0 0 0 0 0 2 3
0 0 0 0 0 2 6 11 14 21 31 39 38 31 25 23 22 24 24 18 14 12 11 11 11 10 13 18 21 22 20 18 15 11 9 8 7 5 4 2 1 1 1 1 1 1 1 3 4
0 0 0 1 1 3 7 11 14 21 33 39 38 32 28 27 27 26 24 21 17 13 10 9 9 9 12 16 19 20 19 18 16 14 12 11 9 7 6 4 3 3 3 2 2 2 3 4 5
0 0 1 2 4 5 8 11 13 18 25 31 35 34 30 30 30 29 27 25 21 18 14 12 11 10 11 14 17 18 17 17 17 15 14 12 9 6 6 7 7 6 5 4 4 2 2 3 4
0 0 1 3 5 8 10 13 15 15 18 27 36 35 31 32 34 33 30 28 26 24 21 17 14 11 10 13 16 17 17 16 14 12 11 10 7 4 5 6 7 7 7 6 4 3 2 2 3
0 1 3 4 6 9 12 15 15 15 22 34 40 37 33 33 35 34 32 30 29 28 26 24 20 16 13 14 16 16 15 13 10 7 6 6 5 3 3 4 5 7 7 6 4 3 3 3 3
0 1 4 5 7 9 12 14 14 18 30 42 43 38 36 35 34 33 33 33 33 32 31 30 28 24 19 17 15 13 11 9 6 5 4 4 5 4 3 4 5 6 6 3 1 2 3 3 3
0 1 3 4 5 6 8 9 11 19 32 42 42 39 38 36 33 32 33 34 35 35 34 34 33 29 24 19 14 11 10 8 6 5 6 6 7 7 6 5 6 5 4 2 1 1 3 3 3
0 0 1 3 3 3 3 3 7 17 28 36 38 35 33 32 31 30 30 32 33 34 33 34 33 29 24 19 14 13 13 11 9 7 7 8 9 9 7 5 5 5 4 2 2 2 2 2 2
0 0 1 1 1 0 0 1 7 15 24 30 31 27 25 25 26 27 30 32 32 31 30 30 29 26 23 19 16 16 15 14 11 9 9 9 9 8 5 3 4 5 5 3 2 2 1 1 1
0 0 0 0 0 0 0 3 8 16 23 28 27 23 20 20 22 25 30 34 33 30 28 26 25 22 20 19 18 17 16 14 11 9 10 10 10 8 5 2 3 4 4 3 2 1 0 0 0
0 0 0 0 0 0 0 3 8 16 23 27 27 24 22 21 24 27 30 33 33 29 27 25 23 19 16 17 17 16 14 12 10 10 10 10 10 10 8 4 2 2 3 3 3 1 0 0 0
0 0 0 0 0 0 0 2 6 13 21 25 26 25 23 24 26 28 30 32 31 28 26 25 22 17 13 13 14 13 12 10 9 9 10 9 9 9 7 4 1 1 1 2 2 1 0 0 0
0 0 0 0 0 0 1 1 3 9 17 22 23 22 23 24 26 28 29 30 29 27 25 23 20 16 12 11 11 11 10 9 8 8 8 8 7 6 4 1 0 0 0 1 1 1 0 0 0
0 0 0 0 0 0 0 1 3 7 13 16 18 20 21 22 25 28 29 29 28 26 24 24 21 17 14 12 10 9 9 7 7 7 6 6 5 4 2 0 0 0 0 0 0 0 0 0 0
0 0 0 0 0 0 0 1 3 7 10 12 15 19 22 24 26 29 30 30 28 25 25 26 24 22 17 13 10 9 8 7 6 6 6 5 4 2 1 0 0 0 0 0 0 0 0 0 0
0 0 0 0 0 0 0 1 3 5 8 8 11 16 22 26 28 30 32 30 27 26 25 25 25 23 18 12 10 8 7 6 6 6 6 5 2 1 0 0 0 0 0 0 0 0 0 0 0
0 0 0 0 0 0 0 1 2 3 4 5 7 14 22 27 30 31 31 28 26 24 23 22 22 20 14 11 9 8 7 5 4 4 5 3 1 0 0 0 0 0 0 0 0 0 0 0 0
0 0 0 0 0 0 0 0 1 1 1 1 5 13 21 26 29 30 26 22 20 19 17 17 18 16 13 9 8 7 6 5 4 3 2 1 0 0 0 0 0 0 0 0 0 0 0 0 0
0 0 0 0 0 0 0 0 0 0 1 2 5 12 18 22 24 23 19 14 12 11 11 12 15 15 12 8 6 6 6 5 4 2 1 0 0 0 0 0 0 0 0 0 0 0 0 0 0
0 0 0 0 0 0 0 0 0 1 2 3 5 10 15 18 19 16 11 8 8 7 7 9 12 13 10 6 5 5 4 4 3 1 0 0 0 0 0 0 0 0 0 0 0 0 0 0 0
0 0 0 0 0 0 0 0 0 1 2 4 6 10 14 16 14 10 8 6 6 6 6 7 9 9 7 5 4 4 3 2 1 0 0 0 0 0 0 0 0 0 0 0 0 0 0 0 0
0 0 0 0 0 0 0 0 0 0 2 5 8 11 16 16 12 9 7 6 6 6 6 6 7 6 6 5 4 3 3 1 0 0 0 0 0 0 0 0 0 0 0 0 0 0 0 0 0

GEFSSGP_con_probscp_162.txt.gz
Probability
0 0 0 0 0 0 0 0 0 0 0 1 1 1 1 1 0 0 1 2 4 6 9 12 16 19 18 15 15 15 14 14 17 19 19 19 19 17 15 11 6 2 1 0 0 0 0 0 0
0 0 0 0 0 0 0 0 0 0 0 1 3 3 3 2 2 1 2 3 6 9 12 15 20 25 24 21 19 19 17 15 15 17 18 18 17 15 13 10 7 4 2 0 0 0 0 0 0
0 0 0 0 0 0 0 0 1 2 2 4 6 6 5 4 4 3 4 6 10 12 13 18 27 32 31 28 25 23 22 20 17 17 18 17 15 12 11 10 9 6 2 0 0 0 1 1 1
0 0 0 0 0 0 0 0 2 5 6 8 10 9 7 6 7 7 8 12 15 13 12 19 31 38 36 31 26 25 25 24 21 20 20 18 15 12 11 11 9 6 2 0 0 2 4 3 2
0 0 0 0 0 0 0 1 4 9 11 11 11 11 10 8 9 11 13 17 19 16 14 22 35 42 39 32 26 23 23 23 21 20 19 17 14 12 12 11 9 6 2 0 0 2 5 4 4
0 0 0 0 0 0 0 1 6 12 14 12 12 11 11 10 12 14 15 17 19 19 19 26 36 42 39 32 25 21 19 18 18 17 15 13 12 12 11 9 8 5 2 0 0 1 2 3 3
0 0 0 0 0 0 1 3 8 13 15 14 13 13 12 13 16 18 16 16 19 20 22 27 32 36 35 30 25 22 20 17 16 14 12 12 12 11 9 7 6 4 2 0 0 0 0 1 2
0 0 0 0 0 1 2 5 9 13 16 18 18 16 14 16 21 23 20 18 20 21 21 22 25 27 29 27 25 25 24 21 18 16 14 15 15 12 9 8 8 5 3 2 1 1 1 0 1
0 0 0 0 0 1 2 5 9 14 19 22 22 18 17 21 26 28 24 20 20 20 18 18 20 22 25 25 25 27 27 24 21 19 17 17 16 13 10 10 10 8 6 5 4 3 2 2 2
0 0 0 0 0 1 2 4 10 16 19 20 20 19 23 28 29 28 23 18 17 16 15 16 18 21 23 23 23 24 25 24 20 18 18 17 15 13 10 10 10 10 10 9 8 6 5 7 7
0 0 0 0 1 1 1 3 8 14 15 15 17 22 31 35 31 24 19 13 10 10 12 13 15 17 18 18 19 21 23 22 20 18 18 18 15 13 10 9 9 10 11 11 10 9 10 11 11
0 0 1 1 3 3 3 4 6 10 11 12 18 26 35 37 31 23 16 9 6 6 7 9 11 13 12 11 14 17 20 21 20 18 18 17 14 11 9 8 7 7 8 9 9 8 9 10 11
0 1 2 4 5 7 7 7 7 9 11 15 20 28 35 36 28 20 14 9 6 5 4 5 8 10 9 9 10 13 17 18 17 16 15 14 12 9 8 7 5 4 5 5 6 6 7 8 8
1 2 4 5 6 8 9 9 10 13 18 22 24 29 33 32 24 17 13 10 8 4 1 2 5 7 7 7 8 10 12 14 14 14 13 12 11 10 8 6 5 3 3 3 3 4 5 6 7
1 3 4 5 5 6 7 8 10 15 23 27 27 28 29 26 22 19 15 12 8 3 1 1 2 3 5 5 6 8 9 10 12 12 11 11 11 10 7 5 4 3 1 1 1 2 3 3 4
1 2 3 4 4 4 4 5 8 15 24 29 28 27 24 21 19 19 17 14 9 4 3 2 2 3 4 5 6 7 8 8 9 9 8 8 9 9 6 4 3 2 1 1 2 2 1 1 1
0 1 2 2 2 2 2 3 6 13 22 27 26 24 21 18 16 16 16 15 11 7 7 7 6 6 5 6 7 7 7 6 6 7 7 7 7 7 5 4 3 1 0 1 3 2 1 0 0
0 0 1 1 1 1 0 1 5 12 18 21 21 20 19 16 15 14 13 13 11 10 10 11 11 8 7 6 7 7 6 5 5 6 6 6 5 5 4 3 3 1 1 1 1 1 0 0 0
0 0 0 0 0 0 0 1 4 10 14 16 16 18 17 16 15 14 12 12 13 13 13 14 13 11 8 7 7 7 6 4 4 5 6 5 4 3 3 3 3 3 2 1 0 0 0 0 0
0 0 0 0 0 0 0 1 3 7 13 16 17 16 15 15 15 14 12 13 15 16 16 15 14 12 10 7 6 5 3 2 2 3 4 4 4 4 4 3 3 3 2 1 0 0 0 0 0
0 0 0 0 0 0 0 0 2 5 11 15 15 14 11 12 14 15 13 13 16 18 17 15 14 14 12 9 6 4 2 1 1 2 3 4 4 4 4 4 3 3 1 0 0 0 0 0 0
0 0 0 0 0 0 0 0 2 4 7 9 11 9 6 6 11 15 16 16 18 19 18 16 15 15 14 11 8 5 2 1 1 1 1 2 3 3 3 3 3 3 1 0 0 0 0 0 0
0 0 0 0 0 0 0 0 1 4 6 6 7 6 4 4 9 15 18 19 19 19 18 16 15 14 14 11 8 4 2 1 2 1 0 0 1 1 1 2 2 2 1 0 0 0 0 0 0
0 0 0 0 0 0 0 0 0 2 4 5 4 4 4 6 10 15 18 19 18 17 15 14 12 11 10 8 5 3 1 1 1 1 0 0 0 0 1 1 1 1 1 0 0 0 0 0 0
0 0 0 0 0 0 0 0 0 0 1 2 2 2 3 6 10 13 16 17 16 15 13 10 9 8 7 6 4 2 1 0 0 0 0 0 0 0 1 2 1 0 0 0 0 0 0 0 0
0 0 0 0 0 0 0 0 0 0 0 0 1 1 2 4 8 11 14 16 16 13 10 7 6 6 6 5 3 1 0 0 0 0 1 0 0 0 1 1 1 0 0 0 0 0 0 0 0
0 0 0 0 0 0 0 0 0 0 0 0 1 2 2 4 7 9 13 16 14 11 8 6 4 4 4 3 1 0 0 0 0 0 0 0 0 0 0 0 0 0 0 0 0 0 0 0 0
0 0 0 0 0 0 0 0 0 0 0 0 1 2 3 4 6 8 10 12 11 9 7 6 4 3 3 2 1 0 0 0 0 0 0 0 0 0 0 0 0 0 0 0 0 0 0 0 0
0 0 0 0 0 0 0 0 0 0 0 0 0 1 3 5 7 8 9 10 8 7 6 5 4 3 3 2 0 0 0 0 0 0 0 0 0 0 0 0 0 0 0 0 0 0 0 0 0
0 0 0 0 0 0 0 0 0 0 0 0 0 1 4 6 7 8 9 9 7 6 6 5 4 3 3 2 1 0 0 0 0 0 0 0 0 0 0 0 0 0 0 0 0 0 0 0 0

GEFSSGP_con_probscp_168.txt.gz
Probability
0 0 0 0 0 0 0 0 0 1 2 2 1 0 0 0 0 1 2 2 1 1 3 4 3 2 2 4 8 14 19 23 24 22 21 20 18 15 11 8 6 3 1 0 0 0 0 0 0
0 0 0 0 0 0 0 0 1 2 2 1 0 0 0 0 0 2 4 3 2 2 3 5 4 3 3 6 8 12 18 22 23 21 20 20 19 16 13 11 9 6 4 1 0 0 0 0 0
0 0 0 0 0 0 0 0 1 1 1 1 1 1 1 1 2 5 6 5 3 1 3 7 7 5 6 8 9 10 15 20 22 21 20 20 19 17 14 12 12 10 7 3 2 1 0 0 0
0 0 0 0 0 0 0 0 0 0 1 1 2 4 5 6 6 10 10 7 3 2 5 11 12 10 9 10 10 11 13 17 21 21 20 20 19 18 14 12 12 11 7 4 3 2 1 0 0
0 0 0 0 0 0 0 0 0 0 0 1 4 6 10 12 12 14 15 10 5 4 8 14 15 14 13 13 12 13 14 16 18 19 19 19 19 17 14 11 11 9 6 3 2 2 1 0 1
0 0 0 0 0 0 1 1 1 1 1 3 5 8 12 16 18 19 18 13 8 6 10 14 15 14 15 16 16 17 18 17 16 16 16 17 17 15 11 10 9 8 6 4 3 3 2 1 2
0 0 0 0 0 1 2 3 3 3 4 6 8 10 16 22 26 26 23 19 14 9 9 12 13 13 15 18 20 21 20 18 15 14 14 13 12 10 7 6 7 7 7 6 6 5 4 3 3
0 0 0 0 0 1 3 4 5 7 8 10 12 15 21 30 36 36 33 28 23 18 14 13 13 14 18 21 21 21 21 19 16 13 11 10 7 5 4 5 7 8 8 7 7 6 5 3 3
0 0 0 0 0 1 2 4 6 8 11 13 16 19 25 36 43 43 39 35 32 27 23 20 19 19 20 20 22 21 21 20 18 15 12 9 7 6 5 7 10 11 9 6 5 6 5 3 2
1 0 0 0 0 0 2 4 5 7 9 12 15 21 31 42 47 43 39 37 38 34 29 26 25 24 21 21 22 23 22 22 18 15 15 15 14 10 9 13 15 13 10 7 5 6 6 5 3
1 0 0 0 0 0 1 3 5 5 5 7 12 24 38 48 48 44 40 39 41 38 32 28 27 26 24 22 21 21 23 25 23 20 23 26 23 18 16 18 19 17 14 12 10 10 9 9 8
1 0 0 0 0 0 1 3 5 5 4 5 12 26 40 47 47 44 42 41 39 37 33 31 29 27 26 23 21 22 25 28 29 29 30 32 30 25 20 21 23 22 21 21 19 16 14 13 11
0 0 1 0 0 0 1 3 5 6 5 7 14 25 34 40 42 41 40 40 37 34 33 33 32 31 32 31 29 27 29 30 31 32 32 31 31 27 23 24 24 22 23 23 21 18 16 15 14
0 0 0 0 0 1 1 3 5 5 5 8 14 20 24 29 34 36 37 38 37 33 33 36 37 38 41 41 37 31 28 30 31 30 29 27 27 27 26 22 19 18 18 18 16 15 16 16 16
0 0 0 0 1 1 1 2 4 5 6 9 14 16 18 22 27 31 33 35 35 33 33 35 37 41 43 44 40 31 25 28 31 30 27 24 25 27 26 20 16 14 14 14 12 12 15 17 16
0 0 0 0 1 2 1 2 4 5 7 10 15 16 16 18 21 22 25 28 31 31 33 33 33 38 44 45 40 31 26 29 32 31 27 24 24 26 24 21 18 16 15 14 13 12 14 15 14
0 0 0 0 1 1 1 1 4 6 8 12 15 18 18 18 17 16 17 21 26 29 32 33 34 39 45 45 41 36 32 32 33 32 28 26 25 25 24 22 20 19 18 18 17 16 15 14 13
0 0 0 0 1 0 0 1 3 5 8 11 15 19 21 21 20 17 15 19 24 27 31 35 39 41 43 43 41 39 37 34 33 32 29 26 25 25 25 23 21 21 22 22 20 18 16 15 14
0 0 0 1 1 0 0 0 2 4 7 11 15 19 22 24 24 21 19 21 26 29 32 35 38 39 38 38 39 39 36 31 27 27 25 24 24 24 24 22 22 23 23 21 18 16 14 14 14
0 0 0 1 0 0 0 0 1 3 5 9 13 16 18 21 23 23 23 26 30 33 34 35 36 35 35 36 38 36 31 25 22 22 22 20 18 18 17 17 20 23 22 19 15 14 13 12 13
0 0 0 0 0 0 0 0 1 2 4 6 9 12 14 16 18 22 26 31 35 36 37 37 37 36 35 36 36 33 29 26 23 22 20 16 12 12 11 11 15 19 20 18 14 13 12 12 12
0 0 0 0 0 0 0 0 1 3 3 4 7 11 13 13 16 24 31 37 39 38 38 40 40 37 35 35 33 30 29 28 25 21 17 14 12 10 9 9 10 13 16 16 13 11 10 11 11
0 0 0 0 0 0 0 0 1 3 3 3 6 9 10 11 15 25 34 39 41 39 37 37 38 36 34 34 32 28 27 25 22 17 15 14 13 11 7 7 8 9 11 13 11 9 9 9 9
0 0 0 0 0 0 0 0 1 1 1 2 5 7 7 8 13 22 31 36 39 38 36 34 33 34 33 32 30 27 25 23 20 16 15 14 13 9 5 4 5 6 9 10 11 10 8 7 7
0 0 0 0 0 0 0 0 1 1 1 1 3 5 5 6 10 18 26 32 36 36 35 32 30 31 30 28 26 25 24 22 19 16 14 13 10 6 3 2 3 4 7 9 12 11 8 6 6
0 0 0 0 0 0 0 0 1 1 1 1 2 2 3 5 9 16 25 30 32 33 32 30 29 28 26 23 22 21 20 19 16 13 11 9 7 4 3 3 3 3 4 6 9 11 9 6 4
0 0 0 0 0 0 0 0 0 0 0 1 1 0 2 5 8 13 21 27 29 30 29 28 27 25 22 19 18 18 17 16 13 10 7 5 4 3 3 3 3 3 3 4 5 8 8 6 5
0 0 0 0 0 0 0 0 0 0 0 0 0 0 2 5 7 10 14 21 25 25 25 25 24 23 20 17 16 16 16 14 11 8 5 4 4 4 3 3 2 2 2 2 3 4 6 6 6
0 0 0 0 0 0 0 0 0 0 0 1 1 1 2 4 5 7 10 15 20 20 20 19 18 18 16 15 15 15 14 13 11 8 5 5 5 3 2 1 1 1 0 1 2 2 2 3 4
0 0 0 0 0 0 0 0 0 0 1 2 2 1 1 3 4 6 9 12 16 18 16 14 14 13 12 12 14 14 13 12 11 8 6 7 6 2 1 0 0 0 0 0 1 1 1 1 2

GEFSSGP_con_probscp_174.txt.gz
Probability
0 0 0 0 0 0 0 0 0 0 1 1 0 1 3 6 6 6 9 17 27 27 18 15 17 15 9 5 4 4 4 4 4 4 4 4 4 3 3 3 3 3 3 3 3 3 3 3 3
0 0 0 0 0 0 0 0 0 1 2 2 1 2 5 7 8 7 11 20 26 26 21 19 20 18 12 6 5 5 5 5 5 4 4 4 4 3 3 3 3 3 4 4 4 4 4 3 3
0 0 0 0 0 0 0 0 0 1 2 3 4 6 9 11 10 10 16 22 25 26 27 29 28 23 15 9 6 5 6 6 5 5 5 5 5 4 3 3 3 4 5 5 5 5 5 4 3
0 0 0 0 0 0 1 1 1 2 3 5 7 12 15 16 14 14 18 21 25 31 36 37 35 28 19 12 8 7 7 7 7 7 8 9 8 7 5 4 4 4 5 6 6 6 6 4 4
0 0 0 0 0 1 2 2 3 4 5 7 11 17 21 19 17 17 16 18 26 37 43 43 40 34 24 16 11 9 8 8 9 10 12 14 15 13 9 7 6 6 6 7 7 6 6 5 4
0 0 0 0 1 2 3 4 4 6 8 11 14 20 24 20 16 16 17 18 25 40 48 48 46 40 30 21 15 13 11 9 8 11 15 18 17 16 13 11 10 10 10 8 7 7 6 6 5
0 0 0 0 1 3 4 6 7 8 12 15 17 23 28 26 19 17 20 23 29 42 51 49 46 43 35 26 22 21 18 13 10 12 16 18 16 14 13 14 15 15 13 10 8 8 9 8 7
0 0 0 1 3 5 6 8 10 11 14 18 20 27 36 35 25 22 27 32 38 48 54 50 45 43 37 32 31 30 25 20 16 16 18 17 15 12 12 15 18 19 16 12 9 9 10 10 10
0 0 1 2 4 7 8 8 9 11 15 19 25 33 40 38 31 30 36 41 48 56 59 53 48 44 37 35 38 36 29 23 21 20 20 20 17 14 13 17 23 24 19 15 13 12 10 9 9
0 0 1 2 4 6 8 8 7 10 15 19 27 38 41 38 36 38 42 48 54 61 61 56 52 47 40 39 43 40 32 27 26 25 25 25 23 20 18 21 28 29 23 19 19 17 13 10 10
0 1 1 2 4 6 8 8 9 11 15 20 28 39 41 40 40 42 45 51 57 62 63 59 56 52 48 47 48 43 37 35 34 34 35 34 31 29 28 29 32 31 26 24 25 22 16 12 12
1 1 2 3 4 6 8 10 12 14 16 20 27 33 37 38 40 43 47 52 60 65 65 62 60 58 58 57 53 46 41 40 43 44 45 44 40 37 35 34 34 31 29 28 27 23 17 12 11
0 1 2 3 4 5 7 10 13 15 17 20 24 28 32 37 40 44 50 57 64 68 68 64 62 63 65 64 56 46 41 42 47 51 51 49 46 41 38 38 36 31 28 28 25 21 16 12 9
0 0 1 2 2 3 6 9 13 15 17 21 23 25 29 35 39 45 53 61 68 71 70 67 64 65 68 66 57 47 42 43 49 53 52 48 45 42 40 40 37 32 28 26 21 17 15 13 11
0 0 0 1 1 3 5 8 12 15 18 21 22 23 28 33 37 44 54 64 70 72 72 68 65 65 67 65 58 50 45 45 50 53 51 46 42 40 39 39 38 36 32 26 20 16 14 14 14
0 0 0 0 1 2 3 7 12 15 19 22 22 23 28 33 37 42 51 63 68 69 71 69 64 64 65 64 59 52 48 49 51 51 49 47 44 40 37 37 38 37 33 26 19 16 15 15 15
0 0 0 1 1 1 3 8 13 16 19 22 22 23 27 32 37 41 48 57 63 66 69 68 64 62 62 61 59 53 51 51 50 48 47 47 46 41 37 38 36 33 28 22 18 16 16 15 14
0 0 1 2 2 1 3 8 13 16 18 20 21 22 22 26 33 40 45 51 57 62 63 63 61 58 56 57 56 54 52 50 46 44 45 44 42 39 36 35 32 27 21 18 16 15 15 13 11
0 1 2 3 2 1 3 7 11 14 15 17 20 21 18 21 31 40 45 48 53 56 57 56 55 53 52 52 52 52 52 48 43 41 41 39 36 34 32 30 28 24 18 16 14 13 13 12 11
0 1 2 2 1 1 1 5 9 11 11 13 18 19 17 19 29 42 48 48 49 50 51 52 51 49 47 47 48 49 49 45 41 39 38 36 32 29 27 26 26 24 20 15 12 11 10 10 10
0 0 1 1 1 0 1 4 8 10 12 14 17 18 17 19 29 42 48 46 44 45 48 50 50 47 44 43 43 43 43 41 38 36 35 33 29 26 24 23 23 23 20 14 10 9 9 8 8
0 0 0 0 0 0 0 3 6 10 16 19 20 18 18 23 31 40 44 41 37 37 41 45 46 45 42 41 39 38 38 36 35 33 32 29 26 24 22 20 19 18 16 12 9 9 8 7 7
0 0 0 0 0 0 0 2 5 10 16 19 20 19 19 24 31 37 39 37 33 31 34 40 43 42 40 39 38 37 36 35 34 33 31 29 27 25 22 19 17 15 13 10 8 7 8 8 8
0 0 0 0 0 0 0 2 5 9 11 13 15 17 17 19 23 29 32 33 32 30 33 38 41 40 38 38 38 39 38 36 34 33 32 30 27 25 22 19 17 16 14 10 7 6 5 6 7
0 0 0 0 0 0 0 1 4 6 7 9 11 13 13 14 16 22 26 28 29 31 33 37 39 38 37 37 39 40 40 37 33 32 32 29 24 21 19 18 18 16 13 9 6 4 4 4 5
0 0 0 0 0 0 0 1 3 4 5 7 10 12 12 11 14 20 24 26 29 31 32 33 36 36 35 35 36 38 39 37 34 32 31 26 21 17 16 17 16 14 10 6 4 3 3 3 4
0 0 0 0 0 0 0 1 3 5 5 6 10 13 12 13 16 20 24 27 28 29 29 30 33 33 32 30 30 32 34 34 32 31 29 25 21 17 15 14 13 10 6 3 2 1 2 4 4
0 0 0 0 0 0 0 1 4 5 5 6 9 12 14 17 20 20 21 22 22 21 23 26 28 28 27 26 26 26 28 28 27 26 25 23 21 18 14 11 9 7 4 2 1 0 1 3 4
0 0 0 0 0 0 0 1 4 5 5 5 7 11 15 20 20 16 13 14 14 13 17 22 23 24 24 24 24 23 22 20 19 19 19 18 18 16 11 8 7 4 2 1 1 0 0 2 3
0 0 0 0 0 0 0 1 4 5 4 4 6 10 16 20 17 10 7 9 10 11 16 20 22 22 22 22 22 21 18 14 13 13 14 14 15 13 9 7 5 3 1 2 2 1 0 0 1